     2              OBSERVATION DATA    GPS                 RINEX VERSION / TYPE
FIC2RX 9.60 97/08/04                                        PGM / RUN BY / DATE
                                                            COMMENT
Operator input collection int (sec) 30.0000                 COMMENT
Operator input collection int (sec) 30.0000                 COMMENT
Operator input collection int (sec) 30.0000                 COMMENT
Operator input collection int (sec) 30.0000                 COMMENT
Original Marker Name: COACH2                                COMMENT
Campaign Name: STRC 1988 University                         COMMENT
4-Character Station Name: COAC                              COMMENT
6-Character Antenna Code: TI4100                            COMMENT
Vertical Measurement Point: PAE                             COMMENT
Vertical Offset to Rinex Ref. Point: 0.0000                 COMMENT
Radial Measurement Point: PAE                               COMMENT
Radial Offset to Rinex Ref. Point: 0.0842                   COMMENT
Antenna Height from Field Measurement: 1.0230 m             COMMENT
Original XYZ: 0.0000 0.0000 0.0000                          COMMENT
New XYZ position is based on association with SCEC monument COMMENT
E1D0I5P7+0012. Position of that monument is believed to be  COMMENT
valid to within 1 m horizontally; vertical accuracy         COMMENT
should be no worse than 3-times this value.                 COMMENT
                                                            COMMENT
Revised Rinex header created by UCSD GPS archive for        COMMENT
GSAC on 12-Apr-1999 (1999:102) 05:50:10 GMT                 COMMENT
For assistance contact dagnew@ucsd.edu or hjohnson@ucsd.edu COMMENT
                                                            COMMENT
COACH2                                                      MARKER NAME
SL CALIF INSTIT OF TECHNOLOGY                               OBSERVER / AGENCY
UT51 TI 4100 GES 1.50                                       REC # / TYPE / VERS
UT51 TI 4100                                                ANT # / TYPE
 -2292214.0000 -4825862.0000  3472186.0000                  APPROX POSITION XYZ
        1.0195        0.0000        0.0000                  ANTENNA: DELTA H/E/N
     1     1     0                                          WAVELENGTH FACT L1/2
     4    L1    L2    P1    P2                              # / TYPES OF OBSERV
    30                                                      INTERVAL
  1988     2    27     4    52   29.000000                  TIME OF FIRST OBS
  1988     2    27    12     3   59.000000                  TIME OF LAST OBS
     7                                                      # OF SATELLITES
           6   384   384   384   384                        PRN / # OF OBS
           8   288   288   288   288                        PRN / # OF OBS
          11   560   560   560   560                        PRN / # OF OBS
           9   628   628   628   628                        PRN / # OF OBS
          13   576   576   576   576                        PRN / # OF OBS
           3   480   480   480   480                        PRN / # OF OBS
                                                            END OF HEADER
 88  2 27  4 52 29.0800000  0  2  6  8
          .498 7         -.035 6  21727617.751 0  21727617.723 0
          .193 7         -.233 6  20291658.689 0  20291660.519 0
 88  2 27  4 52 59.0800000  0  2  6  8
    -57795.903 7    -45036.197 7  21716617.780 0  21716618.305 0
    -35960.781 8    -28021.757 6  20284815.727 0  20284817.218 0
 88  2 27  4 53 29.0800000  0  2  6  8
   -115456.949 7    -89966.883 7  21705645.370 0  21705646.561 0
    -71244.035 7    -55515.194 6  20278102.579 0  20278103.020 0
 88  2 27  4 53 59.0800000  0  2  6  8
   -172980.671 7   -134790.558 7  21694698.695 0  21694699.914 0
   -105848.298 7    -82479.551 6  20271517.386 0  20271516.949 0
 88  2 27  4 54 29.0800000  0  2  6  8
   -230365.254 8   -179505.810 7  21683779.731 0  21683779.795 0
   -139772.822 7   -108914.225 6  20265061.259 0  20265062.079 0
 88  2 27  4 54 59.0800000  0  2  6  8
   -287608.695 7   -224111.087 6  21672886.140 0  21672886.519 0
   -173016.521 7   -134818.410 6  20258734.292 0  20258736.765 0
 88  2 27  4 55 29.0800000  0  2  6  8
   -344709.352 8   -268605.096 7  21662019.857 0  21662020.692 0
   -205578.508 7   -160191.391 6  20252538.398 0  20252541.375 0
 88  2 27  4 55 59.0800000  0  2  6  8
   -401665.147 7   -312986.238 6  21651181.818 0  21651181.843 0
   -237457.650 7   -185032.279 6  20246472.764 0  20246475.735 0
 88  2 27  4 56 29.0800000  0  2  6  8
   -458474.154 8   -357252.992 7  21640371.379 0  21640372.398 0
   -268652.889 8   -209340.243 6  20240536.109 0  20240536.722 0
 88  2 27  4 56 59.0800000  0  2  6  8
   -515134.342 8   -401403.784 7  21629589.796 0  21629589.306 0
   -299163.551 7   -233114.773 6  20234730.067 0  20234730.853 0
 88  2 27  4 57 29.0800000  0  2  6  8
   -571643.857 7   -445437.158 7  21618836.432 0  21618836.823 0
   -328988.411 7   -256354.918 6  20229056.032 0  20229056.145 0
 88  2 27  4 57 59.0800000  0  2  6  8
   -628000.668 7   -489351.562 7  21608111.511 0  21608111.904 0
   -358127.141 8   -279060.405 6  20223510.201 0  20223511.054 0
 88  2 27  4 58 29.0800000  0  2  6  8
   -684202.913 7   -533145.532 6  21597415.403 0  21597416.755 0
   -386578.735 7   -301230.461 6  20218096.013 0  20218097.530 0
 88  2 27  4 58 59.0800000  0  2  6  8
   -740248.538 7   -576817.429 6  21586750.583 0  21586752.685 0
   -414342.056 7   -322864.210 6  20212812.699 0  20212814.312 0
 88  2 27  4 59 29.0800000  0  2  6  8
   -796135.772 7   -620365.932 6  21576115.489 0  21576118.321 0
   -441416.953 7   -343961.518 6  20207659.150 0  20207661.690 0
 88  2 27  4 59 59.0800000  0  2  6  8
   -851862.329 7   -663789.205 7  21565511.761 0  21565513.405 0
   -467802.247 7   -364521.488 6  20202638.834 0  20202640.322 0
 88  2 27  5  0 29.0800000  0  4  6  8 11  9
   -907426.090 7   -707085.654 6  21554937.865 0  21554939.277 0
   -493497.431 7   -384543.714 6  20197748.764 0  20197750.526 0
         -.175 7          .000 1  22421826.431 0          .000 0
         -.201 6          .000 1          .000 0          .000 0
 88  2 27  5  0 59.0800000  0  4  6  8 11  9
   -962825.460 7   -750254.000 7  21544395.810 0  21544396.150 0
   -518502.144 7   -404027.895 6  20192991.740 0  20192993.377 0
    -93828.541 7     83220.825 6  22404004.767 0  22404007.600 0
    -89778.702 6    155367.684 6  23910395.893 0  23910395.410 0
 88  2 27  5  1 29.0800000  0  4  6  8 11  9
  -1018058.291 7   -793292.573 6  21533885.272 0  21533886.412 0
   -542815.672 7   -422973.505 6  20188364.649 0  20188365.322 0
   -187316.196 7     10373.306 6  22386214.594 0  22386218.342 0
   -179604.809 7     85372.794 6  23893304.337 0  23893303.785 0
 88  2 27  5  1 59.0800000  0  4  6  8 11  9
  -1073122.745 7   -836199.939 7  21523406.937 0  21523408.301 0
   -566437.720 7   -441380.299 6  20183869.735 0  20183870.906 0
   -280461.467 7    -62207.418 6  22368488.520 0  22368493.060 0
   -269477.888 7     15341.813 6  23876200.301 0  23876202.487 0
 88  2 27  5  2 29.0800000  0  4  6  8 11  9
  -1128016.692 7   -878974.435 6  21512960.752 0  21512963.109 0
   -589367.611 8   -459247.741 6  20179506.503 0  20179507.530 0
   -373261.700 7   -134519.269 7  22350828.351 0  22350833.049 0
   -359396.567 6    -54724.668 7  23859088.245 0  23859091.204 0
 88  2 27  5  2 59.0800000  0  4  6  8 11  9
  -1182737.791 7   -921614.255 7  21502548.831 0  21502549.300 0
   -611604.368 7   -476575.068 6  20175274.602 0  20175276.248 0
   -465713.862 7   -206559.886 6  22333236.084 0  22333239.727 0
   -449359.434 6   -124825.557 7  23841968.933 0  23841971.688 0
 88  2 27  5  3 29.0800000  0  4  6  8 11  9
  -1237284.078 7   -964117.849 7  21492169.016 0  21492169.038 0
   -633147.938 7   -493362.251 6  20171174.831 0  20171175.314 0
   -557815.815 7   -278327.641 7  22315710.282 0  22315713.362 0
   -539365.531 6   -194960.107 6  23824843.018 0  23824843.211 0
 88  2 27  5  3 59.0800000  0  4  6  8 11  9
  -1291653.834 7  -1006483.878 6  21481822.656 0  21481822.947 0
   -653998.384 7   -509609.351 6  20167206.993 0  20167208.123 0
   -649565.034 7   -349820.521 7  22298252.329 0  22298252.176 0
   -629413.839 6   -265127.594 5  23807705.911 0  23807706.356 0
 88  2 27  5  4 29.0800000  0  4  6  8 11  9
  -1345844.873 7  -1048710.665 6  21471509.823 0  21471511.906 0
   -674154.955 7   -525315.751 7  20163370.190 0  20163372.621 0
   -740959.044 7   -421036.625 7  22280859.585 0  22280861.928 0
   -719503.245 7   -335327.101 5  23790564.384 0  23790563.506 0
 88  2 27  5  4 59.0800000  0  4  6  8 11  9
  -1399855.082 7  -1090796.540 7  21461232.589 0  21461234.449 0
   -693617.032 7   -540481.001 6  20159668.270 0  20159668.697 0
   -831995.314 7   -491973.956 7  22263535.561 0  22263538.485 0
   -809632.147 7   -405557.422 6  23773412.537 0  23773413.729 0
 88  2 27  5  5 29.0800000  0  4  6  8 11  9
  -1453682.458 7  -1132739.944 7  21450989.583 0  21450991.174 0
   -712384.732 7   -555105.164 6  20156096.112 0  20156097.147 0
   -922671.994 7   -562631.089 6  22246279.503 0  22246283.081 0
   -899799.626 7   -475817.815 6  23756254.769 0  23756254.291 0
 88  2 27  5  5 59.0800000  0  4  6  8 11  9
  -1507324.691 7  -1174539.092 6  21440781.030 0  21440782.571 0
   -730457.730 7   -569188.012 6  20152657.626 0  20152660.332 0
  -1012985.916 7   -633005.545 7  22229094.002 0  22229098.730 0
   -990004.393 6   -546107.200 6  23739087.314 0  23739090.777 0
 88  2 27  5  6 29.0800000  0  4  6  8 11  9
  -1560779.682 7  -1216192.330 6  21430608.924 0  21430611.767 0
   -747835.663 7   -582729.262 6  20149351.346 0  20149352.250 0
  -1102934.183 6   -703095.107 6  22211976.704 0  22211981.290 0
  -1080244.903 6   -616424.458 6  23721916.656 0  23721917.007 0
 88  2 27  5  6 59.0800000  0  4  6  8 11  9
  -1614045.583 8  -1257698.226 7  21420473.116 0  21420474.363 0
   -764518.834 7   -595729.126 6  20146175.698 0  20146177.591 0
  -1192515.259 7   -772898.535 6  22194930.524 0  22194934.571 0
  -1170520.473 7   -686769.047 6  23704736.497 0  23704738.460 0
 88  2 27  5  7 29.0800000  0  4  6  8 11  9
  -1667120.194 7  -1299055.079 7  21410373.344 0  21410372.782 0
   -780506.329 7   -608186.929 7  20143133.111 0  20143134.062 0
  -1281726.541 7   -842413.802 6  22177953.588 0  22177957.452 0
  -1260829.469 6   -757139.677 6  23687551.576 0  23687554.476 0
 88  2 27  5  7 59.0800000  0  4  6  8 11  9
  -1720001.385 7  -1340261.193 8  21400311.076 0  21400312.353 0
   -795798.679 7   -620103.033 6  20140224.039 0  20140226.453 0
  -1370565.427 7   -911638.888 6  22161049.875 0  22161051.727 0
  -1351170.588 6   -827535.321 6  23670358.892 0  23670363.441 0
 88  2 27  5  8 29.0800000  0  4  6  8 11  9
  -1772686.888 7  -1381314.831 7  21390286.183 0  21390285.358 0
   -810395.088 7   -631476.847 6  20137445.494 0  20137446.725 0
  -1459029.256 7   -980571.728 7  22144214.979 0  22144217.365 0
  -1441542.558 7   -897955.013 6  23653162.868 0  23653165.496 0
 88  2 27  5  8 59.0800000  0  4  6  8 11  9
  -1825174.563 8  -1422214.312 7  21380297.330 0  21380298.055 0
   -824295.235 7   -642308.121 7  20134800.257 0  20134802.148 0
  -1547115.954 7  -1049210.699 5  22127452.990 0  22127456.389 0
  -1531944.143 7   -968397.776 7  23635960.214 0  23635961.960 0
 88  2 27  5  9 29.0800000  0  4  6  8 11  9
  -1877462.637 7  -1462958.271 7  21370346.804 0  21370347.465 0
   -837499.862 7   -652597.429 6  20132287.492 0  20132290.545 0
  -1634823.461 7  -1117554.197 7  22110762.290 0  22110765.758 0
  -1622374.067 7  -1038862.640 6  23618752.683 0  23618753.689 0
 88  2 27  5  9 59.0800000  0  4  6  8 11  9
  -1929548.659 7  -1503544.780 6  21360435.783 0  21360436.888 0
   -850008.871 7   -662344.722 6  20129907.150 0  20129908.322 0
  -1722148.981 7  -1185600.068 7  22094144.847 0  22094148.212 0
  -1712830.875 7  -1109348.432 7  23601538.452 0  23601540.724 0
 88  2 27  5 10 29.0800000  0  4  6  8 11  9
  -1981430.509 8  -1543972.198 7  21350562.192 0  21350563.370 0
   -861822.205 7   -671549.921 6  20127658.392 0  20127661.062 0
  -1809090.073 7  -1253346.364 6  22077601.096 0  22077604.632 0
  -1803313.221 6  -1179854.140 6  23584319.492 0  23584322.484 0
 88  2 27  5 10 59.0800000  0  4  6  8 11  9
  -2033106.161 8  -1584238.949 6  21340728.683 0  21340730.213 0
   -872940.183 7   -680213.266 6  20125544.400 0  20125544.777 0
  -1895644.921 7  -1320791.706 7  22061128.639 0  22061132.623 0
  -1893820.179 7  -1250379.026 6  23567097.941 0  23567099.103 0
 88  2 27  5 11 29.0800000  0  4  6  8 11  9
  -2084573.332 8  -1624343.242 6  21330935.154 0  21330936.308 0
   -883362.371 7   -688334.453 6  20123560.747 0  20123563.156 0
  -1981810.750 7  -1387933.894 7  22044732.548 0  22044736.154 0
  -1984349.882 7  -1320921.646 7  23549869.923 0  23549872.599 0
 88  2 27  5 11 59.0800000  0  4  6  8 11  9
  -2135829.919 7  -1664283.446 6  21321180.546 0  21321181.193 0
   -893089.002 7   -695913.639 6  20121709.239 0  20121709.257 0
  -2067585.342 7  -1454771.206 7  22028410.257 0  22028413.392 0
  -2074901.213 7  -1391481.125 6  23532638.530 0  23532640.913 0
 88  2 27  5 12 29.0800000  0  4  6  8 11  9
  -2186873.512 8  -1704057.688 7  21311466.719 0  21311468.929 0
   -902120.189 7   -702950.929 6  20119989.856 0  20119992.603 0
  -2152966.278 7  -1521301.782 6  22012163.520 0  22012165.269 0
  -2165472.414 7  -1462056.062 7  23515404.574 0  23515405.881 0
 88  2 27  5 12 59.0800000  0  4  6  8 11  9
  -2237702.013 7  -1743664.304 7  21301795.177 0  21301796.743 0
   -910456.502 8   -709446.752 5  20118403.155 0  20118406.636 0
  -2237951.353 8  -1587523.931 6  21995991.173 0  21995993.455 0
  -2256062.271 7  -1532645.539 6  23498164.154 0  23498166.848 0
 88  2 27  5 13 29.0800000  0  4  6  8 11  9
  -2288313.536 7  -1783101.839 7  21292163.555 0  21292164.822 0
   -918098.379 7   -715401.433 6  20116950.668 0  20116950.872 0
  -2322538.484 7  -1653435.959 6  21979894.137 0  21979898.106 0
  -2346669.712 7  -1603248.699 6  23480923.168 0  23480925.794 0
 88  2 27  5 13 59.0800000  0  4  6  8 11  9
  -2338705.763 7  -1822368.491 7  21282574.723 0  21282576.345 0
   -925045.829 7   -720815.052 6  20115628.138 0  20115630.518 0
  -2406725.451 7  -1719036.184 6  21963874.893 0  21963876.685 0
  -2437293.231 7  -1673864.419 6  23463677.019 0  23463677.373 0
 88  2 27  5 14 29.0800000  0  4  6  8 11  9
  -2388876.346 8  -1861462.456 7  21273027.293 0  21273029.587 0
   -931298.844 7   -725687.517 6  20114438.428 0  20114440.776 0
  -2490509.951 7  -1784322.767 6  21947930.073 0  21947933.900 0
  -2527931.020 7  -1744491.294 6  23446430.644 0  23446430.606 0
 88  2 27  5 14 59.0800000  0  4  6  8 11  9
  -2438823.069 8  -1900381.980 7  21263524.154 0  21263524.620 0
   -936857.984 7   -730019.293 6  20113381.133 0  20113382.222 0
  -2573889.645 7  -1849293.939 6  21932064.195 0  21932067.240 0
  -2618581.552 7  -1815128.073 7  23429180.644 0  23429181.712 0
 88  2 27  5 15 29.0800000  0  4  6  8 11  9
  -2488543.732 8  -1939125.353 7  21254061.969 0  21254062.702 0
   -941723.660 7   -733810.732 6  20112454.048 0  20112455.554 0
  -2656862.534 7  -1913948.156 7  21916275.528 0  21916276.811 0
  -2709243.696 7  -1885773.863 6  23411926.983 0  23411930.337 0
 88  2 27  5 15 59.0800000  0  4  6  8 11  9
  -2538036.320 7  -1977691.007 7  21244643.757 0  21244644.809 0
   -945896.190 6   -737062.059 6  20111659.711 0  20111662.644 0
  -2739426.600 7  -1978283.805 7  21900563.439 0  21900566.582 0
  -2799915.905 8  -1956427.507 6  23394674.257 0  23394675.709 0
 88  2 27  5 16 29.0800000  0  4  6  8 11  9
  -2587298.566 7  -2016077.164 7  21235269.022 0  21235271.052 0
   -949376.374 7   -739773.878 6  20110998.092 0  20110999.744 0
  -2821579.474 7  -2042299.015 6  21884930.864 0  21884932.895 0
  -2890596.637 7  -2027087.809 6  23377417.256 0  23377419.802 0
 88  2 27  5 16 59.0800000  0  4  6  8 11  9
  -2636328.140 7  -2054282.025 7  21225939.048 0  21225940.936 0
   -952164.424 6   -741946.383 7  20110466.950 0  20110469.338 0
  -2903318.832 8  -2105992.009 7  21869376.204 0  21869378.511 0
  -2981284.463 7  -2097753.642 6  23360160.153 0  23360160.728 0
 88  2 27  5 17 29.0800000  0  4  6  8 11  9
  -2685122.818 7  -2092303.851 7  21216653.905 0  21216655.703 0
   -954261.203 7   -743580.230 6  20110067.239 0  20110070.168 0
  -2984642.629 7  -2169361.177 7  21853900.390 0  21853904.088 0
  -3071978.017 7  -2168423.936 5  23342901.594 0  23342901.953 0
 88  2 27  5 17 59.0800000  0  4  6  8 11  9
  -2733680.338 8  -2130140.882 7  21207414.071 0  21207415.227 0
   -955667.096 6   -744675.728 6  20109800.862 0  20109802.344 0
  -3065548.690 7  -2232404.845 7  21838504.499 0  21838506.873 0
  -3162675.309 8  -2239097.148 6  23325642.640 0  23325645.216 0
 88  2 27  5 18 29.0800000  0  4  6  8 11  9
  -2781998.262 7  -2167791.209 6  21198219.197 0  21198220.965 0
   -956382.336 7   -745233.021 6  20109665.002 0  20109666.774 0
  -3146034.598 7  -2295121.113 7  21823188.310 0  21823190.096 0
  -3253374.969 7  -2309772.187 6  23308382.322 0  23308384.800 0
 88  2 27  5 18 59.0800000  0  4  6  8 11  9
  -2830074.374 7  -2205253.116 7  21189070.457 0  21189072.291 0
   -956407.699 7   -745252.793 6  20109661.182 0  20109660.874 0
  -3226098.359 7  -2357508.452 6  21807952.688 0  21807955.885 0
  -3344075.198 7  -2380447.685 6  23291123.097 0  23291124.532 0
 88  2 27  5 19 29.0800000  0  4  6  8 11  9
  -2877906.325 7  -2242524.775 7  21179968.446 0  21179969.492 0
   -955743.525 7   -744735.254 6  20109785.853 0  20109789.104 0
  -3305737.951 7  -2419565.271 7  21792798.406 0  21792799.754 0
  -3434774.687 8  -2451122.579 7  23273863.379 0  23273867.003 0
 88  2 27  5 19 59.0800000  0  4  6  8 11  9
  -2925492.086 7  -2279604.584 7  21170913.783 0  21170914.893 0
   -954391.107 7   -743681.394 6  20110043.228 0  20110044.065 0
  -3384951.222 7  -2481289.887 7  21777724.060 0  21777727.494 0
  -3525471.772 7  -2521795.630 6  23256605.797 0  23256607.143 0
 88  2 27  5 20 29.0800000  0  4  6  8 11  9
  -2972829.774 7  -2316491.091 7  21161905.170 0  21161906.741 0
   -952351.209 6   -742091.870 6  20110432.133 0  20110434.377 0
  -3463736.347 7  -2542680.898 6  21762731.970 0  21762734.325 0
  -3616165.254 7  -2592465.886 6  23239345.428 0  23239346.465 0
 88  2 27  5 20 59.0800000  0  4  6  8 11  9
  -3019916.593 7  -2353182.113 7  21152944.455 0  21152946.371 0
   -949624.196 7   -739966.925 6  20110951.807 0  20110952.124 0
  -3542091.268 7  -2603736.658 6  21747821.310 0  21747823.968 0
  -3706853.276 6  -2663131.874 6  23222088.170 0  23222090.622 0
 88  2 27  5 21 29.0800000  0  4  6  8 11  9
  -3066750.423 7  -2389675.994 7  21144033.125 0  21144033.491 0
   -946211.150 6   -737307.387 6  20111600.620 0  20111601.846 0
  -3620013.999 7  -2664455.655 6  21732993.477 0  21732996.241 0
  -3797533.945 7  -2733792.131 6  23204832.289 0  23204833.895 0
 88  2 27  5 21 59.0800000  0  4  6  8 11  9
  -3113328.776 8  -2425970.807 7  21135169.677 0  21135170.456 0
   -942112.605 7   -734113.715 6  20112379.563 0  20112381.856 0
  -3697502.307 7  -2724836.137 6  21718247.161 0  21718250.095 0
  -3888205.671 6  -2804445.389 6  23187579.756 0  23187580.589 0
 88  2 27  5 22 29.0800000  0  4  6  8 11  9
  -3159649.421 8  -2462064.834 7  21126354.824 0  21126354.765 0
   -937329.454 6   -730386.584 6  20113291.100 0  20113292.398 0
  -3774554.063 7  -2784876.448 6  21703585.492 0  21703587.419 0
  -3978866.771 7  -2875090.404 6  23170326.891 0  23170328.745 0
 88  2 27  5 22 59.0800000  0  4  6  8 11  9
  -3205709.938 7  -2497956.153 6  21117589.385 0  21117590.558 0
   -931862.580 7   -726126.679 7  20114331.568 0  20114331.793 0
  -3851167.384 7  -2844575.111 6  21689005.581 0  21689008.120 0
  -4069515.598 6  -2945725.841 5  23153074.725 0  23153077.583 0
 88  2 27  5 23 29.0800000  0  4  6  8 11  9
  -3251508.348 7  -2533643.221 6  21108872.724 0  21108875.715 0
   -925712.952 7   -721334.751 6  20115501.470 0  20115503.204 0
  -3927340.474 7  -2903930.754 7  21674510.014 0  21674513.316 0
  -4160150.669 6  -3016350.544 6  23135828.308 0  23135829.707 0
 88  2 27  5 23 59.0800000  0  4  6  8 11  9
  -3297042.521 7  -2569124.402 6  21100209.065 0  21100212.809 0
   -918881.801 7   -716011.780 7  20116801.788 0  20116802.027 0
  -4003071.623 7  -2962942.028 6  21660099.182 0  21660102.588 0
  -4250770.557 6  -3086963.442 6  23118583.498 0  23118587.388 0
 88  2 27  5 24 29.0800000  0  4  6  8 11  9
  -3342309.848 7  -2604397.635 7  21091595.255 0  21091597.292 0
   -911369.632 6   -710158.136 7  20118230.303 0  20118232.581 0
  -4078358.473 7  -3021607.091 7  21645773.172 0  21645775.713 0
  -4341373.079 6  -3157562.800 6  23101344.498 0  23101344.406 0
 88  2 27  5 24 59.0800000  0  4  6  8 11  9
  -3387308.127 7  -2639461.216 7  21083031.884 0  21083034.242 0
   -903177.499 7   -703774.643 7  20119789.865 0  20119790.350 0
  -4153199.469 7  -3079924.739 7  21631531.279 0  21631533.856 0
  -4431956.896 6  -3228147.567 6  23084105.601 0  23084106.099 0
 88  2 27  5 25 29.0800000  0  4  6  8 11  9
  -3432035.096 8  -2674313.389 6  21074520.839 0  21074521.865 0
   -894307.134 7   -696862.674 6  20121477.324 0  20121478.654 0
  -4227592.408 7  -3137893.261 6  21617374.819 0  21617378.384 0
  -4522520.000 6  -3298716.216 6  23066871.936 0  23066873.694 0
 88  2 27  5 25 59.0800000  0  4  6  8 11  9
  -3476488.350 7  -2708952.301 7  21066062.746 0  21066063.781 0
   -884759.085 7   -689422.634 6  20123293.738 0  20123295.069 0
  -4301535.659 7  -3195511.381 7  21603303.545 0  21603306.278 0
  -4613060.714 6  -3369267.403 6  23049644.327 0  23049642.906 0
 88  2 27  5 26 29.0800000  0  4  6  8 11  9
  -3520665.753 7  -2743376.264 6  21057656.022 0  21057656.987 0
   -874534.492 8   -681455.408 7  20125240.289 0  20125241.718 0
  -4375027.347 7  -3252777.614 6  21589317.460 0  21589320.871 0
  -4703577.399 6  -3439799.892 6  23032416.354 0  23032419.374 0
 88  2 27  5 26 59.0800000  0  4  6  8 11  9
  -3564564.401 7  -2777583.014 6  21049301.079 0  21049304.193 0
   -863634.199 7   -672961.668 7  20127314.446 0  20127315.569 0
  -4448065.169 7  -3309690.197 6  21575419.897 0  21575422.870 0
  -4794067.957 6  -3510311.992 6  23015198.963 0  23015199.008 0
 88  2 27  5 27 29.0800000  0  4  6  8 11  9
  -3608182.274 7  -2811570.955 7  21041000.586 0  21041003.022 0
   -852059.550 7   -663942.472 7  20129517.573 0  20129518.267 0
  -4520647.539 7  -3366247.879 6  21561607.440 0  21561610.506 0
  -4884530.591 7  -3580802.367 6  22997984.576 0  22997985.346 0
 88  2 27  5 27 59.0800000  0  4  6  8 11  9
  -3651517.095 7  -2845338.338 6  21032755.865 0  21032756.761 0
   -839811.923 7   -654398.851 6  20131846.467 0  20131849.115 0
  -4592772.277 7  -3422448.932 5  21547882.525 0  21547888.276 0
  -4974963.576 7  -3651269.593 6  22980774.148 0  22980776.336 0
 88  2 27  5 28 29.0800000  0  4  6  8 11  9
  -3694566.437 8  -2878883.271 7  21024563.280 0  21024564.762 0
   -826892.302 7   -644331.620 6  20134305.925 0  20134307.234 0
  -4664438.396 7  -3478292.653 6  21534245.850 0  21534247.244 0
  -5065365.191 7  -3721712.416 6  22963572.494 0  22963572.602 0
 88  2 27  5 28 59.0800000  0  4  6  8 11  9
  -3737328.044 8  -2912204.012 7  21016426.109 0  21016427.575 0
   -813302.087 7   -633741.837 7  20136891.451 0  20136893.119 0
  -4735643.532 7  -3533777.152 6  21520695.562 0  21520696.671 0
  -5155733.480 7  -3792129.254 6  22946374.990 0  22946377.028 0
 88  2 27  5 29 29.0800000  0  4  6  8 11  9
  -3779799.716 8  -2945298.825 6  21008344.831 0  21008345.053 0
   -799042.435 7   -622630.430 6  20139605.926 0  20139608.107 0
  -4806386.149 7  -3588901.254 6  21507234.088 0  21507236.329 0
  -5246066.786 7  -3862518.840 6  22929186.102 0  22929187.062 0
 88  2 27  5 29 59.0800000  0  4  6  8 11  9
  -3821979.099 8  -2978165.876 7  21000318.426 0  21000318.705 0
   -784114.900 7   -610998.588 6  20142446.597 0  20142447.062 0
  -4876664.656 7  -3643663.716 6  21493859.860 0  21493862.033 0
  -5336363.498 7  -3932879.914 6  22912003.014 0  22912004.014 0
 88  2 27  5 30 29.0800000  0  4  6  8 11  9
  -3863863.799 7  -3010803.301 7  20992346.699 0  20992348.022 0
   -768520.480 7   -598847.070 6  20145413.459 0  20145415.491 0
  -4946477.140 7  -3698063.030 6  21480575.592 0  21480578.504 0
  -5426621.393 7  -4003210.739 6  22894827.556 0  22894828.267 0
 88  2 27  5 30 59.0800000  0  4  6  8 11  9
  -3905451.475 8  -3043209.273 6  20984433.181 0  20984432.924 0
   -752260.524 7   -586176.984 6  20148508.478 0  20148509.536 0
  -5015821.606 6  -3752097.669 6  21467379.435 0  21467381.658 0
  -5516838.329 7  -4073509.644 6  22877659.713 0  22877661.454 0
 88  2 27  5 31 29.0800000  0  4  6  8 11  9
  -3946739.737 7  -3075381.950 6  20976575.921 0  20976575.942 0
   -735336.645 7   -572989.536 6  20151728.057 0  20151730.164 0
  -5084696.902 7  -3805766.688 6  21454272.934 0  21454276.673 0
  -5607012.833 7  -4143775.471 6  22860500.063 0  22860501.511 0
 88  2 27  5 31 59.0800000  0  4  6  8 11  9
  -3987726.302 7  -3107319.539 7  20968777.389 0  20968777.771 0
   -717750.314 7   -559285.894 6  20155075.542 0  20155077.431 0
  -5153101.271 7  -3859068.790 7  21441255.418 0  21441258.317 0
  -5697143.023 7  -4214006.773 6  22843348.111 0  22843350.466 0
 88  2 27  5 32 29.0800000  0  4  6  8 11  9
  -4028408.766 7  -3139020.172 6  20961035.393 0  20961035.201 0
   -699502.869 7   -545067.112 6  20158547.757 0  20158548.683 0
  -5221032.811 7  -3912002.455 7  21428329.614 0  21428331.438 0
  -5787226.947 7  -4284202.033 7  22826207.464 0  22826208.346 0
 88  2 27  5 32 59.0800000  0  4  6  8 11  9
  -4068785.190 7  -3170482.314 7  20953351.742 0  20953354.044 0
   -680596.103 7   -530334.545 6  20162146.025 0  20162147.174 0
  -5288490.299 7  -3964566.732 7  21415492.443 0  21415496.317 0
  -5877262.732 7  -4354359.804 6  22809073.349 0  22809074.212 0
 88  2 27  5 33 29.0800000  0  4  6  8 11  9
  -4108853.044 7  -3201704.017 6  20945726.036 0  20945728.737 0
   -661031.471 7   -515089.376 7  20165867.455 0  20165869.855 0
  -5355471.688 7  -4016760.011 6  21402745.339 0  21402749.013 0
  -5967248.645 7  -4424478.699 7  22791949.337 0  22791951.234 0
 88  2 27  5 33 59.0800000  0  4  6  8 11  9
  -4148609.553 7  -3232683.125 7  20938161.141 0  20938162.694 0
   -640810.444 7   -499332.711 6  20169716.994 0  20169717.667 0
  -5421975.361 7  -4068581.045 6  21390091.557 0  21390094.588 0
  -6057182.143 7  -4494556.731 6  22774836.679 0  22774836.888 0
 88  2 27  5 34 29.0800000  0  4  6  8 11  9
  -4188052.747 7  -3263418.061 7  20930656.151 0  20930657.231 0
   -619934.641 8   -483065.858 6  20173688.119 0  20173690.588 0
  -5487999.951 7  -4120028.774 6  21377527.012 0  21377528.705 0
  -6147061.584 7  -4564592.640 6  22757732.186 0  22757733.775 0
 88  2 27  5 34 59.0800000  0  4  6  8 11  9
  -4227180.127 7  -3293906.933 7  20923210.541 0  20923212.522 0
   -598405.504 7   -466289.916 6  20177785.812 0  20177787.757 0
  -5553544.080 7  -4171102.122 6  21365054.521 0  21365056.796 0
  -6236885.127 7  -4634585.006 6  22740639.989 0  22740641.091 0
 88  2 27  5 35 29.0800000  0  4  6  8 11  9
  -4265989.339 7  -3324147.890 7  20915824.959 0  20915825.937 0
   -576224.789 7   -449006.241 7  20182007.372 0  20182007.903 0
  -5618605.869 8  -4221799.600 6  21352674.078 0  21352675.811 0
  -6326650.440 7  -4704531.987 6  22723557.598 0  22723558.491 0
 88  2 27  5 35 59.0800000  0  4  6  8 11  9
  -4304478.108 7  -3354139.126 6  20908500.526 0  20908501.036 0
   -553394.089 7   -431216.094 6  20186350.279 0  20186353.169 0
  -5683183.943 7  -4272120.156 6  21340384.598 0  21340386.402 0
  -6416355.566 6  -4774432.077 6  22706487.176 0  22706487.702 0
 88  2 27  5 36 29.0800000  0  4  6  8 11  9
  -4342644.131 7  -3383878.889 6  20901238.687 0  20901239.203 0
   -529915.035 7   -412920.720 6  20190819.103 0  20190819.716 0
  -5747276.569 7  -4322062.442 6  21328187.856 0  21328191.063 0
  -6505998.796 6  -4844283.915 6  22689428.576 0  22689429.324 0
 88  2 27  5 36 59.0800000  0  4  6  8 11  9
  -4380485.111 7  -3413365.360 7  20894037.538 0  20894038.093 0
   -505789.559 7   -394121.638 6  20195409.005 0  20195411.444 0
  -5810882.664 7  -4371625.617 6  21316084.829 0  21316086.355 0
  -6595577.981 6  -4914085.872 6  22672382.407 0  22672383.651 0
 88  2 27  5 37 29.0800000  0  4  6  8 11  9
  -4417998.680 7  -3442596.695 7  20886898.659 0  20886898.882 0
   -481019.421 7   -374820.231 7  20200122.630 0  20200123.862 0
  -5874000.389 7  -4420808.230 6  21304073.851 0  21304075.571 0
  -6685091.045 7  -4983836.289 6  22655348.149 0  22655351.316 0
 88  2 27  5 37 59.0800000  0  4  6  8 11  9
  -4455182.311 7  -3471570.951 7  20879822.305 0  20879822.047 0
   -455606.170 7   -355017.695 7  20204959.335 0  20204961.433 0
  -5936628.638 7  -4469609.443 6  21292156.505 0  21292157.943 0
  -6774535.726 7  -5053533.427 6  22638328.458 0  22638329.010 0
 88  2 27  5 38 29.0800000  0  4  6  8 11  9
  -4492033.777 7  -3500286.378 6  20872810.197 0  20872811.073 0
   -429551.802 6   -334715.575 6  20209916.572 0  20209919.703 0
  -5998766.065 7  -4518028.198 6  21280331.021 0  21280333.407 0
  -6863910.143 6  -5123175.835 6  22621319.522 0  22621321.556 0
 88  2 27  5 38 59.0800000  0  4  6  8 11  9
  -4528550.642 7  -3528741.082 7  20865861.017 0  20865862.046 0
   -402858.095 7   -313915.286 6  20214997.123 0  20214999.307 0
  -6060410.885 7  -4566063.127 6  21268600.187 0  21268602.632 0
  -6953212.308 6  -5192761.893 6  22604325.341 0  22604325.718 0
 88  2 27  5 39 29.0800000  0  4  6  8 11  9
  -4564730.845 7  -3556933.442 6  20858976.474 0  20858978.476 0
   -375526.754 7   -292618.155 7  20220198.571 0  20220199.629 0
  -6121561.887 7  -4613713.250 6  21256964.564 0  21256967.168 0
  -7042440.211 6  -5262290.125 6  22587347.273 0  22587349.438 0
 88  2 27  5 39 59.0800000  0  4  6  8 11  9
  -4600571.996 7  -3584861.621 6  20852155.723 0  20852157.830 0
   -347560.231 7   -270826.057 7  20225519.762 0  20225522.242 0
  -6182218.056 7  -4660977.794 6  21245420.692 0  21245424.228 0
  -7131591.573 7  -5331758.711 6  22570381.316 0  22570383.751 0
 88  2 27  5 40 29.0800000  0  4  6  8 11  9
  -4636071.716 7  -3612523.740 6  20845400.277 0  20845402.570 0
   -318960.031 7   -248540.194 6  20230963.036 0  20230963.164 0
  -6242378.191 7  -4707855.817 6  21233973.863 0  21233975.877 0
  -7220664.360 7  -5401166.087 6  22553433.486 0  22553432.386 0
 88  2 27  5 40 59.0800000  0  4  6  8 11  9
  -4671227.815 8  -3639918.109 6  20838711.604 0  20838711.647 0
   -289728.549 7   -225762.403 7  20236525.273 0  20236527.509 0
  -6302040.690 7  -4754346.061 6  21222620.091 0  21222621.749 0
  -7309656.820 7  -5470510.852 5  22536497.268 0  22536497.481 0
 88  2 27  5 41 29.0800000  0  4  6  8 11  9
  -4706037.776 7  -3667042.750 6  20832086.492 0  20832088.170 0
   -259867.068 7   -202493.712 7  20242207.822 0  20242208.966 0
  -6361204.215 7  -4800447.498 6  21211361.565 0  21211363.669 0
  -7398566.195 6  -5539790.875 5  22519578.029 0  22519578.708 0
 88  2 27  5 41 59.0800000  0  4  6  8 11  9
  -4740499.273 7  -3693895.872 7  20825528.322 0  20825529.259 0
   -229377.959 7   -178735.948 7  20248009.377 0  20248011.042 0
  -6419867.523 7  -4846159.150 6  21200198.352 0  21200201.562 0
  -7487390.428 7  -5609004.551 5  22502677.332 0  22502678.839 0
 88  2 27  5 42 29.0800000  0  4  6  8 11  9
  -4774609.840 7  -3720475.550 7  20819037.558 0  20819038.786 0
   -198263.182 7   -154490.672 6  20253930.947 0  20253931.004 0
  -6478028.920 7  -4891479.719 6  21189131.117 0  21189133.005 0
  -7576127.369 6  -5678150.227 5  22485790.889 0  22485791.734 0
 88  2 27  5 42 59.0800000  0  4  6  8 11  9
  -4808367.279 7  -3746780.035 7  20812613.669 0  20812615.289 0
   -166524.497 8   -129759.218 7  20259970.779 0  20259970.750 0
  -6535687.459 7  -4936408.444 6  21178158.491 0  21178162.446 0
  -7664774.935 7  -5747226.259 5  22468920.517 0  22468921.421 0
 88  2 27  5 43 29.0800000  0  4  6  8 11  9
  -4841769.128 7  -3772807.444 7  20806257.420 0  20806259.834 0
   -134163.914 7   -104543.184 7  20266128.623 0  20266129.400 0
  -6592842.020 7  -4980944.442 6  21167281.912 0  21167285.709 0
  -7753331.010 7  -5816231.016 5  22452067.711 0  22452070.176 0
 88  2 27  5 43 59.0800000  0  4  6  8 11  9
  -4874813.121 7  -3798556.001 7  20799969.194 0  20799971.456 0
   -101183.564 7    -78844.209 6  20272403.506 0  20272405.703 0
  -6649491.193 7  -5025086.646 6  21156502.057 0  21156503.557 0
  -7841793.151 7  -5885162.535 6  22435234.800 0  22435236.798 0
 88  2 27  5 44 29.0800000  0  4  6  8 11  9
  -4907497.236 7  -3824024.140 6  20793750.038 0  20793751.718 0
    -67586.039 7    -52664.327 6  20278797.348 0  20278798.789 0
  -6705634.380 7  -5068834.564 6  21145818.479 0  21145820.354 0
  -7930159.699 7  -5954019.599 5  22418419.977 0  22418420.768 0
 88  2 27  5 44 59.0800000  0  4  6  8 11  9
  -4939818.946 7  -3849209.883 6  20787599.759 0  20787599.740 0
    -33373.368 7    -26005.094 7  20285308.256 0  20285309.987 0
  -6761270.215 7  -5112187.134 6  21135231.004 0  21135232.500 0
  -8018427.891 7  -6022800.005 5  22401622.943 0  22401623.168 0
 88  2 27  5 45 29.0800000  0  4  6  8 11  9
  -4971775.754 7  -3874111.308 6  20781519.141 0  20781518.436 0
      1452.750 7      1132.135 7  20291935.574 0  20291937.874 0
  -6816396.916 8  -5155142.979 6  21124741.300 0  21124743.476 0
  -8106595.662 7  -6091502.161 5  22384845.563 0  22384843.223 0
 88  2 27  5 45 59.0800000  0  4  6  8 11  9
  -5003365.648 7  -3898726.808 6  20775506.510 0  20775507.547 0
     36890.001 7     28745.590 6  20298678.666 0  20298680.345 0
  -6871013.726 7  -5197701.512 7  21114348.301 0  21114349.708 0
  -8194660.622 7  -6160124.224 5  22368087.140 0  22368088.323 0
 88  2 27  5 46 29.0800000  0  4  6  8 11  9
  -5034586.330 7  -3923054.613 6  20769565.060 0  20769567.025 0
     72935.648 7     56833.105 7  20305538.908 0  20305540.195 0
  -6925120.171 7  -5239862.364 7  21104051.349 0  21104054.153 0
  -8282621.121 7  -6228664.856 6  22351349.123 0  22351349.903 0
 88  2 27  5 46 59.0800000  0  4  6  8 11  9
  -5065435.172 7  -3947092.666 7  20763694.198 0  20763696.439 0
    109587.810 7     85393.238 7  20312512.215 0  20312514.287 0
  -6978714.613 8  -5281624.264 7  21093853.179 0  21093855.718 0
  -8370474.273 7  -6297121.836 6  22334629.804 0  22334631.323 0
 88  2 27  5 47 29.0800000  0  4  6  8 11  9
  -5095910.164 7  -3970839.412 7  20757896.626 0  20757897.756 0
    146844.439 7    114424.371 7  20319602.645 0  20319602.488 0
  -7031796.302 7  -5322986.605 7  21083751.802 0  21083754.577 0
  -8458217.808 7  -6365493.397 6  22317934.366 0  22317935.126 0
 88  2 27  5 47 59.0800000  0  4  6  8 11  9
  -5126008.691 7  -3994292.810 7  20752168.824 0  20752170.179 0
    184703.384 7    143924.846 7  20326806.805 0  20326807.806 0
  -7084363.579 7  -5363948.127 7  21073748.439 0  21073751.976 0
  -8545849.359 7  -6433777.721 6  22301258.977 0  22301259.108 0
 88  2 27  5 48 29.0800000  0  4  6  8 11  9
  -5155728.885 7  -4017451.395 6  20746513.097 0  20746513.124 0
    223161.993 7    173892.592 7  20334124.667 0  20334126.817 0
  -7136416.109 7  -5404508.532 6  21063843.416 0  21063846.217 0
  -8633367.157 7  -6501973.411 6  22284603.913 0  22284605.577 0
 88  2 27  5 48 59.0800000  0  4  6  8 11  9
  -5185068.261 7  -4040313.260 6  20740930.270 0  20740931.494 0
    262218.072 7    204325.889 6  20341557.385 0  20341558.397 0
  -7187952.639 7  -5444666.859 7  21054036.791 0  21054038.704 0
  -8720768.397 7  -6570078.269 7  22267971.336 0  22267973.195 0
 88  2 27  5 49 29.0800000  0  4  6  8 11  9
  -5214024.621 7  -4062876.663 6  20735419.256 0  20735421.450 0
    301869.190 7    235222.862 6  20349102.340 0  20349104.340 0
  -7238972.624 7  -5484422.686 6  21044328.364 0  21044330.607 0
  -8808051.060 7  -6638090.710 6  22251361.358 0  22251363.652 0
 88  2 27  5 49 59.0800000  0  4  6  8 11  9
  -5242595.878 7  -4085139.981 6  20729983.352 0  20729983.410 0
    342112.232 7    266581.080 7  20356759.578 0  20356761.826 0
  -7289474.935 7  -5523775.118 6  21034717.687 0  21034719.266 0
  -8895212.922 7  -6706009.052 6  22234775.402 0  22234776.688 0
 88  2 27  5 50 29.0800000  0  4  6  8 11  9
  -5270779.635 7  -4107101.368 6  20724619.895 0  20724621.274 0
    382945.415 7    298399.160 6  20364532.005 0  20364531.938 0
  -7339458.752 7  -5562723.510 6  21025207.094 0  21025207.899 0
  -8982251.437 7  -6773831.255 6  22218212.546 0  22218215.631 0
 88  2 27  5 50 59.0800000  0  4  6  8 11  9
  -5298573.603 8  -4128758.992 6  20719330.495 0  20719330.647 0
    424366.703 7    330675.488 6  20372413.057 0  20372414.107 0
  -7388922.974 7  -5601267.039 6  21015793.967 0  21015794.573 0
  -9069164.090 7  -6841555.388 6  22201672.744 0  22201676.510 0
 88  2 27  5 51 29.0800000  0  4  6  8 11  9
  -5325975.554 7  -4150111.148 6  20714116.079 0  20714117.164 0
    466373.410 7    363407.987 6  20380406.067 0  20380407.911 0
  -7437866.801 7  -5639405.056 6  21006479.559 0  21006481.500 0
  -9155948.965 7  -6909179.933 6  22185158.752 0  22185161.349 0
 88  2 27  5 51 59.0800000  0  4  6  8 11  9
  -5352983.054 7  -4171155.958 7  20708975.778 0  20708977.996 0
    508963.138 7    396594.801 6  20388510.437 0  20388512.762 0
  -7486289.128 7  -5677136.747 6  20997265.674 0  20997267.062 0
  -9242603.078 7  -6976702.626 6  22168670.349 0  22168670.362 0
 88  2 27  5 52 29.0800000  0  4  6  8 11  9
  -5379594.103 7  -4191891.850 6  20703912.140 0  20703914.724 0
    552133.427 7    430233.963 6  20396724.437 0  20396727.208 0
  -7534189.830 7  -5714461.944 7  20988149.522 0  20988150.692 0
  -9329124.797 7  -7044122.151 6  22152204.979 0  22152206.522 0
 88  2 27  5 52 59.0800000  0  4  6  8 11  9
  -5405806.437 7  -4212317.050 6  20698924.743 0  20698926.788 0
    595881.960 7    464323.747 7  20405050.465 0  20405051.649 0
  -7581567.791 7  -5751379.828 6  20979133.510 0  20979135.769 0
  -9415510.951 7  -7111436.018 7  22135766.779 0  22135768.549 0
 88  2 27  5 53 29.0800000  0  4  6  8 11  9
  -5431617.889 7  -4232429.863 6  20694012.996 0  20694014.473 0
    640205.947 6    498861.919 7  20413483.835 0  20413487.401 0
  -7628422.151 7  -5787889.708 6  20970217.605 0  20970219.981 0
  -9501759.614 7  -7178642.748 6  22119353.368 0  22119355.628 0
 88  2 27  5 53 59.0800000  0  4  6  8 11  9
  -5457025.963 7  -4252228.374 6  20689177.398 0  20689179.150 0
    685103.051 7    533846.684 6  20422028.917 0  20422031.034 0
  -7674752.334 7  -5823991.142 6  20961400.950 0  20961404.290 0
  -9587868.480 7  -7245740.558 6  22102968.102 0  22102969.957 0
 88  2 27  5 54 29.0800000  0  4  6  8 11  9
  -5482028.688 6  -4271711.026 6  20684419.941 0  20684420.946 0
    730571.022 7    569276.262 7  20430681.434 0  20430682.856 0
  -7720557.247 7  -5859683.277 6  20952684.658 0  20952687.172 0
  -9673834.397 7  -7312726.991 6  22086608.658 0  22086609.269 0
 88  2 27  5 54 59.0800000  0  4  6  8 11  9
  -5506623.786 7  -4290876.037 7  20679738.975 0  20679741.315 0
    776606.975 7    605148.431 6  20439441.779 0  20439442.870 0
  -7765836.292 7  -5894965.631 7  20944068.470 0  20944071.304 0
  -9759655.815 7  -7379600.806 6  22070278.368 0  22070278.804 0
 88  2 27  5 55 29.0800000  0  4  6  8 11  9
  -5530809.086 7  -4309721.702 7  20675136.862 0  20675138.871 0
    823208.719 7    641461.492 6  20448310.527 0  20448311.187 0
  -7810588.797 7  -5929837.686 6  20935552.711 0  20935554.668 0
  -9845329.597 7  -7446359.593 6  22053974.789 0  22053977.548 0
 88  2 27  5 55 59.0800000  0  4  6  8 11  9
  -5554582.314 7  -4328246.294 7  20670613.621 0  20670615.212 0
    870373.416 7    678213.204 6  20457285.194 0  20457286.987 0
  -7854814.377 7  -5964299.167 7  20927135.991 0  20927138.859 0
  -9930853.566 7  -7513001.649 7  22037700.160 0  22037700.829 0
 88  2 27  5 56 29.0800000  0  4  6  8 11  9
  -5577941.216 7  -4346448.032 7  20666168.244 0  20666169.978 0
    918098.281 8    715401.417 6  20466366.332 0  20466368.698 0
  -7898512.193 7  -5998349.404 6  20918819.956 0  20918823.226 0
 -10016225.312 8  -7579525.085 6  22021454.602 0  22021455.671 0
 88  2 27  5 56 59.0800000  0  4  6  8 11  9
  -5600883.888 7  -4364325.454 6  20661802.964 0  20661804.199 0
    966380.703 7    753024.101 6  20475554.821 0  20475556.906 0
  -7941681.635 7  -6031987.903 6  20910605.427 0  20910608.782 0
 -10101442.186 7  -7645927.848 6  22005238.280 0  22005239.352 0
 88  2 27  5 57 29.0800000  0  4  6  8 11  9
  -5623408.160 7  -4381876.855 7  20657517.036 0  20657518.711 0
   1015217.749 7    791078.932 6  20484847.250 0  20484849.459 0
  -7984322.219 6  -6065214.316 6  20902492.040 0  20902494.034 0
 -10186501.809 7  -7712208.069 6  21989051.291 0  21989053.872 0
 88  2 27  5 57 59.0800000  0  4  6  8 11  9
  -5645511.703 7  -4399100.389 7  20653311.612 0  20653312.147 0
   1064607.144 7    829564.177 6  20494246.133 0  20494247.148 0
  -8026433.589 7  -6098028.374 6  20894478.620 0  20894480.383 0
 -10271401.822 7  -7778363.918 6  21972895.664 0  21972897.231 0
 88  2 27  5 58 29.0800000  0  4  6  8 11  9
  -5667192.361 7  -4415994.402 6  20649184.917 0  20649186.856 0
   1114546.194 7    868477.714 7  20503750.735 0  20503750.390 0
  -8068014.765 6  -6130429.291 6  20886564.811 0  20886568.085 0
 -10356139.527 7  -7844393.282 6  21956770.584 0  21956772.586 0
 88  2 27  5 58 59.0800000  0  4  6  8 11  9
  -5688448.224 7  -4432557.393 6  20645139.686 0  20645141.416 0
   1165031.962 6    907817.281 7  20513355.722 0  20513358.019 0
  -8109065.394 7  -6162416.787 6  20878754.315 0  20878756.640 0
 -10440712.391 7  -7910294.238 6  21940677.413 0  21940678.216 0
 88  2 27  5 59 29.0800000  0  4  6  8 11  9
  -5709276.863 7  -4448787.515 7  20641175.995 0  20641178.359 0
   1216061.677 7    947580.677 6  20523067.806 0  20523068.837 0
  -8149584.766 7  -6193990.322 6  20871043.849 0  20871046.352 0
 -10525117.620 7  -7976064.526 6  21924614.989 0  21924616.352 0
 88  2 27  5 59 59.0800000  0  4  6  8 11  9
  -5729676.126 7  -4464683.077 6  20637294.744 0  20637296.378 0
   1267633.156 7    987766.250 7  20532880.725 0  20532883.075 0
  -8189572.732 7  -6225149.763 6  20863434.291 0  20863436.584 0
 -10609352.830 7  -8041702.331 6  21908586.055 0  21908586.497 0
 88  2 27  6  0 29.0800000  0  4  6  8 11  9
  -5749643.898 7  -4480242.378 6  20633494.814 0  20633495.487 0
   1319743.326 7   1028371.569 7  20542796.935 0  20542798.336 0
  -8229028.515 7  -6255894.492 6  20855926.178 0  20855926.776 0
 -10693415.948 7  -8107206.059 6  21892589.134 0  21892589.289 0
 88  2 27  6  0 59.0800000  0  4  6  8 11  9
  -5769178.135 7  -4495463.850 7  20629778.414 0  20629778.920 0
   1372389.211 7   1069394.327 7  20552815.971 0  20552817.564 0
  -8267951.658 7  -6286224.196 6  20848519.000 0  20848520.915 0
 -10777303.477 7  -8172572.984 6  21876626.417 0  21876627.817 0
 88  2 27  6  1 29.0800000  0  4  6  8 11  9
  -5788276.636 7  -4510345.794 7  20626143.456 0  20626145.067 0
   1425568.502 7   1110832.736 6  20562934.989 0  20562937.386 0
  -8306341.721 7  -6316138.515 6  20841212.504 0  20841215.740 0
 -10861013.270 6  -8237801.368 7  21860696.381 0  21860699.216 0
 88  2 27  6  1 59.0800000  0  4  6  8 11  9
  -5806937.444 7  -4524886.693 7  20622592.636 0  20622593.663 0
   1479278.401 7   1152684.604 6  20573156.008 0  20573157.211 0
  -8344198.333 7  -6345637.155 6  20834009.903 0  20834011.637 0
 -10944543.073 7  -8302889.492 6  21844800.815 0  21844803.755 0
 88  2 27  6  2 29.0800000  0  4  6  8 11  9
  -5825158.322 7  -4539084.783 7  20619124.644 0  20619126.368 0
   1533515.874 7   1194947.551 7  20583476.948 0  20583478.798 0
  -8381521.280 7  -6374719.966 6  20826908.262 0  20826909.870 0
 -11027889.413 7  -8367834.689 6  21828940.781 0  21828943.123 0
 88  2 27  6  2 59.0800000  0  4  6  8 11  9
  -5842937.457 7  -4552938.661 7  20615741.973 0  20615742.372 0
   1588278.260 7   1237619.563 6  20593898.693 0  20593899.361 0
  -8418310.354 7  -6403386.772 6  20819906.527 0  20819909.583 0
 -11111050.968 7  -8432635.905 6  21813115.957 0  21813117.751 0
 88  2 27  6  3 29.0800000  0  4  6  8 11  9
  -5860272.501 7  -4566446.492 7  20612443.968 0  20612442.876 0
   1643562.854 7   1280698.463 6  20604418.198 0  20604418.391 0
  -8454564.976 6  -6431637.124 6  20813007.243 0  20813010.524 0
 -11194024.253 8  -8497290.406 6  21797326.509 0  21797327.632 0
 88  2 27  6  3 59.0800000  0  4  6  8 11  9
  -5877161.586 7  -4579606.816 7  20609228.801 0  20609230.250 0
   1699366.715 7   1324182.001 7  20615036.581 0  20615038.411 0
  -8490284.938 6  -6459470.874 6  20806210.781 0  20806212.941 0
 -11276806.726 8  -8561796.201 7  21781572.808 0  21781573.883 0
 88  2 27  6  4 29.0800000  0  4  6  8 11  9
  -5893602.487 7  -4592417.908 7  20606100.592 0  20606102.833 0
   1755686.936 7   1368067.900 6  20625754.306 0  20625756.737 0
  -8525470.006 6  -6486887.796 6  20799513.600 0  20799517.588 0
 -11359395.861 7  -8626151.361 7  21765858.253 0  21765857.675 0
 88  2 27  6  4 59.0800000  0  4  6  8 11  9
  -5909593.512 7  -4604878.448 6  20603057.347 0  20603058.401 0
   1812520.411 7   1412353.718 6  20636569.820 0  20636570.917 0
  -8560119.975 7  -6513887.767 6  20792919.820 0  20792922.959 0
 -11441788.977 7  -8690353.793 6  21750177.632 0  21750180.242 0
 88  2 27  6  5 29.0800000  0  4  6  8 11  9
  -5925132.489 7  -4616986.752 7  20600100.044 0  20600100.856 0
   1869864.767 7   1457037.626 6  20647481.932 0  20647483.296 0
  -8594234.610 7  -6540470.574 6  20786428.756 0  20786431.096 0
 -11523983.743 7  -8754401.663 6  21734536.324 0  21734538.617 0
 88  2 27  6  5 59.0800000  0  4  6  8 11  9
  -5940217.547 7  -4628741.339 6  20597229.187 0  20597230.798 0
   1927716.770 7   1502117.120 6  20658491.404 0  20658493.005 0
  -8627813.839 7  -6566636.214 6  20780038.849 0  20780041.308 0
 -11605977.329 7  -8818292.766 6  21718934.432 0  21718936.523 0
 88  2 27  6  6 29.0800000  0  4  6  8 11  9
  -5954846.395 6  -4640140.446 7  20594445.598 0  20594447.773 0
   1986073.484 7   1547589.883 7  20669596.574 0  20669596.719 0
  -8660857.241 6  -6592384.291 6  20773751.262 0  20773753.723 0
 -11687766.628 7  -8882024.674 6  21703371.176 0  21703372.131 0
 88  2 27  6  6 59.0800000  0  4  6  8 11  9
  -5969017.242 7  -4651182.679 6  20591749.227 0  20591751.056 0
   2044932.143 7   1593453.767 6  20680795.843 0  20680796.550 0
  -8693364.528 7  -6617714.631 6  20767565.291 0  20767567.515 0
 -11769349.586 8  -8945595.799 6  21687846.183 0  21687848.108 0
 88  2 27  6  7 29.0800000  0  4  6  8 11  9
  -5982728.059 7  -4661866.423 6  20589140.082 0  20589141.272 0
   2104289.331 7   1639706.127 7  20692092.156 0  20692092.177 0
  -8725335.986 7  -6642627.439 6  20761480.941 0  20761483.806 0
 -11850723.374 8  -9009003.939 7  21672361.073 0  21672364.384 0
 88  2 27  6  7 59.0800000  0  4  6  8 11  9
  -5995977.412 8  -4672190.591 6  20586618.588 0  20586619.412 0
   2164142.224 7   1686344.740 7  20703480.165 0  20703483.088 0
  -8756771.660 7  -6667122.752 6  20755499.741 0  20755503.171 0
 -11931885.508 7  -9072247.151 7  21656916.332 0  21656917.920 0
 88  2 27  6  8 29.0800000  0  4  6  8 11  9
  -6008763.136 6  -4682153.491 6  20584185.037 0  20584186.729 0
   2224487.929 6   1733367.346 6  20714964.653 0  20714966.211 0
  -8787671.333 6  -6691200.405 6  20749619.376 0  20749623.636 0
 -12012833.130 8  -9135323.228 6  21641512.156 0  21641514.036 0
 88  2 27  6  8 59.0800000  0  4  6  8 11  9
  -6021083.179 8  -4691753.532 7  20581842.833 0  20581844.296 0
   2285323.502 7   1780771.675 6  20726541.247 0  20726543.176 0
  -8818034.724 7  -6714860.190 6  20743841.342 0  20743845.541 0
 -12093563.212 7  -9198229.778 7  21626149.265 0  21626151.228 0
 88  2 27  6  9 29.0800000  0  4  6  8 11  9
  -6032935.677 7  -4700989.259 6  20579586.767 0  20579586.912 0
   2346646.233 7   1828555.628 7  20738209.558 0  20738212.336 0
  -8847861.879 7  -6738102.141 6  20738166.557 0  20738167.791 0
 -12174073.888 7  -9260965.364 7  21610828.207 0  21610831.452 0
 88  2 27  6  9 59.0800000  0  4  6  8 11  9
  -6044318.823 7  -4709859.238 7  20577420.459 0  20577420.494 0
   2408452.648 7   1876716.462 6  20749972.076 0  20749973.151 0
  -8877152.924 6  -6760926.305 6  20732591.778 0  20732594.651 0
 -12254361.866 7  -9323527.403 6  21595550.378 0  21595552.284 0
 88  2 27  6 10 29.0800000  0  4  6  8 11  9
  -6055230.652 7  -4718361.961 7  20575343.642 0  20575345.065 0
   2470739.943 8   1925252.003 6  20761824.553 0  20761826.029 0
  -8905907.869 7  -6783332.750 6  20727119.420 0  20727122.328 0
 -12334424.795 7  -9385914.121 6  21580315.987 0  21580315.378 0
 88  2 27  6 10 59.0800000  0  4  6  8 11  9
  -6065669.369 7  -4726496.025 7  20573357.002 0  20573359.813 0
   2533504.943 7   1974159.791 6  20773768.040 0  20773772.144 0
  -8934126.835 7  -6805321.546 6  20721749.319 0  20721750.686 0
 -12414259.663 7  -9448123.117 6  21565122.661 0  21565124.306 0
 88  2 27  6 11 29.0800000  0  4  6  8 11  9
  -6075633.179 7  -4734260.045 6  20571460.913 0  20571462.088 0
   2596744.650 8   2023437.496 6  20785802.731 0  20785804.404 0
  -8961809.612 7  -6826892.519 6  20716481.436 0  20716484.409 0
 -12493863.577 7  -9510152.148 6  21549974.859 0  21549976.228 0
 88  2 27  6 11 59.0800000  0  4  6  8 11  9
  -6085119.708 7  -4741652.145 7  20569655.390 0  20569656.399 0
   2660456.716 7   2073083.248 6  20797926.368 0  20797928.242 0
  -8988955.899 7  -6848045.434 6  20711316.321 0  20711317.427 0
 -12573233.735 7  -9571998.990 6  21534870.312 0  21534873.661 0
 88  2 27  6 12 29.0800000  0  4  6  8 11  9
  -6094127.288 7  -4748671.057 6  20567941.989 0  20567942.758 0
   2724637.286 7   2123094.086 6  20810139.965 0  20810141.430 0
  -9015565.925 7  -6868780.500 6  20706251.889 0  20706254.410 0
 -12652367.618 7  -9633661.759 6  21519813.030 0  21519813.895 0
 88  2 27  6 12 59.0800000  0  4  6  8 11  9
  -6102654.316 7  -4755315.505 7  20566318.949 0  20566320.015 0
   2789283.775 8   2173467.986 6  20822442.009 0  20822443.189 0
  -9041640.012 6  -6889097.968 7  20701289.613 0  20701293.632 0
 -12731262.221 7  -9695138.095 6  21504799.573 0  21504800.301 0
 88  2 27  6 13 29.0800000  0  4  6  8 11  9
  -6110698.819 7  -4761583.937 6  20564787.968 0  20564789.680 0
   2854393.191 8   2224202.595 7  20834831.597 0  20834832.770 0
  -9067178.388 6  -6908997.987 6  20696430.992 0  20696434.489 0
 -12809915.216 7  -9756426.142 6  21489830.922 0  21489834.383 0
 88  2 27  6 13 59.0800000  0  4  6  8 11  9
  -6118259.166 7  -4767475.116 7  20563349.224 0  20563351.067 0
   2919962.361 8   2275295.457 6  20847309.116 0  20847310.273 0
  -9092181.073 7  -6928480.606 6  20691671.796 0  20691675.605 0
 -12888323.368 7  -9817523.385 6  21474911.982 0  21474914.732 0
 88  2 27  6 14 29.0800000  0  4  6  8 11  9
  -6125333.275 7  -4772987.418 7  20562003.782 0  20562004.613 0
   2985988.371 8   2326744.287 7  20859873.188 0  20859874.980 0
  -9116648.165 7  -6947545.867 6  20687016.902 0  20687018.421 0
 -12966483.963 7  -9878427.740 6  21460038.786 0  21460040.115 0
 88  2 27  6 14 59.0800000  0  4  6  8 11  9
  -6131919.625 7  -4778119.650 6  20560749.875 0  20560750.885 0
   3052468.201 8   2378546.766 6  20872524.278 0  20872524.648 0
  -9140580.268 7  -6966194.242 6  20682463.116 0  20682465.717 0
 -13044394.211 7  -9939137.021 7  21445211.569 0  21445213.862 0
 88  2 27  6 15 29.0800000  0  4  6  8 11  9
  -6138016.444 7  -4782870.424 7  20559589.811 0  20559591.028 0
   3119398.457 7   2430700.194 6  20885260.176 0  20885262.241 0
  -9163977.350 6  -6984425.736 6  20678010.533 0  20678013.498 0
 -13122051.421 7  -9999649.135 6  21430434.017 0  21430435.337 0
 88  2 27  6 15 59.0800000  0  4  6  8 11  9
  -6143622.058 7  -4787238.453 7  20558523.984 0  20558525.782 0
   3186776.014 7   2483202.202 7  20898081.358 0  20898083.705 0
  -9186839.577 7  -7002240.448 6  20673659.832 0  20673663.424 0
 -13199453.062 7 -10059962.091 6  21415704.829 0  21415707.031 0
 88  2 27  6 16 29.0800000  0  4  6  8 11  9
  -6148734.784 7  -4791222.380 7  20557550.498 0  20557550.776 0
   3254598.155 7   2536050.600 7  20910988.065 0  20910988.885 0
  -9209167.450 6  -7019638.782 6  20669411.924 0  20669413.762 0
 -13276596.126 7 -10120073.575 7  21401026.495 0  21401028.281 0
 88  2 27  6 16 59.0800000  0  4  6  8 11  9
  -6153353.075 7  -4794821.047 7  20556672.121 0  20556671.642 0
   3322861.438 8   2589242.770 7  20923978.009 0  20923978.971 0
  -9230961.359 7  -7036621.034 6  20665264.119 0  20665266.525 0
 -13353478.096 7 -10179981.574 7  21386395.854 0  21386397.942 0
 88  2 27  6 17 29.0800000  0  4  6  8 11  9
  -6157474.839 7  -4798032.817 7  20555887.021 0  20555889.684 0
   3391562.845 8   2642776.331 6  20937051.506 0  20937054.194 0
  -9252221.287 6  -7053187.194 6  20661219.478 0  20661220.331 0
 -13430095.380 7 -10239683.340 6  21371816.774 0  21371818.090 0
 88  2 27  6 17 59.0800000  0  4  6  8 11  9
  -6161098.731 7  -4800856.652 7  20555197.360 0  20555198.378 0
   3460699.369 7   2696648.937 6  20950207.765 0  20950210.071 0
  -9272948.088 7  -7069337.941 6  20657273.604 0  20657276.694 0
 -13506445.961 8 -10299177.302 6  21357288.035 0  21357289.217 0
 88  2 27  6 18 29.0800000  0  4  6  8 11  9
  -6164222.983 7  -4803291.130 6  20554602.524 0  20554603.808 0
   3530267.676 7   2750858.007 6  20963445.201 0  20963446.506 0
  -9293141.678 6  -7085073.194 6  20653432.584 0  20653434.174 0
 -13582526.585 8 -10358460.908 6  21342809.911 0  21342811.443 0
 88  2 27  6 18 59.0800000  0  4  6  8 11  9
  -6166845.983 8  -4805335.032 7  20554105.110 0  20554105.852 0
   3600264.554 7   2805401.021 6  20976765.929 0  20976767.508 0
  -9312802.699 7  -7100393.463 7  20649689.438 0  20649691.785 0
 -13658334.677 7 -10417532.154 7  21328384.415 0  21328384.499 0
 88  2 27  6 19 29.0800000  0  4  6  8 11  9
  -6168966.532 7  -4806987.406 6  20553700.926 0  20553703.494 0
   3670686.929 7   2860275.593 6  20990166.794 0  20990168.065 0
  -9331931.871 7  -7115299.318 6  20646049.515 0  20646053.070 0
 -13733867.631 8 -10476388.991 6  21314011.178 0  21314012.009 0
 88  2 27  6 19 59.0800000  0  4  6  8 11  9
  -6170582.749 7  -4808246.798 7  20553392.866 0  20553394.501 0
   3741531.625 7   2915479.248 7  21003647.942 0  21003649.331 0
  -9350529.498 7  -7129790.959 6  20642510.886 0  20642514.092 0
 -13809122.286 8 -10535029.008 6  21299689.596 0  21299690.751 0
 88  2 27  6 20 29.0800000  0  4  6  8 11  9
  -6171692.945 7  -4809111.890 7  20553181.711 0  20553182.278 0
   3812795.833 7   2971009.777 6  21017208.754 0  21017210.670 0
  -9368595.630 7  -7143868.447 6  20639072.841 0  20639076.558 0
 -13884095.864 7 -10593449.975 7  21285423.740 0  21285424.302 0
 88  2 27  6 20 59.0800000  0  4  6  8 11  9
  -6172295.648 8  -4809581.535 6  20553067.165 0  20553067.816 0
   3884476.056 7   3026864.517 7  21030849.464 0  21030851.768 0
  -9386130.906 6  -7157532.293 6  20635736.457 0  20635739.453 0
 -13958785.413 8 -10651649.623 6  21271210.555 0  21271211.122 0
 88  2 27  6 21 29.0800000  0  4  6  8 11  9
  -6172389.525 7  -4809654.703 7  20553048.647 0  20553051.256 0
   3956568.906 7   3083040.764 6  21044568.116 0  21044569.851 0
  -9403135.910 6  -7170782.923 6  20632499.623 0  20632502.454 0
 -14033188.336 7 -10709625.920 6  21257051.096 0  21257053.870 0
 88  2 27  6 21 59.0800000  0  4  6  8 11  9
  -6171972.439 7  -4809329.703 7  20553128.072 0  20553129.521 0
   4029071.854 8   3139536.563 6  21058364.885 0  21058366.259 0
  -9419610.953 7  -7183620.619 6  20629365.040 0  20629367.279 0
 -14107301.494 7 -10767376.435 6  21242948.346 0  21242948.801 0
 88  2 27  6 22 29.0800000  0  4  6  8 11  9
  -6171043.203 7  -4808605.618 7  20553306.115 0  20553305.953 0
   4101981.536 7   3196349.292 7  21072238.994 0  21072241.687 0
  -9435556.523 7  -7196045.758 6  20626329.885 0  20626332.993 0
 -14181121.950 7 -10824898.861 6  21228901.361 0  21228901.393 0
 88  2 27  6 22 59.0800000  0  4  6  8 11  9
  -6169599.972 7  -4807481.041 7  20553579.640 0  20553581.026 0
   4175294.762 7   3253476.489 7  21086190.658 0  21086192.206 0
  -9450973.068 6  -7208058.629 6  20623396.100 0  20623399.584 0
 -14254646.543 7 -10882190.761 6  21214909.614 0  21214909.977 0
 88  2 27  6 23 29.0800000  0  4  6  8 11  9
  -6167641.757 7  -4805955.175 7  20553951.178 0  20553954.307 0
   4249008.126 7   3310915.483 7  21100219.020 0  21100219.365 0
  -9465861.749 7  -7219660.179 6  20620563.326 0  20620566.479 0
 -14327873.315 7 -10939250.560 7  21200973.673 0  21200976.187 0
 88  2 27  6 23 59.0800000  0  4  6  8 11  9
  -6165166.945 8  -4804026.737 6  20554424.347 0  20554423.893 0
   4323118.682 7   3368663.956 7  21114319.500 0  21114322.537 0
  -9480222.899 7  -7230850.695 6  20617831.125 0  20617833.240 0
 -14400798.996 6 -10996075.739 6  21187096.998 0  21187097.988 0
 88  2 27  6 24 29.0800000  0  4  6  8 11  9
  -6162174.102 7  -4801694.663 7  20554992.886 0  20554993.862 0
   4397623.259 7   3426719.458 7  21128498.652 0  21128499.914 0
  -9494057.094 7  -7241630.560 6  20615197.637 0  20615200.222 0
 -14473420.428 6 -11052663.838 5  21173277.674 0  21173278.580 0
 88  2 27  6 24 59.0800000  0  4  6  8 11  9
  -6158661.714 7  -4798957.740 7  20555661.390 0  20555662.605 0
   4472518.857 8   3485079.671 7  21142750.954 0  21142751.701 0
  -9507364.737 7  -7252000.130 6  20612667.363 0  20612668.462 0
 -14545734.813 7 -11109012.718 5  21159515.821 0  21159516.866 0
 88  2 27  6 25 29.0800000  0  4  6  8 11  9
  -6154628.793 7  -4795815.210 7  20556429.779 0  20556430.286 0
   4547801.823 7   3543741.724 6  21157076.446 0  21157078.009 0
  -9520146.971 7  -7261960.309 6  20610233.247 0  20610235.820 0
 -14617739.694 7 -11165120.421 6  21145815.147 0  21145816.550 0
 88  2 27  6 25 59.0800000  0  4  6  8 11  9
  -6150073.406 7  -4792265.564 7  20557295.227 0  20557295.901 0
   4623469.363 7   3602703.422 7  21171475.404 0  21171477.094 0
  -9532403.958 6  -7271511.213 6  20607901.327 0  20607902.905 0
 -14689431.956 8 -11220984.528 6  21132173.510 0  21132174.167 0
 88  2 27  6 26 29.0800000  0  4  6  8 11  9
  -6144994.523 7  -4788308.005 7  20558261.809 0  20558264.312 0
   4699518.152 8   3661962.211 6  21185947.821 0  21185947.981 0
  -9544137.152 7  -7280653.968 6  20605669.200 0  20605671.475 0
 -14760808.584 8 -11276602.671 6  21118590.748 0  21118591.639 0
 88  2 27  6 26 59.0800000  0  4  6  8 11  9
  -6139391.028 7  -4783941.632 7  20559328.422 0  20559330.998 0
   4775944.792 8   3721515.439 6  21200490.841 0  21200492.646 0
  -9555346.786 6  -7289388.744 6  20603534.972 0  20603537.756 0
 -14831867.193 8 -11331973.021 6  21105068.239 0  21105068.722 0
 88  2 27  6 27 29.0800000  0  4  6  8 11  9
  -6133261.138 7  -4779165.107 7  20560494.597 0  20560495.652 0
   4852746.300 7   3781360.757 7  21215105.566 0  21215106.770 0
  -9566033.537 6  -7297716.079 5  20601502.413 0  20601504.111 0
 -14902604.400 7 -11387092.939 6  21091607.248 0  21091608.992 0
 88  2 27  6 27 59.0800000  0  4  6  8 11  9
  -6126603.819 7  -4773977.585 6  20561761.406 0  20561763.869 0
   4929919.391 7   3841495.637 6  21229791.477 0  21229790.896 0
  -9576198.535 7  -7305636.836 6  20599568.436 0  20599569.952 0
 -14973017.629 7 -11441960.367 7  21078207.819 0  21078210.511 0
 88  2 27  6 28 29.0800000  0  4  6  8 11  9
  -6119417.802 7  -4768378.100 7  20563129.637 0  20563129.017 0
   5007460.681 8   3901917.417 7  21244546.576 0  21244548.538 0
  -9585842.877 7  -7313151.906 6  20597731.054 0  20597734.667 0
 -15043103.838 7 -11496573.009 6  21064871.141 0  21064873.866 0
 88  2 27  6 28 59.0800000  0  4  6  8 11  9
  -6111701.971 7  -4762365.767 6  20564597.547 0  20564598.753 0
   5085367.337 7   3962623.886 7  21259371.011 0  21259372.489 0
  -9594966.763 7  -7320261.409 6  20595996.731 0  20595999.022 0
 -15112860.567 7 -11550928.900 6  21051597.404 0  21051598.110 0
 88  2 27  6 29 29.0800000  0  4  6  8 11  9
  -6103454.981 7  -4755939.560 6  20566166.646 0  20566169.106 0
   5163635.759 7   4023612.274 6  21274266.586 0  21274265.986 0
  -9603571.140 6  -7326966.131 6  20594358.362 0  20594360.152 0
 -15182284.404 7 -11605025.393 6  21038386.361 0  21038387.873 0
 88  2 27  6 29 59.0800000  0  4  6  8 11  9
  -6094675.422 7  -4749098.347 6  20567837.236 0  20567839.354 0
   5242263.041 7   4084880.288 6  21289228.365 0  21289229.996 0
  -9611657.200 7  -7333266.947 6  20592819.429 0  20592821.918 0
 -15251372.618 7 -11658860.371 7  21025239.749 0  21025239.775 0
 88  2 27  6 30 29.0800000  0  4  6  8 11  9
  -6085362.174 7  -4741841.280 6  20569609.016 0  20569611.943 0
   5321245.852 7   4146425.330 7  21304258.440 0  21304260.031 0
  -9619225.574 7  -7339164.400 6  20591379.393 0  20591381.381 0
 -15320122.146 8 -11712431.433 7  21012157.042 0  21012157.977 0
 88  2 27  6 30 59.0800000  0  4  6  8 11  9
  -6075513.961 7  -4734167.338 7  20571484.867 0  20571484.374 0
   5400580.992 7   4208244.924 6  21319354.627 0  21319356.032 0
  -9626277.338 7  -7344659.271 6  20590036.104 0  20590039.766 0
 -15388530.318 7 -11765736.504 6  20999138.174 0  20999140.487 0
 88  2 27  6 31 29.0800000  0  4  6  8 11  9
  -6065129.689 7  -4726075.722 7  20573459.247 0  20573461.691 0
   5480265.623 7   4270336.853 6  21334518.637 0  21334520.113 0
  -9632813.051 6  -7349752.010 6  20588793.829 0  20588795.314 0
 -15456594.166 7 -11818773.272 6  20986186.271 0  20986188.821 0
 88  2 27  6 31 59.0800000  0  4  6  8 11  9
  -6054208.096 7  -4717565.404 7  20575537.479 0  20575539.735 0
   5560296.202 7   4332698.324 7  21349747.580 0  21349749.561 0
  -9638833.848 7  -7354443.552 6  20587647.803 0  20587650.176 0
 -15524310.532 7 -11871539.257 6  20973300.235 0  20973302.489 0
 88  2 27  6 32 29.0800000  0  4  6  8 11  9
  -6042748.298 7  -4708635.700 7  20577718.809 0  20577720.250 0
   5640669.606 7   4395326.965 7  21365042.035 0  21365044.027 0
  -9644340.954 7  -7358734.781 6  20586599.168 0  20586602.656 0
 -15591677.038 6 -11924032.637 7  20960480.231 0  20960483.900 0
 88  2 27  6 32 59.0800000  0  4  6  8 11  9
  -6030749.457 7  -4699285.958 7  20580002.042 0  20580003.418 0
   5721382.545 7   4458220.159 6  21380401.207 0  21380402.887 0
  -9649335.328 7  -7362626.479 6  20585650.023 0  20585652.493 0
 -15658690.753 7 -11976251.101 7  20947729.169 0  20947729.838 0
 88  2 27  6 33 29.0800000  0  4  6  8 11  9
  -6018210.040 7  -4689515.008 6  20582387.894 0  20582390.252 0
   5802432.099 8   4521375.659 7  21395825.160 0  21395826.279 0
  -9653817.511 7  -7366119.095 6  20584796.267 0  20584799.175 0
 -15725348.563 7 -12028192.246 6  20935042.884 0  20935044.646 0
 88  2 27  6 33 59.0800000  0  4  6  8 11  9
  -6005129.008 7  -4679321.996 7  20584878.854 0  20584878.925 0
   5883814.989 7   4584790.899 6  21411310.298 0  21411312.318 0
  -9657788.919 6  -7369213.667 6  20584040.955 0  20584043.076 0
 -15791647.518 7 -12079853.740 6  20922426.807 0  20922428.192 0
 88  2 27  6 34 29.0800000  0  4  6  8 11  9
  -5991505.422 7  -4668706.230 6  20587470.002 0  20587471.274 0
   5965528.203 7   4648463.518 7  21426860.587 0  21426862.634 0
  -9661250.279 6  -7371910.824 6  20583383.640 0  20583385.808 0
 -15857584.809 8 -12131233.436 6  20909880.988 0  20909882.241 0
 88  2 27  6 34 59.0800000  0  4  6  8 11  9
  -5977338.170 7  -4657666.833 7  20590166.142 0  20590167.422 0
   6047568.225 7   4712390.809 7  21442472.674 0  21442473.249 0
  -9664202.760 7  -7374211.461 6  20582819.805 0  20582822.250 0
 -15923157.334 7 -12182328.896 6  20897402.558 0  20897402.243 0
 88  2 27  6 35 29.0800000  0  4  6  8 11  9
  -5962626.412 7  -4646203.121 6  20592965.744 0  20592966.656 0
   6129932.236 7   4776570.550 6  21458145.707 0  21458147.427 0
  -9666647.556 6  -7376116.501 6  20582355.537 0  20582357.337 0
 -15988362.421 7 -12233138.055 7  20884994.641 0  20884994.802 0
 88  2 27  6 35 59.0800000  0  4  6  8 11  9
  -5947369.077 7  -4634314.299 7  20595869.250 0  20595870.900 0
   6212616.589 6   4840999.904 7  21473879.394 0  21473880.642 0
  -9668585.736 6  -7377626.795 7  20581986.565 0  20581988.526 0
 -16053197.116 8 -12283658.604 6  20872656.769 0  20872658.515 0
 88  2 27  6 36 29.0800000  0  4  6  8 11  9
  -5931565.251 7  -4621999.639 7  20598876.878 0  20598878.004 0
   6295618.122 7   4905676.413 7  21489674.337 0  21489676.961 0
  -9670018.638 6  -7378743.326 6  20581713.762 0  20581716.000 0
 -16117658.460 7 -12333888.237 6  20860390.382 0  20860391.833 0
 88  2 27  6 36 59.0800000  0  4  6  8 11  9
  -5915214.002 7  -4609258.427 6  20601988.142 0  20601990.356 0
   6378933.857 7   4970597.769 7  21505529.155 0  21505530.373 0
  -9670947.135 7  -7379466.821 6  20581537.735 0  20581540.026 0
 -16181743.859 7 -12383824.913 6  20848194.359 0  20848196.608 0
 88  2 27  6 37 29.0800000  0  4  6  8 11  9
  -5898314.460 7  -4596089.945 7  20605203.211 0  20605205.116 0
   6462560.486 7   5035761.370 6  21521443.397 0  21521444.229 0
  -9671372.399 7  -7379798.189 6  20581455.167 0  20581459.502 0
 -16245450.205 7 -12433466.230 6  20836072.948 0  20836073.011 0
 88  2 27  6 37 59.0800000  0  4  6  8 11  9
  -5880865.711 7  -4582493.517 7  20608524.983 0  20608524.830 0
   6546494.590 7   5101164.568 6  21537414.716 0  21537416.723 0
  -9671295.613 7  -7379738.336 6  20581470.352 0  20581473.102 0
 -16308774.921 7 -12482810.144 6  20824022.329 0  20824022.800 0
 88  2 27  6 38 29.0800000  0  4  6  8 11  9
  -5862867.176 7  -4568468.698 6  20611949.997 0  20611950.107 0
   6630733.243 7   5166805.058 6  21553445.622 0  21553446.312 0
  -9670718.240 7  -7379288.428 6  20581580.970 0  20581584.442 0
 -16371714.970 7 -12531854.331 6  20812044.351 0  20812045.671 0
 88  2 27  6 38 59.0800000  0  4  6  8 11  9
  -5844317.518 8  -4554014.417 7  20615478.941 0  20615480.499 0
   6715273.419 7   5232680.533 6  21569532.590 0  21569533.080 0
  -9669640.791 6  -7378448.831 6  20581785.400 0  20581789.291 0
 -16434267.102 7 -12580596.231 6  20800141.353 0  20800143.056 0
 88  2 27  6 39 29.0800000  0  4  6  8 11  9
  -5825216.222 7  -4539130.287 7  20619113.724 0  20619114.604 0
   6800111.608 7   5298788.218 6  21585677.183 0  21585676.854 0
  -9668065.008 7  -7377220.948 6  20582085.578 0  20582087.035 0
 -16496428.669 7 -12629033.813 6  20788311.793 0  20788314.396 0
 88  2 27  6 39 59.0800000  0  4  6  8 11  9
  -5805562.432 7  -4523815.667 6  20622854.326 0  20622855.392 0
   6885245.031 7   5365125.944 6  21601876.849 0  21601878.324 0
  -9665992.249 7  -7375605.796 7  20582479.425 0  20582482.414 0
 -16558196.975 7 -12677164.973 6  20776558.147 0  20776559.461 0
 88  2 27  6 40 29.0800000  0  4  6  8 11  9
  -5785355.314 7  -4508069.867 7  20626699.229 0  20626700.226 0
   6970670.743 8   5431691.429 6  21618132.838 0  21618135.000 0
  -9663423.465 6  -7373604.149 6  20582970.120 0  20582971.813 0
 -16619569.002 7 -12724987.354 6  20764879.980 0  20764881.279 0
 88  2 27  6 40 59.0800000  0  4  6  8 11  9
  -5764593.979 7  -4491892.229 6  20630649.715 0  20630651.181 0
   7056385.195 7   5498481.918 7  21634444.688 0  21634445.532 0
  -9660359.513 7  -7371216.658 6  20583552.022 0  20583553.859 0
 -16680541.758 7 -12772498.601 6  20753276.287 0  20753277.392 0
 88  2 27  6 41 29.0800000  0  4  6  8 11  9
  -5743277.964 7  -4475282.352 7  20634706.428 0  20634708.290 0
   7142385.307 8   5565495.006 7  21650809.453 0  21650810.646 0
  -9656802.149 7  -7368444.680 6  20584229.489 0  20584230.978 0
 -16741112.409 7 -12819696.523 6  20741749.030 0  20741751.360 0
 88  2 27  6 41 59.0800000  0  4  6  8 11  9
  -5721406.514 7  -4458239.660 7  20638868.230 0  20638870.655 0
   7228667.820 7   5632728.146 6  21667227.536 0  21667229.784 0
  -9652752.951 7  -7365289.457 6  20584999.144 0  20585002.256 0
 -16801278.307 7 -12866579.021 6  20730301.156 0  20730302.285 0
 88  2 27  6 42 29.0800000  0  4  6  8 11  9
  -5698978.982 7  -4440763.679 6  20643136.813 0  20643136.952 0
   7315229.943 7   5700179.143 6  21683699.473 0  21683702.049 0
  -9648212.913 7  -7361751.757 6  20585863.276 0  20585865.360 0
 -16861036.517 7 -12913143.860 6  20718929.303 0  20718930.873 0
 88  2 27  6 42 59.0800000  0  4  6  8 11  9
  -5675994.734 8  -4422853.876 6  20647510.268 0  20647510.418 0
   7402068.289 8   5767845.408 6  21700225.321 0  21700227.064 0
  -9643183.813 7  -7357832.957 6  20586821.097 0  20586822.641 0
 -16920384.412 7 -12959388.960 6  20707635.474 0  20707638.402 0
 88  2 27  6 43 29.0800000  0  4  6  8 11  9
  -5652453.126 7  -4404509.792 6  20651989.451 0  20651991.049 0
   7489179.286 7   5835724.113 7  21716800.519 0  21716803.171 0
  -9637666.625 7  -7353533.868 7  20587871.719 0  20587872.813 0
 -16979318.845 7 -13005311.869 7  20696420.944 0  20696422.547 0
 88  2 27  6 43 59.0800000  0  4  6  8 11  9
  -5628353.464 7  -4385730.839 6  20656576.467 0  20656577.979 0
   7576560.061 7   5903813.015 6  21733427.389 0  21733431.597 0
  -9631663.012 7  -7348855.685 6  20589011.888 0  20589015.612 0
 -17037837.134 7 -13050910.515 6  20685286.078 0  20685287.134 0
 88  2 27  6 44 29.0800000  0  4  6  8 11  9
  -5603695.252 7  -4366516.646 6  20661268.614 0  20661270.216 0
   7664207.490 7   5972109.731 6  21750109.224 0  21750109.218 0
  -9625174.074 7  -7343799.390 6  20590248.529 0  20590249.657 0
 -17095936.080 7 -13096182.433 7  20674230.011 0  20674231.139 0
 88  2 27  6 44 59.0800000  0  4  6  8 11  9
  -5578478.132 8  -4346866.945 7  20666066.423 0  20666067.835 0
   7752118.442 7   6040611.780 6  21766837.164 0  21766839.903 0
  -9618201.522 7  -7338366.229 6  20591574.930 0  20591575.383 0
 -17153613.530 7 -13141125.890 6  20663254.707 0  20663254.959 0
 88  2 27  6 45 29.0800000  0  4  6  8 11  9
  -5552701.336 7  -4326781.130 7  20670972.108 0  20670973.174 0
   7840289.716 7   6109316.665 7  21783614.453 0  21783618.047 0
  -9610746.542 7  -7332557.143 6  20592993.372 0  20592995.555 0
 -17210866.200 7 -13185738.381 6  20652360.091 0  20652359.714 0
 88  2 27  6 45 59.0800000  0  4  6  8 11  9
  -5526364.554 7  -4306258.972 7  20675983.779 0  20675985.157 0
   7928718.374 7   6178222.093 6  21800441.818 0  21800445.307 0
  -9602810.834 7  -7326373.466 6  20594504.235 0  20594504.838 0
 -17267691.466 6 -13230017.812 6  20641546.780 0  20641547.463 0
 88  2 27  6 46 29.0800000  0  4  6  8 11  9
  -5499466.355 7  -4285299.373 7  20681102.323 0  20681103.732 0
   8017401.254 7   6247325.649 7  21817318.997 0  21817321.027 0
  -9594395.538 8  -7319816.084 6  20596105.316 0  20596106.570 0
 -17324086.500 7 -13273962.001 6  20630814.773 0  20630816.487 0
 88  2 27  6 46 59.0800000  0  4  6  8 11  9
  -5472007.026 7  -4263902.481 7  20686327.753 0  20686328.372 0
   8106335.412 7   6316625.014 7  21834242.687 0  21834243.956 0
  -9585502.355 7  -7312886.316 6  20597798.134 0  20597798.608 0
 -17380048.250 7 -13317568.573 7  20620165.188 0  20620165.558 0
 88  2 27  6 47 29.0800000  0  4  6  8 11  9
  -5443986.765 7  -4242068.523 7  20691659.571 0  20691662.305 0
   8195517.466 7   6386117.508 6  21851212.382 0  21851216.117 0
  -9576132.941 7  -7305585.457 6  20599579.458 0  20599582.517 0
 -17435573.912 7 -13360835.330 6  20609599.400 0  20609599.710 0
 88  2 27  6 47 59.0800000  0  4  6  8 11  9
  -5415404.662 8  -4219796.772 7  20697099.161 0  20697100.462 0
   8284944.128 7   6455800.615 7  21868230.497 0  21868231.946 0
  -9566288.942 7  -7297914.792 6  20601452.519 0  20601454.100 0
 -17490661.228 7 -13403760.518 6  20599116.273 0  20599117.482 0
 88  2 27  6 48 29.0800000  0  4  6  8 11  9
  -5386260.435 7  -4197086.967 7  20702644.877 0  20702645.611 0
   8374613.085 7   6525672.526 6  21885294.533 0  21885295.959 0
  -9555971.833 7  -7289875.478 6  20603417.559 0  20603418.612 0
 -17545307.208 8 -13446341.798 6  20588717.725 0  20588717.995 0
 88  2 27  6 48 59.0800000  0  4  6  8 11  9
  -5356553.386 7  -4173938.644 7  20708297.514 0  20708299.882 0
   8464520.950 7   6595730.619 6  21902402.796 0  21902404.624 0
  -9545182.785 7  -7281468.431 6  20605470.577 0  20605471.788 0
 -17599508.646 7 -13488576.665 7  20578404.249 0  20578404.158 0
 88  2 27  6 49 29.0800000  0  4  6  8 11  9
  -5326283.101 7  -4150351.420 7  20714058.660 0  20714059.045 0
   8554664.689 7   6665972.487 7  21919556.402 0  21919559.421 0
  -9533923.328 7  -7272694.819 6  20607612.214 0  20607614.347 0
 -17653262.894 8 -13530463.085 6  20568174.037 0  20568175.093 0
 88  2 27  6 49 59.0800000  0  4  6  8 11  9
  -5295449.438 7  -4126325.183 6  20719924.787 0  20719926.815 0
   8645041.150 7   6736395.681 7  21936754.922 0  21936755.625 0
  -9522195.037 7  -7263555.889 5  20609843.692 0  20609846.389 0
 -17706567.402 7 -13571999.066 7  20558030.410 0  20558032.339 0
 88  2 27  6 50 29.0800000  0  4  6  8 11  9
  -5264052.044 7  -4101859.688 6  20725900.316 0  20725901.824 0
   8735647.481 8   6806998.048 6  21953996.547 0  21953998.332 0
  -9509999.660 7  -7254053.001 6  20612163.801 0  20612166.251 0
 -17759419.432 7 -13613182.453 6  20547973.095 0  20547972.979 0
 88  2 27  6 50 59.0800000  0  4  6  8 11  9
  -5232090.861 7  -4076954.868 7  20731982.372 0  20731984.202 0
   8826480.035 7   6877776.655 6  21971281.445 0  21971283.878 0
  -9497338.977 7  -7244187.527 6  20614574.728 0  20614575.195 0
 -17811816.154 7 -13654011.077 6  20538002.282 0  20538003.768 0
 88  2 27  6 51 29.0800000  0  4  6  8 11  9
  -5199565.376 7  -4051610.352 7  20738171.332 0  20738171.943 0
   8917536.309 7   6948729.594 7  21988609.634 0  21988611.698 0
  -9484214.343 7  -7233960.527 7  20617071.290 0  20617072.763 0
 -17863754.804 7 -13694482.757 5  20528118.869 0  20528119.867 0
 88  2 27  6 51 59.0800000  0  4  6  8 11  9
  -5166475.464 7  -4025825.999 7  20744469.628 0  20744469.841 0
   9008813.107 7   7019854.382 6  22005978.384 0  22005979.711 0
  -9470627.417 6  -7223373.297 6  20619657.006 0  20619657.947 0
 -17915232.676 7 -13734595.386 6  20518322.597 0  20518323.339 0
 88  2 27  6 52 29.0800000  0  4  6  8 11  9
  -5132820.816 8  -3999601.615 7  20750872.465 0  20750874.972 0
   9100307.444 7   7091148.675 7  22023390.454 0  22023390.942 0
  -9456579.824 7  -7212427.107 6  20622330.213 0  20622331.150 0
 -17966246.877 7 -13774346.724 7  20508616.303 0  20508615.727 0
 88  2 27  6 52 59.0800000  0  4  6  8 11  9
  -5098601.138 7  -3972936.949 7  20757384.654 0  20757386.621 0
   9192016.266 7   7162610.096 6  22040840.925 0  22040842.239 0
  -9442072.929 6  -7201123.018 7  20625090.101 0  20625092.886 0
 -18016794.589 6 -13813734.553 7  20498997.179 0  20498997.606 0
 88  2 27  6 53 29.0800000  0  4  6  8 11  9
  -5063816.521 7  -3945832.042 6  20764003.313 0  20764004.599 0
   9283936.520 7   7234236.253 7  22058333.181 0  22058334.278 0
  -9427108.587 6  -7189462.484 6  20627937.299 0  20627940.491 0
 -18066873.146 7 -13852756.794 6  20489466.516 0  20489467.800 0
 88  2 27  6 53 59.0800000  0  4  6  8 11  9
  -5028466.918 7  -3918286.906 6  20770730.484 0  20770732.265 0
   9376065.179 7   7306024.814 7  22075864.800 0  22075865.958 0
  -9411688.990 6  -7177447.234 6  20630870.831 0  20630873.982 0
 -18116480.538 7 -13891411.882 7  20480026.102 0  20480028.087 0
 88  2 27  6 54 29.0800000  0  4  6  8 11  9
  -4992552.280 7  -3890301.488 6  20777564.871 0  20777566.879 0
   9468399.134 7   7377973.377 7  22093435.086 0  22093436.389 0
  -9395815.754 6  -7165078.469 6  20633891.997 0  20633895.025 0
 -18165613.726 8 -13929697.472 7  20470676.648 0  20470677.515 0
 88  2 27  6 54 59.0800000  0  4  6  8 11  9
  -4956072.400 7  -3861875.626 7  20784506.480 0  20784508.450 0
   9560935.561 7   7450079.663 6  22111043.070 0  22111045.465 0
  -9379490.289 7  -7152357.335 6  20636998.690 0  20637002.387 0
 -18214269.828 7 -13967611.313 6  20461418.330 0  20461419.162 0
 88  2 27  6 55 29.0800000  0  4  6  8 11  9
  -4919027.242 7  -3833009.274 7  20791556.324 0  20791558.165 0
   9653671.477 7   7522341.425 6  22128692.028 0  22128693.393 0
  -9362714.201 6  -7139285.061 6  20640191.243 0  20640193.423 0
 -18262446.158 7 -14005151.310 7  20452251.336 0  20452251.490 0
 88  2 27  6 55 59.0800000  0  4  6  8 11  9
  -4881416.894 7  -3803702.505 6  20798713.360 0  20798713.973 0
   9746603.974 7   7594756.354 6  22146374.898 0  22146377.089 0
  -9345489.385 6  -7125863.109 6  20643469.115 0  20643471.121 0
 -18310140.436 7 -14042315.703 6  20443174.946 0  20443175.860 0
 88  2 27  6 56 29.0800000  0  4  6  8 11  9
  -4843241.153 7  -3773955.190 7  20805978.411 0  20805978.933 0
   9839729.900 8   7667322.004 6  22164095.932 0  22164098.370 0
  -9327817.556 6  -7112092.869 6  20646832.527 0  20646833.906 0
 -18357349.748 7 -14079102.185 6  20434190.953 0  20434191.408 0
 88  2 27  6 56 59.0800000  0  4  6  8 11  9
  -4804500.251 7  -3743767.481 6  20813349.773 0  20813351.217 0
   9933046.361 7   7740036.140 7  22181853.523 0  22181855.567 0
  -9309700.919 7  -7097975.971 6  20650280.030 0  20650282.387 0
 -18404071.430 7 -14115508.702 6  20425299.637 0  20425301.848 0
 88  2 27  6 57 29.0800000  0  4  6  8 11  9
  -4765194.087 7  -3713139.303 7  20820829.294 0  20820830.282 0
  10026550.815 7   7812896.764 6  22199647.224 0  22199648.061 0
  -9291140.628 7  -7083513.407 6  20653812.609 0  20653814.391 0
 -18450302.950 6 -14151533.254 6  20416502.031 0  20416503.246 0
 88  2 27  6 57 59.0800000  0  4  6  8 11  9
  -4725322.827 7  -3682070.806 7  20828416.601 0  20828418.160 0
  10120239.793 7   7885901.165 7  22217475.821 0  22217477.636 0
  -9272138.836 7  -7068706.806 7  20657426.670 0  20657430.052 0
 -18496041.563 7 -14187173.711 6  20407798.685 0  20407800.112 0
 88  2 27  6 58 29.0800000  0  4  6  8 11  9
  -4684886.410 7  -3650561.917 6  20836111.434 0  20836112.647 0
  10214110.415 7   7959047.106 6  22235338.554 0  22235339.968 0
  -9252697.422 7  -7053557.664 6  20661128.516 0  20661129.109 0
 -18541284.772 7 -14222428.136 7  20399189.187 0  20399190.877 0
 88  2 27  6 58 59.0800000  0  4  6  8 11  9
  -4643885.134 7  -3618612.886 6  20843913.948 0  20843914.310 0
  10308159.600 7   8032332.177 8  22253235.786 0  22253237.685 0
  -9232818.021 7  -7038067.223 7  20664910.681 0  20664911.973 0
 -18586029.982 7 -14257294.529 6  20390674.220 0  20390676.080 0
 88  2 27  6 59 29.0800000  0  4  6  8 11  9
  -4602319.008 8  -3586223.715 7  20851824.009 0  20851825.157 0
  10402384.721 8   8105754.358 6  22271165.978 0  22271167.554 0
  -9212502.387 7  -7022236.850 7  20668775.839 0  20668777.627 0
 -18630274.763 8 -14291770.989 7  20382255.323 0  20382256.752 0
 88  2 27  6 59 59.0800000  0  4  6  8 11  9
  -4560188.365 7  -3553394.645 7  20859841.791 0  20859842.849 0
  10496782.915 7   8179311.377 7  22289129.374 0  22289131.380 0
  -9191752.639 7  -7006068.229 7  20672724.044 0  20672727.352 0
 -18674016.230 7 -14325855.251 6  20373930.882 0  20373931.178 0
 88  2 27  7  0 29.0800000  0  4  6  8 11  9
  -4517493.370 8  -3520125.833 7  20867965.772 0  20867966.737 0
  10591351.175 8   8253000.920 6  22307125.187 0  22307127.510 0
  -9170570.252 6  -6989562.477 6  20676756.227 0  20676757.413 0
 -18717252.024 8 -14359545.492 7  20365703.886 0  20365705.171 0
 88  2 27  7  0 59.0800000  0  4  6  8 11  9
  -4474234.352 8  -3486417.502 6  20876197.657 0  20876199.165 0
  10686086.341 8   8326820.516 7  22325153.247 0  22325154.384 0
  -9148957.498 7  -6972721.357 6  20680868.604 0  20680870.087 0
 -18759979.824 8 -14392839.880 6  20357572.090 0  20357573.662 0
 88  2 27  7  1 29.0800000  0  4  6  8 11  9
  -4430411.185 7  -3452269.614 6  20884536.473 0  20884539.716 0
  10780985.810 7   8400768.145 7  22343211.806 0  22343214.113 0
  -9126915.680 7  -6955545.916 6  20685061.377 0  20685064.633 0
 -18802196.702 7 -14425736.154 6  20349539.269 0  20349539.335 0
 88  2 27  7  1 59.0800000  0  4  6  8 11  9
  -4386024.501 7  -3417682.588 7  20892983.083 0  20892984.910 0
  10876046.970 7   8474841.756 7  22361301.463 0  22361302.979 0
  -9104447.282 7  -6938038.071 7  20689337.193 0  20689341.270 0
 -18843900.397 7 -14458232.540 6  20341602.779 0  20341605.666 0
 88  2 27  7  2 29.0800000  0  4  6  8 11  9
  -4341074.541 7  -3382656.636 7  20901536.585 0  20901539.236 0
  10971266.764 8   8549039.012 6  22379420.847 0  22379422.938 0
  -9081553.854 7  -6920199.019 6  20693694.755 0  20693696.947 0
 -18885088.114 7 -14490326.861 7  20333764.977 0  20333767.294 0
 88  2 27  7  2 59.0800000  0  4  6  8 11  9
  -4295561.513 7  -3347191.948 7  20910196.956 0  20910198.363 0
  11066641.913 8   8623357.310 7  22397570.054 0  22397572.365 0
  -9058237.620 7  -6902030.521 7  20698132.236 0  20698132.956 0
 -18925757.865 7 -14522017.581 7  20326025.210 0  20326028.688 0
 88  2 27  7  3 29.0800000  0  4  6  8 11  9
  -4249485.746 8  -3311288.757 7  20918966.416 0  20918966.663 0
  11162170.277 8   8697794.975 7  22415748.852 0  22415751.016 0
  -9034500.322 7  -6883533.921 6  20702649.288 0  20702652.215 0
 -18965906.571 6 -14553302.270 7  20318386.323 0  20318386.634 0
 88  2 27  7  3 59.0800000  0  4  6  8 11  9
  -4202847.691 7  -3274947.432 7  20927840.532 0  20927841.091 0
  11257848.910 7   8772349.755 7  22433956.170 0  22433958.045 0
  -9010343.815 7  -6864710.653 6  20707245.147 0  20707248.989 0
 -19005532.242 7 -14584179.395 7  20310845.510 0  20310847.293 0
 88  2 27  7  4 29.0800000  0  4  6  8 11  9
  -4155647.609 7  -3238168.171 6  20936822.534 0  20936825.123 0
  11353674.860 8   8847019.312 7  22452190.283 0  22452192.489 0
  -8985769.868 7  -6845562.115 6  20711922.553 0  20711923.272 0
 -19044632.084 7 -14614646.803 6  20303404.561 0  20303406.090 0
 88  2 27  7  4 59.0800000  0  4  6  8 11  9
  -4107886.228 8  -3200951.519 6  20945911.553 0  20945912.833 0
  11449645.034 7   8921801.267 6  22470453.641 0  22470455.454 0
  -8960780.682 7  -6826090.032 6  20716676.807 0  20716679.079 0
 -19083204.074 7 -14644702.892 7  20296065.093 0  20296065.649 0
 88  2 27  7  5 29.0800000  0  4  6  8 11  9
  -4059563.742 7  -3163297.647 6  20955106.653 0  20955108.252 0
  11545757.040 8   8996693.745 7  22488742.916 0  22488744.075 0
  -8935377.956 7  -6806295.681 6  20721510.767 0  20721514.108 0
 -19121245.608 7 -14674345.664 6  20288827.393 0  20288826.487 0
 88  2 27  7  5 59.0800000  0  4  6  8 11  9
  -4010680.900 8  -3125207.143 7  20964408.901 0  20964410.977 0
  11642007.670 8   9071694.224 7  22507059.249 0  22507059.290 0
  -8909563.925 7  -6786180.850 7  20726422.917 0  20726425.906 0
 -19158754.516 7 -14703573.404 6  20281689.195 0  20281690.035 0
 88  2 27  7  6 29.0800000  0  4  6  8 11  9
  -3961238.187 8  -3086680.352 7  20973818.010 0  20973818.194 0
  11738393.735 7   9146800.257 7  22525400.697 0  22525402.088 0
  -8883340.596 7  -6765747.098 6  20731413.432 0  20731415.416 0
 -19195728.345 7 -14732384.177 6  20274653.284 0  20274652.780 0
 88  2 27  7  6 59.0800000  0  4  6  8 11  9
  -3911236.024 7  -3047717.637 7  20983333.894 0  20983334.007 0
  11834912.894 7   9222009.982 7  22543766.404 0  22543768.376 0
  -8856709.832 7  -6744995.850 6  20736481.139 0  20736483.660 0
 -19232164.703 7 -14760776.145 6  20267719.166 0  20267718.948 0
 88  2 27  7  7 29.0800000  0  4  6  8 11  9
  -3860674.840 7  -3008319.327 6  20992953.860 0  20992954.786 0
  11931562.614 7   9297321.435 6  22562159.432 0  22562160.478 0
  -8829673.637 7  -6723928.662 7  20741625.670 0  20741628.606 0
 -19268060.975 7 -14788747.257 7  20260888.576 0  20260888.715 0
 88  2 27  7  7 59.0800000  0  4  6  8 11  9
  -3809555.176 7  -2968485.813 7  21002681.866 0  21002683.634 0
  12028340.044 7   9372732.435 7  22580576.059 0  22580577.798 0
  -8802234.182 7  -6702547.270 6  20746847.817 0  20746848.714 0
 -19303415.168 7 -14816295.973 7  20254159.997 0  20254162.025 0
 88  2 27  7  8 29.0800000  0  4  6  8 11  9
  -3757878.135 7  -2928217.998 7  21012516.025 0  21012517.109 0
  12125242.134 7   9448240.565 6  22599015.363 0  22599016.760 0
  -8774393.511 6  -6680853.242 6  20752145.498 0  20752147.955 0
 -19338225.104 7 -14843420.604 6  20247536.587 0  20247537.757 0
 88  2 27  7  8 59.0800000  0  4  6  8 11  9
  -3705644.306 8  -2887516.334 7  21022455.279 0  21022457.430 0
  12222266.253 6   9523843.763 6  22617478.500 0  22617480.712 0
  -8746154.169 7  -6658848.550 6  20757519.072 0  20757521.086 0
 -19372488.545 6 -14870119.379 6  20241016.490 0  20241017.574 0
 88  2 27  7  9 29.0800000  0  4  6  8 11  9
  -3652853.886 7  -2846380.933 7  21032501.042 0  21032503.148 0
  12319410.112 7   9599540.251 7  22635964.086 0  22635965.971 0
  -8717517.093 7  -6636533.934 7  20762968.160 0  20762969.926 0
 -19406202.930 7 -14896390.324 6  20234601.251 0  20234601.505 0
 88  2 27  7  9 59.0800000  0  4  6  8 11  9
  -3599507.436 7  -2804812.295 6  21042652.764 0  21042653.651 0
  12416671.194 7   9675328.127 6  22654471.590 0  22654473.346 0
  -8688484.216 7  -6613910.929 6  20768493.210 0  20768496.259 0
 -19439365.774 7 -14922231.506 6  20228289.450 0  20228289.832 0
 88  2 27  7 10 29.0800000  0  4  6  8 11  9
  -3545605.769 8  -2762811.013 6  21052910.558 0  21052911.768 0
  12514046.214 7   9751204.747 7  22673002.614 0  22673003.863 0
  -8659058.119 7  -6590981.487 6  20774092.451 0  20774095.511 0
 -19471974.834 7 -14947641.155 6  20222083.824 0  20222085.395 0
 88  2 27  7 10 59.0800000  0  4  6  8 11  9
  -3491149.936 7  -2720377.900 7  21063273.052 0  21063274.746 0
  12611532.677 7   9827168.219 7  22691552.222 0  22691555.586 0
  -8629241.012 7  -6567747.388 6  20779766.140 0  20779768.878 0
 -19504028.391 7 -14972617.964 7  20215985.202 0  20215987.131 0
 88  2 27  7 11 29.0800000  0  4  6  8 11  9
  -3436140.347 7  -2677513.302 6  21073740.990 0  21073742.970 0
  12709128.118 7   9903216.620 6  22710123.871 0  22710127.381 0
  -8599034.848 7  -6544210.119 7  20785514.535 0  20785517.466 0
 -19535523.864 6 -14997159.885 6  20209991.237 0  20209993.150 0
 88  2 27  7 11 59.0800000  0  4  6  8 11  9
  -3380577.983 7  -2634217.969 7  21084314.010 0  21084315.559 0
  12806829.905 7   9979347.890 6  22728717.363 0  22728718.654 0
  -8568441.855 7  -6520371.424 7  20791336.045 0  20791338.982 0
 -19566459.049 7 -15021265.224 5  20204105.121 0  20204107.033 0
 88  2 27  7 12 29.0800000  0  4  6  8 11  9
  -3324463.548 7  -2590492.431 7  21094992.028 0  21094993.937 0
  12904634.892 7  10055559.568 7  22747330.373 0  22747330.048 0
  -8537463.837 7  -6496232.710 7  20797231.490 0  20797234.014 0
 -19596831.880 7 -15044932.364 6  20198325.637 0  20198326.205 0
 88  2 27  7 12 59.0800000  0  4  6  8 11  9
  -3267797.842 7  -2546337.337 6  21105775.235 0  21105776.356 0
  13002540.656 7  10131849.777 7  22765960.212 0  22765960.638 0
  -8506103.173 7  -6471795.829 6  20803199.008 0  20803201.929 0
 -19626640.307 7 -15068159.708 6  20192653.356 0  20192654.410 0
 88  2 27  7 13 29.0800000  0  4  6  8 11  9
  -3210581.497 7  -2501753.192 6  21116663.086 0  21116664.067 0
  13100545.107 7  10208216.858 7  22784608.159 0  22784610.479 0
  -8474361.519 6  -6447062.068 7  20809239.556 0  20809242.032 0
 -19655881.786 7 -15090945.289 6  20187087.266 0  20187090.908 0
 88  2 27  7 13 59.0800000  0  4  6  8 11  9
  -3152815.424 7  -2456740.673 6  21127654.802 0  21127657.147 0
  13198645.239 7  10284658.527 7  22803276.832 0  22803279.353 0
  -8442240.835 8  -6422032.962 7  20815351.870 0  20815354.241 0
 -19684554.410 6 -15113287.608 6  20181631.626 0  20181633.553 0
 88  2 27  7 14 29.0800000  0  4  6  8 11  9
  -3094500.911 8  -2411300.793 7  21138752.735 0  21138752.916 0
  13296838.680 7  10361172.884 7  22821962.662 0  22821964.331 0
  -8409743.569 8  -6396710.412 7  20821535.218 0  20821538.830 0
 -19712656.200 7 -15135185.108 6  20176284.753 0  20176284.432 0
 88  2 27  7 14 59.0800000  0  4  6  8 11  9
  -3035638.375 7  -2365433.909 6  21149953.493 0  21149956.059 0
  13395122.567 8  10437757.745 6  22840666.021 0  22840667.326 0
  -8376871.603 7  -6371095.893 6  20827791.932 0  20827793.384 0
 -19740184.820 7 -15156635.953 6  20171046.255 0  20171047.238 0
 88  2 27  7 15 29.0800000  0  4  6  8 11  9
  -2976229.125 7  -2319140.980 7  21161258.067 0  21161260.417 0
  13493494.342 8  10514411.078 6  22859385.407 0  22859386.388 0
  -8343627.136 7  -6345191.103 6  20834117.861 0  20834120.240 0
 -19767138.548 7 -15177638.868 6  20165915.837 0  20165918.794 0
 88  2 27  7 15 59.0800000  0  4  6  8 11  9
  -2916274.339 7  -2272422.991 6  21172667.772 0  21172668.598 0
  13591951.315 7  10591130.771 6  22878120.503 0  22878123.094 0
  -8310012.811 7  -6318998.122 6  20840513.106 0  20840517.074 0
 -19793515.500 7 -15198192.341 6  20160897.543 0  20160899.126 0
 88  2 27  7 16 29.0800000  0  4  6 13 11  9
  -2855774.682 7  -2225280.401 7  21184181.265 0  21184182.602 0
         -.207 7         -.229 6  21416964.931 0          .000 0
  -8276030.254 7  -6292518.208 6  20846980.836 0  20846982.794 0
 -19819313.393 7 -15218294.586 6  20155988.054 0  20155990.136 0
 88  2 27  7 16 59.0800000  0  4  6 13 11  9
  -2794731.287 7  -2177714.128 7  21195796.790 0  21195798.706 0
    -56058.830 7  55785510.405 6  21406335.680 0  21406337.340 0
  -8241681.607 7  -6265753.016 6  20853516.778 0  20853517.613 0
 -19844530.390 6 -15237944.203 6  20151189.464 0  20151190.516 0
 88  2 27  7 17 29.0800000  0  4  6 13 11  9
  -2733144.988 8  -2129724.801 6  21207516.002 0  21207517.523 0
   -111674.768 7  55742173.330 6  21395751.540 0  21395754.146 0
  -8206968.902 7  -6238704.155 7  20860122.186 0  20860125.360 0
 -19869164.317 7 -15257139.464 6  20146500.498 0  20146503.596 0
 88  2 27  7 17 59.0800000  0  4  6 13 11  9
  -2671016.957 7  -2081313.350 7  21219337.894 0  21219340.183 0
   -166848.446 7  55699180.883 6  21385252.785 0  21385253.251 0
  -8171894.385 7  -6211373.357 7  20866797.074 0  20866799.167 0
 -19893213.219 6 -15275878.860 6  20141924.561 0  20141928.028 0
 88  2 27  7 18 29.0800000  0  4  6 13 11  9
  -2608347.984 7  -2032480.392 6  21231263.016 0  21231265.149 0
   -221579.612 7  55656533.243 6  21374837.631 0  21374839.805 0
  -8136460.021 7  -6183762.152 6  20873540.091 0  20873541.764 0
 -19916675.194 6 -15294160.902 6  20137460.950 0  20137462.014 0
 88  2 27  7 18 59.0800000  0  4  6 13 11  9
  -2545139.377 7  -1983226.937 7  21243292.775 0  21243295.023 0
   -275868.267 7  55614230.416 6  21364506.573 0  21364509.814 0
  -8100667.987 7  -6155872.263 6  20880350.344 0  20880353.261 0
 -19939547.972 6 -15311983.824 7  20133107.761 0  20133109.556 0
 88  2 27  7 19 29.0800000  0  4  6 13 11  9
  -2481392.267 7  -1933553.862 6  21255422.997 0  21255423.741 0
   -329714.337 7  55572272.442 7  21354259.995 0  21354262.579 0
  -8064520.648 6  -6127705.493 6  20887229.678 0  20887232.601 0
 -19961830.218 6 -15329346.628 5  20128867.631 0  20128869.626 0
 88  2 27  7 19 59.0800000  0  4  6 13 11  9
  -2417107.884 7  -1883462.156 7  21267656.116 0  21267657.291 0
   -383117.269 7  55530659.786 6  21344097.048 0  21344100.374 0
  -8028019.962 7  -6099263.398 6  20894174.906 0  20894177.580 0
 -19983520.020 7 -15346247.786 6  20124740.845 0  20124741.596 0
 88  2 27  7 20 29.0800000  0  4  6 13 11  9
  -2352287.479 7  -1832952.768 6  21279989.969 0  21279992.299 0
   -436077.416 7  55489392.143 6  21334019.747 0  21334022.687 0
  -7991168.343 7  -6070547.842 6  20901188.373 0  20901190.147 0
 -20004615.457 6 -15362685.778 6  20120727.115 0  20120725.979 0
 88  2 27  7 20 59.0800000  0  4  6 13 11  9
  -2286932.221 7  -1782026.613 7  21292426.832 0  21292429.105 0
   -488594.589 7  55448469.680 6  21324025.641 0  21324028.874 0
  -7953968.006 7  -6041560.571 6  20908267.636 0  20908269.217 0
 -20025114.619 6 -15378659.164 6  20116824.952 0  20116825.775 0
 88  2 27  7 21 29.0800000  0  4  6 13 11  9
  -2221043.104 7  -1730684.449 6  21304965.935 0  21304966.452 0
   -540668.059 7  55407892.982 6  21314116.110 0  21314119.144 0
  -7916420.751 7  -6012302.963 6  20915411.466 0  20915414.514 0
 -20045015.829 6 -15394166.595 7  20113037.465 0  20113039.705 0
 88  2 27  7 21 59.0800000  0  4  6 13 11  9
  -2154621.636 7  -1678927.482 6  21317606.070 0  21317606.435 0
   -592297.994 8  55367661.872 6  21304293.047 0  21304294.652 0
  -7878529.330 7  -5982777.173 7  20922622.793 0  20922624.771 0
 -20064317.309 6 -15409206.680 6  20109365.338 0  20109367.133 0
 88  2 27  7 22 29.0800000  0  4  6 13 11  9
  -2087669.108 7  -1626756.692 6  21330346.195 0  21330346.958 0
   -643484.628 7  55327776.200 6  21294552.750 0  21294553.151 0
  -7840295.939 7  -5952984.913 6  20929897.939 0  20929899.947 0
 -20083017.333 6 -15423778.137 6  20105805.897 0  20105808.265 0
 88  2 27  7 22 59.0800000  0  4  6 13 11  9
  -2020186.917 7  -1574173.157 7  21343186.962 0  21343188.922 0
   -694227.814 8  55288236.093 6  21284895.933 0  21284897.914 0
  -7801722.494 7  -5922927.685 6  20937238.397 0  20937241.494 0
 -20101114.186 6 -15437879.594 6  20102363.447 0  20102365.414 0
 88  2 27  7 23 29.0800000  0  4  6 13 11  9
  -1952176.202 7  -1521177.797 7  21356129.153 0  21356131.142 0
   -744527.732 7  55249041.401 7  21275323.577 0  21275325.128 0
  -7762811.567 7  -5892607.468 6  20944642.949 0  20944644.878 0
 -20118606.248 6 -15451509.788 6  20099034.627 0  20099035.661 0
 88  2 27  7 23 59.0800000  0  4  6 13 11  9
  -1883638.421 7  -1467771.744 6  21369172.032 0  21369173.213 0
   -794383.702 7  55210192.603 6  21265836.702 0  21265839.300 0
  -7723564.875 8  -5862025.628 6  20952110.754 0  20952114.254 0
 -20135491.967 6 -15464667.482 6  20095820.193 0  20095822.189 0
 88  2 27  7 24 29.0800000  0  4  6 13 11  9
  -1814574.595 7  -1413955.774 7  21382314.658 0  21382317.192 0
   -843795.848 8  55171689.647 6  21256433.558 0  21256435.947 0
  -7683984.599 8  -5831183.842 7  20959642.274 0  20959646.049 0
 -20151769.187 6 -15477351.004 6  20092723.955 0  20092726.194 0
 88  2 27  7 24 59.0800000  0  4  6 13 11  9
  -1744986.473 8  -1359731.260 7  21395556.001 0  21395557.433 0
   -892764.556 7  55133532.236 6  21247115.404 0  21247116.569 0
  -7644073.115 7  -5800083.981 6  20967237.431 0  20967240.202 0
 -20167436.702 6 -15489559.452 6  20089742.276 0  20089742.181 0
 88  2 27  7 25 29.0800000  0  4  6 13 11  9
  -1674875.420 7  -1305099.278 6  21408897.455 0  21408898.812 0
   -941289.540 7  55095720.553 6  21237880.636 0  21237883.912 0
  -7603832.728 7  -5768727.811 6  20974895.632 0  20974897.572 0
 -20182492.961 6 -15501291.589 6  20086879.091 0  20086879.054 0
 88  2 27  7 25 59.0800000  0  4  6 13 11  9
  -1604242.968 7  -1250061.015 6  21422339.565 0  21422340.679 0
   -989370.892 7  55058254.578 6  21228731.368 0  21228733.749 0
  -7563265.556 7  -5737117.044 6  20982614.954 0  20982617.771 0
 -20196936.424 7 -15512546.271 6  20084128.204 0  20084130.314 0
 88  2 27  7 26 29.0800000  0  4  6 13 11  9
  -1533090.327 7  -1194617.388 7  21435880.166 0  21435880.242 0
  -1037008.583 8  55021134.299 6  21219667.029 0  21219667.952 0
  -7522374.165 7  -5705253.607 6  20990397.282 0  20990398.865 0
 -20210765.392 7 -15523322.082 6  20081497.313 0  20081498.193 0
 88  2 27  7 26 59.0800000  0  4  6 13 11  9
  -1461419.106 7  -1138769.699 6  21449517.984 0  21449519.483 0
  -1084202.831 7  54984359.579 6  21210685.512 0  21210688.424 0
  -7481160.559 7  -5673139.110 6  20998239.366 0  20998241.225 0
 -20223978.278 6 -15533617.845 6  20078983.846 0  20078983.524 0
 88  2 27  7 27 29.0800000  0  4  6 13 11  9
  -1389230.275 7  -1082518.697 6  21463254.506 0  21463254.742 0
  -1130953.423 7  54947930.572 6  21201788.943 0  21201791.462 0
  -7439626.365 7  -5640774.798 6  21006142.803 0  21006145.415 0
 -20236573.173 6 -15543432.040 6  20076585.736 0  20076587.361 0
 88  2 27  7 27 59.0800000  0  4  6 13 11  9
  -1316525.421 6  -1025865.547 6  21477089.751 0  21477090.487 0
  -1177260.094 7  54911847.465 6  21192977.319 0  21192978.514 0
  -7397773.676 7  -5608162.306 6  21014107.111 0  21014109.949 0
 -20248548.663 7 -15552763.581 6  20074308.584 0  20074308.677 0
 88  2 27  7 28 29.0800000  0  4  6 13 11  9
  -1243306.579 7   -968811.931 6  21491023.802 0  21491023.428 0
  -1223123.645 7  54876109.670 5  21184249.498 0  21184251.353 0
  -7355605.252 7  -5575303.795 7  21022131.625 0  21022134.368 0
 -20259903.494 6 -15561611.505 6  20072148.251 0  20072148.960 0
 88  2 27  7 28 59.0800000  0  4  6 13 11  9
  -1169575.017 8   -911358.769 6  21505053.495 0  21505055.319 0
  -1268544.107 8  54840717.124 5  21175606.787 0  21175608.969 0
  -7313123.324 7  -5542200.998 6  21030214.983 0  21030218.568 0
 -20270636.403 6 -15569974.836 6  20070105.082 0  20070105.150 0
 88  2 27  7 29 29.0800000  0  4  6 13 11  9
  -1095332.437 7   -853507.407 7  21519180.986 0  21519184.132 0
  -1313521.423 7  54805669.885 6  21167046.805 0  21167049.160 0
  -7270329.990 7  -5508855.534 6  21038359.349 0  21038361.170 0
 -20280745.873 7 -15577852.347 5  20068180.840 0  20068181.535 0
 88  2 27  7 29 59.0800000  0  4  6 13 11  9
  -1020580.062 7   -795258.803 6  21533406.659 0  21533408.658 0
  -1358055.305 7  54770968.202 6  21158573.494 0  21158574.459 0
  -7227227.125 7  -5475268.878 6  21046562.014 0  21046564.542 0
 -20290230.240 6 -15585242.761 6  20066374.691 0  20066375.655 0
 88  2 27  7 30 29.0800000  0  4  6 13 11  9
   -945319.781 7   -736614.446 7  21547727.357 0  21547729.940 0
  -1402146.643 7  54736611.337 6  21150183.241 0  21150184.408 0
  -7183817.502 7  -5441443.210 6  21054821.633 0  21054823.900 0
 -20299088.438 6 -15592145.246 6  20064688.919 0  20064691.002 0
 88  2 27  7 30 59.0800000  0  4  6 13 11  9
   -869553.252 7   -677575.597 7  21562145.115 0  21562147.942 0
  -1445795.282 7  54702599.420 5  21141876.332 0  21141878.979 0
  -7140103.072 7  -5407380.015 6  21063139.999 0  21063142.597 0
 -20307319.111 6 -15598558.778 6  20063124.567 0  20063126.319 0
 88  2 27  7 31 29.0800000  0  4  6 13 11  9
   -793282.324 7   -618143.707 7  21576659.620 0  21576662.323 0
  -1489001.553 7  54668932.202 6  21133654.477 0  21133657.094 0
  -7096086.407 7  -5373081.313 6  21071516.639 0  21071518.143 0
 -20314921.159 7 -15604482.443 5  20061677.634 0  20061678.627 0
 88  2 27  7 31 59.0800000  0  4  6 13 11  9
   -716508.400 7   -558319.880 6  21591269.360 0  21591271.584 0
  -1531765.811 7  54635609.429 7  21125517.411 0  21125520.679 0
  -7051769.328 7  -5338548.516 6  21079949.711 0  21079952.430 0
 -20321893.085 7 -15609915.112 6  20060351.370 0  20060352.706 0
 88  2 27  7 32 29.0800000  0  4  6 13 11  9
   -639233.354 7   -498105.553 6  21605973.737 0  21605975.729 0
  -1574088.573 7  54602630.646 6  21117464.048 0  21117464.538 0
  -7007154.438 7  -5303783.660 6  21088439.504 0  21088442.252 0
 -20328233.713 7 -15614855.873 6  20059142.887 0  20059145.782 0
 88  2 27  7 32 59.0800000  0  4  6 13 11  9
   -561458.809 7   -437502.010 6  21620773.920 0  21620776.270 0
  -1615969.548 7  54569996.150 6  21109494.078 0  21109496.149 0
  -6962243.651 8  -5268788.248 6  21096985.764 0  21096988.556 0
 -20333941.873 8 -15619303.795 6  20058057.260 0  20058060.313 0
 88  2 27  7 33 29.0800000  0  4  6 13 11  9
   -483186.304 7   -376510.475 6  21635668.914 0  21635670.635 0
  -1657409.078 7  54537705.626 7  21101607.754 0  21101609.517 0
  -6917039.101 7  -5233563.913 6  21105588.273 0  21105589.199 0
 -20339015.910 6 -15623257.587 6  20057092.875 0  20057094.956 0
 88  2 27  7 33 59.0800000  0  4  6 13 11  9
   -404417.845 7   -315132.478 6  21650657.379 0  21650658.433 0
  -1698407.617 7  54505758.734 7  21093804.675 0  21093808.424 0
  -6871543.268 8  -5198112.625 6  21114245.258 0  21114248.609 0
 -20343455.155 7 -15626716.743 6  20056246.914 0  20056248.650 0
 88  2 27  7 34 29.0800000  0  4  6 13 11  9
   -325155.040 8   -253369.263 6  21665741.219 0  21665743.933 0
  -1738965.487 7  54474155.216 6  21086088.027 0  21086089.712 0
  -6825758.109 8  -5162435.873 6  21122958.004 0  21122961.450 0
 -20347258.261 7 -15629680.203 6  20055523.353 0  20055525.864 0
 88  2 27  7 34 59.0800000  0  4  6 13 11  9
   -245399.780 7   -191222.318 6  21680919.083 0  21680920.232 0
  -1779082.754 7  54442895.022 6  21078453.346 0  21078455.356 0
  -6779686.033 7  -5126535.529 6  21131725.714 0  21131727.358 0
 -20350423.993 7 -15632147.041 6  20054922.781 0  20054923.960 0
 88  2 27  7 35 29.0800000  0  4  6 13 11  9
   -165153.787 7   -128693.000 6  21696189.595 0  21696190.679 0
  -1818760.524 7  54411977.306 6  21070903.762 0  21070905.377 0
  -6733329.063 7  -5090413.221 6  21140546.684 0  21140548.931 0
 -20352951.483 6 -15634116.528 6  20054441.131 0  20054442.228 0
 88  2 27  7 35 59.0800000  0  4  6 13 11  9
    -84418.977 8    -65782.754 6  21711551.901 0  21711553.865 0
  -1857998.428 7  54381402.360 6  21063437.242 0  21063439.114 0
  -6686689.545 7  -5054070.756 6  21149422.907 0  21149425.427 0
 -20354839.548 6 -15635587.727 5  20054081.282 0  20054081.032 0
 88  2 27  7 36 29.0800000  0  4  6 13 11  9
     -3198.056 7     -2493.740 6  21727008.730 0  21727009.892 0
  -1896797.516 7  54351169.300 6  21056054.338 0  21056055.660 0
  -6639770.169 7  -5017510.181 6  21158350.862 0  21158352.584 0
 -20356087.244 6 -15636559.941 6  20053843.461 0  20053844.585 0
 88  2 27  7 36 59.0800000  0  4  6 13 11  9
     78508.679 7     61173.838 6  21742556.375 0  21742557.415 0
  -1935158.232 7  54321277.833 6  21048754.183 0  21048755.939 0
  -6592572.770 7  -4980732.991 7  21167332.412 0  21167333.766 0
 -20356693.638 7 -15637032.476 6  20053727.740 0  20053729.822 0
 88  2 27  7 37 29.0800000  0  4  6 13 11  9
    160698.670 7    125217.976 6  21758196.700 0  21758198.379 0
  -1973080.393 7  54291728.123 7  21041537.116 0  21041539.108 0
  -6545099.628 7  -4943740.918 7  21176366.065 0  21176369.637 0
 -20356657.575 7 -15637004.374 6  20053735.982 0  20053735.516 0
 88  2 27  7 37 59.0800000  0  4  6 13 11  9
    243369.984 8    189637.186 6  21773928.517 0  21773929.528 0
  -2010564.242 8  54262519.965 6  21034405.434 0  21034408.001 0
  -6497352.664 7  -4906535.488 7  21185452.163 0  21185453.991 0
 -20355978.167 6 -15636474.978 6  20053864.078 0  20053865.413 0
 88  2 27  7 38 29.0800000  0  4  6 13 11  9
    326520.530 7    254429.826 6  21789750.827 0  21789751.386 0
  -2047610.696 7  54233652.621 6  21027355.416 0  21027356.796 0
  -6449334.298 7  -4869118.583 6  21194589.302 0  21194590.166 0
 -20354654.744 7 -15635443.742 7  20054116.145 0  20054116.968 0
 88  2 27  7 38 59.0800000  0  4  6 13 11  9
    410148.374 7    319594.371 6  21805664.908 0  21805665.421 0
  -2084220.277 7  54205125.702 6  21020388.280 0  21020389.412 0
  -6401046.948 7  -4831492.086 7  21203778.057 0  21203780.101 0
 -20352686.085 6 -15633909.730 6  20054491.815 0  20054491.608 0
 88  2 27  7 39 29.0800000  0  4  6 13 11  9
    494251.666 7    385129.378 6  21821669.180 0  21821671.753 0
  -2120393.187 8  54176939.043 6  21013504.440 0  21013507.087 0
  -6352492.630 7  -4793657.545 6  21213018.202 0  21213020.840 0
 -20350071.628 7 -15631872.480 6  20054988.243 0  20054990.282 0
 88  2 27  7 39 59.0800000  0  4  6 13 11  9
    578828.313 7    451033.252 6  21837762.770 0  21837765.127 0
  -2156130.083 7  54149092.124 6  21006705.253 0  21006706.203 0
  -6303673.353 7  -4755616.549 7  21222307.509 0  21222310.339 0
 -20346810.335 7 -15629331.220 6  20055608.673 0  20055609.897 0
 88  2 27  7 40 29.0800000  0  4  6 13 11  9
    663876.665 7    517304.705 6  21853947.616 0  21853949.551 0
  -2191431.500 8  54121584.511 6  20999986.369 0  20999988.251 0
  -6254591.402 7  -4717370.882 6  21231647.181 0  21231650.591 0
 -20342901.284 7 -15626285.185 6  20056353.466 0  20056355.718 0
 88  2 27  7 40 59.0800000  0  4  6 13 11  9
    749394.419 7    583941.902 7  21870222.290 0  21870223.660 0
  -2226298.315 8  54094415.579 6  20993352.459 0  20993354.797 0
  -6205249.196 7  -4678922.415 6  21241037.266 0  21241040.361 0
 -20338343.718 6 -15622733.836 6  20057219.684 0  20057219.821 0
 88  2 27  7 41 29.0800000  0  4  6 13 11  9
    835379.269 8    650943.083 6  21886584.335 0  21886585.253 0
  -2260730.890 7  54067585.002 6  20986799.749 0  20986801.121 0
  -6155649.094 7  -4640272.977 6  21250475.169 0  21250479.156 0
 -20333137.298 6 -15618676.890 5  20058211.682 0  20058212.935 0
 88  2 27  7 41 59.0800000  0  4  6 13 11  9
    921829.434 8    718306.836 7  21903034.974 0  21903036.874 0
  -2294729.610 7  54041092.526 5  20980328.776 0  20980331.574 0
  -6105793.313 7  -4601424.319 7  21259963.506 0  21259964.592 0
 -20327281.037 7 -15614113.577 6  20059324.678 0  20059327.303 0
 88  2 27  7 42 29.0800000  0  4  6 13 11  9
   1008742.963 7    786031.646 6  21919573.718 0  21919576.116 0
  -2328295.070 7  54014937.648 6  20973943.119 0  20973944.536 0
  -6055683.973 8  -4562378.075 7  21269498.226 0  21269501.084 0
 -20320774.458 7 -15609043.534 6  20060564.510 0  20060564.446 0
 88  2 27  7 42 59.0800000  0  4  6 13 11  9
   1096117.619 7    854115.781 7  21936200.460 0  21936203.017 0
  -2361427.657 7  53989120.081 7  20967637.376 0  20967638.405 0
  -6005323.357 7  -4523136.053 7  21279081.443 0  21279085.422 0
 -20313616.346 7 -15603465.790 6  20061925.956 0  20061925.677 0
 88  2 27  7 43 29.0800000  0  4  6 13 11  9
   1183951.250 8    922557.556 6  21952914.876 0  21952916.969 0
  -2394128.311 7  53963639.077 6  20961414.156 0  20961415.642 0
  -5954713.228 7  -4483699.597 6  21288712.775 0  21288715.718 0
 -20305806.478 6 -15597380.191 6  20063411.935 0  20063414.545 0
 88  2 27  7 43 59.0800000  0  4  6 13 11  9
   1272242.120 7    991355.645 6  21969716.513 0  21969717.205 0
  -2426397.677 7  53938494.137 7  20955274.899 0  20955276.196 0
  -5903855.813 8  -4444070.437 7  21298390.761 0  21298392.142 0
 -20297343.976 7 -15590786.037 6  20065023.491 0  20065024.156 0
 88  2 27  7 44 29.0800000  0  4  6 13 11  9
   1360987.670 7   1060508.022 7  21986603.413 0  21986605.562 0
  -2458236.224 8  53913684.895 6  20949215.071 0  20949217.274 0
  -5852753.556 7  -4404250.489 6  21308115.387 0  21308117.613 0
 -20288228.638 6 -15583683.163 6  20066756.633 0  20066758.258 0
 88  2 27  7 44 59.0800000  0  4  6 13 11  9
   1450185.667 8   1130012.927 6  22003576.733 0  22003579.846 0
  -2489645.027 7  53889210.511 6  20943238.732 0  20943240.216 0
  -5801408.779 8  -4364241.579 7  21317886.057 0  21317888.147 0
 -20278460.026 7 -15576071.264 6  20068614.665 0  20068616.190 0
 88  2 27  7 45 29.0800000  0  4  6 13 11  9
   1539833.947 7   1199868.708 6  22020637.137 0  22020638.635 0
  -2520624.690 8  53865070.515 6  20937344.026 0  20937345.357 0
  -5749823.499 7  -4324045.247 6  21327702.166 0  21327703.698 0
 -20268037.256 7 -15567949.617 6  20070598.793 0  20070600.500 0
 88  2 27  7 45 59.0800000  0  4  6 13 11  9
   1629930.192 8   1270073.572 6  22037782.187 0  22037783.716 0
  -2551175.926 7  53841264.388 6  20931529.938 0  20931530.454 0
  -5698000.035 7  -4283663.325 6  21337564.082 0  21337565.213 0
 -20256960.267 6 -15559318.212 6  20072706.148 0  20072707.069 0
 88  2 27  7 46 29.0800000  0  4  6 13 11  9
   1720472.646 8   1340626.138 7  22055011.712 0  22055014.184 0
  -2581299.168 7  53817791.749 6  20925797.262 0  20925799.010 0
  -5645940.413 7  -4243097.371 7  21347470.080 0  21347471.958 0
 -20245228.377 6 -15550176.471 6  20074939.182 0  20074940.591 0
 88  2 27  7 46 59.0800000  0  4  6 13 11  9
   1811458.917 8   1411524.490 7  22072326.220 0  22072327.826 0
  -2610995.107 7  53794652.073 6  20920145.793 0  20920146.749 0
  -5593647.025 7  -4202349.280 6  21357420.672 0  21357423.433 0
 -20232841.025 6 -15540523.987 6  20077296.832 0  20077297.339 0
 88  2 27  7 47 29.0800000  0  4  6 13 11  9
   1902886.598 7   1482766.833 6  22089723.786 0  22089725.885 0
  -2640264.771 7  53771844.564 6  20914575.117 0  20914577.574 0
  -5541121.849 8  -4161420.571 8  21367416.850 0  21367418.523 0
 -20219797.964 6 -15530360.565 6  20079779.392 0  20079780.014 0
 88  2 27  7 47 59.0800000  0  4  6 13 11  9
   1994753.586 7   1554351.499 7  22107205.841 0  22107207.617 0
  -2669108.557 7  53749368.899 6  20909086.352 0  20909090.034 0
  -5488367.181 7  -4120313.028 7  21377455.846 0  21377457.198 0
 -20206098.840 6 -15519685.944 6  20082385.179 0  20082387.001 0
 88  2 27  7 48 29.0800000  0  4  6 13 11  9
   2087057.576 8   1626276.679 7  22124770.387 0  22124772.542 0
  -2697527.256 7  53727224.477 6  20903679.208 0  20903682.238 0
  -5435385.040 7  -4079028.227 6  21387536.862 0  21387540.351 0
 -20191743.387 7 -15508499.873 5  20085117.587 0  20085117.421 0
 88  2 27  7 48 59.0800000  0  4  6 13 11  9
   2179796.433 8   1698540.723 6  22142418.213 0  22142420.225 0
  -2725521.876 7  53705410.514 6  20898352.503 0  20898355.132 0
  -5382177.404 7  -4037567.739 6  21397661.974 0  21397664.178 0
 -20176730.982 7 -15496801.907 6  20087974.630 0  20087975.739 0
 88  2 27  7 49 29.0800000  0  4  6 13 11  9
   2272967.622 7   1771141.627 7  22160147.851 0  22160149.243 0
  -2753093.341 8  53683926.281 5  20893105.742 0  20893107.473 0
  -5328746.937 8  -3995933.614 7  21407829.963 0  21407833.113 0
 -20161061.660 7 -15484592.075 6  20090955.636 0  20090955.428 0
 88  2 27  7 49 59.0800000  0  4  6 13 11  9
   2366568.772 8   1844077.591 6  22177959.718 0  22177960.244 0
  -2780242.514 7  53662771.093 6  20887939.301 0  20887942.176 0
  -5275095.628 7  -3954127.400 7  21418039.018 0  21418041.019 0
 -20144735.278 7 -15471870.202 6  20094063.488 0  20094064.412 0
 88  2 27  7 50 29.0800000  0  4  6 13 11  9
   2460597.709 7   1917346.881 7  22195852.160 0  22195854.352 0
  -2806970.273 7  53641944.297 6  20882852.571 0  20882855.272 0
  -5221225.569 7  -3912150.722 7  21428290.289 0  21428293.186 0
 -20127751.298 6 -15458635.932 6  20097293.330 0  20097295.655 0
 88  2 27  7 50 59.0800000  0  4  6 13 11  9
   2555052.009 7   1990947.616 7  22213826.936 0  22213829.350 0
  -2833276.839 7  53621445.684 6  20877846.456 0  20877849.619 0
  -5167138.875 7  -3870005.243 7  21438582.673 0  21438585.600 0
 -20110109.995 6 -15444889.478 6  20100652.497 0  20100651.129 0
 88  2 27  7 51 29.0800000  0  4  6 13 11  9
   2649929.526 7   2064878.148 7  22231881.932 0  22231883.557 0
  -2859163.381 8  53601274.377 6  20872920.548 0  20872922.715 0
  -5112837.642 7  -3827692.598 7  21448915.962 0  21448917.694 0
 -20091810.709 6 -15430630.266 6  20104134.836 0  20104134.126 0
 88  2 27  7 51 59.0800000  0  4  6 13 11  9
   2745227.660 7   2139136.442 6  22250015.117 0  22250016.788 0
  -2884630.927 7  53581429.565 6  20868074.681 0  20868076.301 0
  -5058323.748 7  -3785214.241 7  21459290.730 0  21459292.174 0
 -20072853.640 6 -15415858.544 6  20107741.553 0  20107742.876 0
 88  2 27  7 52 29.0800000  0  4  6 13 11  9
   2840944.004 7   2213720.600 7  22268229.888 0  22268232.431 0
  -2909680.267 7  53561910.631 6  20863308.661 0  20863309.355 0
  -5003599.491 7  -3742571.955 7  21469703.525 0  21469706.573 0
 -20053238.705 7 -15400574.155 6  20111474.190 0  20111476.113 0
 88  2 27  7 52 59.0800000  0  4  6 13 11  9
   2937076.334 7   2288628.891 7  22286523.231 0  22286527.325 0
  -2934312.031 7  53542717.063 7  20858619.491 0  20858622.359 0
  -4948666.859 7  -3699767.313 7  21480157.485 0  21480159.356 0
 -20032965.685 7 -15384777.009 6  20115331.117 0  20115334.813 0
 88  2 27  7 53 29.0800000  0  4  6 13 11  9
   3033622.223 7   2363859.439 6  22304896.253 0  22304898.160 0
  -2958527.284 7  53523848.073 7  20854013.378 0  20854014.506 0
  -4893528.264 7  -3656802.159 7  21490650.322 0  21490651.350 0
 -20012034.427 7 -15368466.954 6  20119314.608 0  20119315.429 0
 88  2 27  7 53 59.0800000  0  4  6 13 11  9
   3130579.247 7   2439410.352 6  22323346.753 0  22323347.042 0
  -2982327.150 7  53505302.723 6  20849483.091 0  20849486.334 0
  -4838185.998 8  -3613678.317 7  21501180.313 0  21501181.902 0
 -19990445.092 6 -15351644.098 6  20123422.203 0  20123424.368 0
 88  2 27  7 54 29.0800000  0  4  6 13 11  9
   3227944.781 7   2515279.589 7  22341874.903 0  22341874.942 0
  -3005712.490 7  53487080.385 6  20845032.497 0  20845035.873 0
  -4782641.934 8  -3570397.233 6  21511750.687 0  21511753.375 0
 -19968197.902 6 -15334308.612 6  20127655.245 0  20127657.372 0
 88  2 27  7 54 59.0800000  0  4  6 13 11  9
   3325716.461 8   2591465.303 6  22360479.570 0  22360479.622 0
  -3028684.211 7  53469180.352 6  20840660.483 0  20840664.197 0
  -4726898.427 8  -3526960.714 6  21522359.343 0  21522360.174 0
 -19945292.720 7 -15316460.446 6  20132016.071 0  20132015.748 0
 88  2 27  7 55 29.0800000  0  4  6 13 11  9
   3423891.724 7   2667965.491 6  22379161.721 0  22379163.199 0
  -3051243.874 7  53451601.404 6  20836368.654 0  20836371.326 0
  -4670957.433 8  -3483370.317 7  21533003.124 0  21533005.833 0
 -19921729.832 7 -15298099.744 6  20136498.723 0  20136499.331 0
 88  2 27  7 55 59.0800000  0  4  6 13 11  9
   3522467.928 8   2744778.093 7  22397921.450 0  22397922.062 0
  -3073392.371 8  53434342.851 6  20832152.750 0  20832155.317 0
  -4614821.044 7  -3439627.691 7  21543684.832 0  21543687.502 0
 -19897509.376 7 -15279226.670 6  20141107.410 0  20141111.297 0
 88  2 27  7 56 29.0800000  0  4  6 13 11  9
   3621442.692 7   2821901.280 7  22416754.664 0  22416756.063 0
  -3095130.125 7  53417404.353 6  20828017.168 0  20828020.277 0
  -4558491.196 8  -3395734.303 7  21554405.146 0  21554407.472 0
 -19872631.522 6 -15259841.329 6  20145842.536 0  20145843.744 0
 88  2 27  7 56 59.0800000  0  4  6 13 11  9
   3720813.705 8   2899333.220 7  22435664.425 0  22435666.060 0
  -3116458.247 8  53400785.063 6  20823959.580 0  20823960.689 0
  -4501970.063 7  -3351691.841 7  21565160.739 0  21565162.341 0
 -19847096.206 7 -15239943.678 6  20150701.350 0  20150703.831 0
 88  2 27  7 57 29.0800000  0  4  6 13 11  9
   3820578.184 7   2977071.779 7  22454650.183 0  22454649.820 0
  -3137378.098 7  53384483.905 6  20819978.099 0  20819980.467 0
  -4445259.990 7  -3307502.163 7  21575951.311 0  21575953.927 0
 -19820904.098 7 -15219534.262 6  20155685.582 0  20155687.579 0
 88  2 27  7 57 59.0800000  0  4  6 13 11  9
   3920733.403 8   3055114.822 7  22473708.751 0  22473709.098 0
  -3157890.821 7  53368499.991 5  20816075.474 0  20816077.270 0
  -4388363.172 7  -3263166.982 6  21586779.352 0  21586781.816 0
 -19794055.307 7 -15198613.119 6  20160794.078 0  20160794.843 0
 88  2 27  7 58 29.0800000  0  4  6 13 11  9
   4021277.299 7   3133460.709 7  22492840.169 0  22492842.568 0
  -3177996.878 7  53352832.931 6  20812249.275 0  20812250.736 0
  -4331281.123 7  -3218687.460 6  21597641.988 0  21597643.478 0
 -19766549.649 6 -15177180.143 6  20166029.480 0  20166029.572 0
 88  2 27  7 58 59.0800000  0  4  6 13 11  9
   4122207.258 8   3212107.419 7  22512046.760 0  22512048.766 0
  -3197697.748 7  53337481.609 7  20808498.630 0  20808502.518 0
  -4274016.116 7  -3174065.365 7  21608537.712 0  21608541.248 0
 -19738387.803 7 -15155235.856 6  20171387.913 0  20171388.277 0
 88  2 27  7 59 29.0800000  0  4  6 13 11  9
   4223520.576 7   3291052.854 7  22531326.721 0  22531327.668 0
  -3216994.125 7  53322445.486 7  20804828.322 0  20804829.630 0
  -4216569.983 7  -3129302.149 7  21619469.756 0  21619472.240 0
 -19709569.859 6 -15132780.317 6  20176872.965 0  20176872.618 0
 88  2 27  7 59 59.0800000  0  4  6 13 11  9
   4325214.817 7   3370295.106 7  22550678.478 0  22550680.142 0
  -3235886.764 7  53307723.944 6  20801232.832 0  20801235.346 0
  -4158945.042 7  -3084399.594 6  21630436.513 0  21630437.818 0
 -19680096.421 6 -15109814.018 6  20182480.594 0  20182480.301 0
 88  2 27  8  0 29.0800000  0  4  6 13 11  9
   4427287.081 8   3449831.913 7  22570102.011 0  22570102.474 0
  -3254377.681 7  53293315.450 6  20797713.608 0  20797716.464 0
  -4101143.134 7  -3039359.123 7  21641435.573 0  21641437.121 0
 -19649967.876 6 -15086337.221 6  20188213.786 0  20188216.053 0
 88  2 27  8  0 59.0800000  0  4  6 13 11  9
   4529734.814 7   3529661.300 6  22589596.610 0  22589598.189 0
  -3272467.483 8  53279219.521 6  20794271.424 0  20794274.690 0
  -4043166.360 7  -2994182.413 7  21652466.605 0  21652470.126 0
 -19619184.719 6 -15062350.350 6  20194072.066 0  20194072.518 0
 88  2 27  8  1 29.0800000  0  4  6 13 11  9
   4632555.375 8   3609781.171 7  22609162.993 0  22609164.382 0
  -3290157.879 7  53265434.803 7  20790905.056 0  20790908.293 0
  -3985016.858 6  -2948871.119 7  21663532.928 0  21663535.298 0
 -19587747.487 7 -15037853.806 6  20200053.879 0  20200056.361 0
 88  2 27  8  1 59.0800000  0  4  6 13 11  9
   4735746.482 7   3690189.811 7  22628799.473 0  22628801.775 0
  -3307449.306 7  53251960.989 6  20787614.893 0  20787617.553 0
  -3926696.549 7  -2903426.698 7  21674632.118 0  21674632.763 0
 -19555656.316 7 -15012847.696 6  20206160.427 0  20206163.722 0
 88  2 27  8  2 29.0800000  0  4  6 13 11  9
   4839305.003 7   3770884.759 7  22648505.470 0  22648509.508 0
  -3324343.446 7  53238796.733 6  20784398.858 0  20784401.676 0
  -3868208.017 8  -2857851.213 7  21685760.991 0  21685763.153 0
 -19522912.335 6 -14987332.933 5  20212391.833 0  20212392.599 0
 88  2 27  8  2 59.0800000  0  4  6 13 11  9
   4943228.414 7   3851864.032 7  22668281.439 0  22668284.417 0
  -3340841.674 7  53225940.980 6  20781258.674 0  20781262.471 0
  -3809552.812 7  -2812145.852 6  21696922.929 0  21696925.689 0
 -19489515.852 7 -14961309.679 6  20218746.903 0  20218748.224 0
 88  2 27  8  3 29.0800000  0  4  6 13 11  9
   5047514.120 7   3933125.636 6  22688127.090 0  22688128.984 0
  -3356944.850 7  53213393.059 6  20778196.015 0  20778198.072 0
  -3750732.791 7  -2766312.060 7  21708117.142 0  21708119.316 0
 -19455467.311 6 -14934778.357 6  20225225.502 0  20225226.852 0
 88  2 27  8  3 59.0800000  0  4  6 13 11  9
   5152159.476 7   4014667.449 7  22708040.006 0  22708042.792 0
  -3372653.840 7  53201152.274 6  20775206.903 0  20775208.808 0
  -3691750.056 7  -2720351.476 7  21719340.576 0  21719342.923 0
 -19420767.363 6 -14907739.452 6  20231828.491 0  20231830.773 0
 88  2 27  8  4 29.0800000  0  4  3 13 11  9
         -.199 5          .449 7  24136605.127 0          .000 0
  -3387970.062 7  53189217.579 6  20772292.096 0  20772294.136 0
  -3632606.928 7  -2674265.903 7  21730594.304 0  21730597.139 0
 -19385416.835 7 -14880193.587 6  20238556.956 0  20238558.225 0
 88  2 27  8  4 59.0800000  0  4  3 13 11  9
    -78490.775 7  84349440.189 6  24121694.072 0  24121696.847 0
  -3402894.693 7  53177588.018 7  20769451.185 0  20769454.085 0
  -3573304.669 7  -2628056.354 7  21741879.131 0  21741881.605 0
 -19349416.130 6 -14852141.105 5  20245405.819 0  20245408.438 0
 88  2 27  8  5 29.0800000  0  4  3 13 11  9
   -156760.021 7  84288451.180 6  24106800.375 0  24106802.716 0
  -3417429.424 7  53166262.278 7  20766685.689 0  20766688.708 0
  -3513845.674 7  -2581724.669 7  21753193.920 0  21753196.321 0
 -19312766.135 7 -14823582.690 6  20252381.404 0  20252381.905 0
 88  2 27  8  5 59.0800000  0  4  3 13 11  9
   -234807.384 6  84227635.076 7  24091947.736 0  24091950.324 0
  -3431574.884 7  53155239.849 7  20763993.656 0  20763995.804 0
  -3454231.969 7  -2535272.434 7  21764538.671 0  21764540.591 0
 -19275467.294 6 -14794518.652 7  20259478.706 0  20259480.006 0
 88  2 27  8  6 29.0800000  0  4  3 13 11  9
   -312632.939 7  84166991.806 7  24077137.033 0  24077141.255 0
  -3445332.438 7  53144519.681 6  20761375.942 0  20761377.882 0
  -3394465.418 7  -2488701.087 7  21775912.341 0  21775913.472 0
 -19237520.747 6 -14764949.940 6  20266700.108 0  20266700.796 0
 88  2 27  8  6 59.0800000  0  4  3 13 11  9
   -390236.302 7  84106521.668 6  24062369.197 0  24062374.027 0
  -3458703.001 7  53134101.083 6  20758832.722 0  20758833.934 0
  -3334547.985 7  -2442012.167 7  21787313.174 0  21787316.428 0
 -19198927.159 7 -14734877.011 6  20274043.944 0  20274044.414 0
 88  2 27  8  7 29.0800000  0  4  3 13 11  9
   -467617.178 7  84046224.887 7  24047645.923 0  24047648.369 0
  -3471688.060 7  53123982.856 6  20756361.455 0  20756362.593 0
  -3274481.569 7  -2395207.177 7  21798742.508 0  21798746.218 0
 -19159687.461 7 -14704300.629 6  20281511.336 0  20281512.466 0
 88  2 27  8  7 59.0800000  0  4  3 13 11  9
   -544774.637 7  83986102.217 6  24032963.003 0  24032965.135 0
  -3484289.118 6  53114163.850 6  20753962.500 0  20753965.152 0
  -3214268.078 7  -2348287.556 7  21810202.165 0  21810203.470 0
 -19119802.415 7 -14673221.370 6  20289101.316 0  20289103.060 0
 88  2 27  8  8 29.0800000  0  4  3 13 11  9
   -621708.617 7  83926153.649 7  24018321.895 0  24018325.895 0
  -3496507.480 7  53104643.064 6  20751637.485 0  20751639.957 0
  -3153909.611 7  -2301254.985 6  21821687.252 0  21821690.493 0
 -19079272.834 7 -14641639.870 6  20296813.311 0  20296814.825 0
 88  2 27  8  8 59.0800000  0  4  3 13 11  9
   -698419.089 6  83866379.280 7  24003725.116 0  24003729.487 0
  -3508344.584 7  53095419.359 6  20749386.246 0  20749387.232 0
  -3093408.144 7  -2254110.985 6  21833200.888 0  21833202.888 0
 -19038099.771 7 -14609556.968 6  20304649.024 0  20304650.938 0
 88  2 27  8  9 29.0800000  0  4  3 13 11  9
   -774905.477 7  83806779.507 6  23989169.827 0  23989173.911 0
  -3519801.074 8  53086492.255 6  20747204.928 0  20747207.072 0
  -3032765.221 7  -2206856.771 6  21844740.372 0  21844743.660 0
 -18996283.862 7 -14576973.156 6  20312605.761 0  20312606.621 0
 88  2 27  8  9 59.0800000  0  4  3 13 11  9
   -851167.175 7  83747354.834 7  23974659.073 0  23974661.692 0
  -3530878.488 7  53077860.509 6  20745097.515 0  20745100.224 0
  -2971983.063 7  -2159494.048 6  21856307.478 0  21856309.486 0
 -18953826.445 7 -14543889.479 6  20320683.470 0  20320686.701 0
 88  2 27  8 10 29.0800000  0  4  3 13 11  9
   -927204.063 7  83688105.340 7  23960188.495 0  23960191.922 0
  -3541578.526 7  53069522.838 6  20743061.183 0  20743062.835 0
  -2911063.295 8  -2112024.095 7  21867899.128 0  21867902.581 0
 -18910728.301 7 -14510306.519 5  20328886.542 0  20328887.840 0
 88  2 27  8 10 59.0800000  0  4  3 13 11  9
  -1003015.474 6  83629031.547 6  23945764.041 0  23945764.779 0
  -3551901.789 7  53061478.740 7  20741097.193 0  20741099.279 0
  -2850007.630 7  -2064448.253 7  21879517.750 0  21879520.993 0
 -18866990.382 6 -14476225.036 6  20337209.927 0  20337210.752 0
 88  2 27  8 11 29.0800000  0  4  3 13 11  9
  -1078601.852 7  83570133.080 7  23931379.260 0  23931381.656 0
  -3561850.361 7  53053726.631 6  20739203.384 0  20739205.596 0
  -2788818.450 7  -2016768.382 7  21891162.345 0  21891163.753 0
 -18822613.949 7 -14441646.008 6  20345654.065 0  20345654.949 0
 88  2 27  8 11 59.0800000  0  4  3 13 11  9
  -1153962.809 7  83511410.246 6  23917038.251 0  23917041.133 0
  -3571425.985 7  53046265.117 7  20737381.411 0  20737384.386 0
  -2727497.490 7  -1968985.826 7  21902830.715 0  21902834.092 0
 -18777600.593 6 -14406570.673 6  20354220.960 0  20354220.860 0
 88  2 27  8 12 29.0800000  0  4  3 13 11  9
  -1229097.396 7  83452863.838 6  23902740.011 0  23902744.577 0
  -3580629.076 7  53039093.876 7  20735630.487 0  20735632.615 0
  -2666046.627 7  -1921102.056 7  21914525.111 0  21914527.430 0
 -18731950.792 6 -14370999.394 6  20362906.211 0  20362908.255 0
 88  2 27  8 12 59.0800000  0  4  3 13 11  9
  -1304005.537 7  83394493.894 7  23888486.423 0  23888488.821 0
  -3589461.184 7  53032211.732 6  20733950.344 0  20733952.570 0
  -2604467.796 7  -1873118.544 7  21926242.419 0  21926245.051 0
 -18685665.830 7 -14334933.204 6  20371713.875 0  20371714.986 0
 88  2 27  8 13 29.0800000  0  4  3 13 11  9
  -1378687.381 7  83336300.270 7  23874274.828 0  23874277.147 0
  -3597924.140 7  53025617.230 6  20732339.565 0  20732340.910 0
  -2542762.729 7  -1825036.675 6  21937985.747 0  21937986.864 0
 -18638746.979 7 -14298373.050 6  20380642.235 0  20380643.865 0
 88  2 27  8 13 59.0800000  0  4  3 13 11  9
  -1453142.723 6  83278283.141 6  23860105.807 0  23860108.483 0
  -3606019.369 7  53019309.268 7  20730798.398 0  20730800.550 0
  -2480933.574 7  -1776858.106 7  21949752.235 0  21949752.740 0
 -18591195.521 7 -14261319.976 6  20389689.980 0  20389692.822 0
 88  2 27  8 14 29.0800000  0  4  3 13 11  9
  -1527370.919 7  83220443.000 7  23845980.888 0  23845982.777 0
  -3613748.261 7  53013286.750 6  20729327.194 0  20729329.776 0
  -2418981.700 7  -1728583.923 7  21961539.393 0  21961542.309 0
 -18543012.444 7 -14223774.731 6  20398860.739 0  20398861.924 0
 88  2 27  8 14 59.0800000  0  4  3 13 11  9
  -1601371.499 7  83162780.195 7  23831899.292 0  23831902.818 0
  -3621111.531 7  53007549.148 7  20727926.999 0  20727928.109 0
  -2356908.868 7  -1680215.488 7  21973352.052 0  21973353.570 0
 -18494199.025 8 -14185738.309 6  20408149.377 0  20408149.847 0
 88  2 27  8 15 29.0800000  0  4  3 13 11  9
  -1675144.324 7  83105294.888 6  23817859.968 0  23817863.609 0
  -3628110.892 7  53002095.121 7  20726594.616 0  20726596.530 0
  -2294717.067 7  -1631754.348 7  21985187.674 0  21985189.088 0
 -18444756.737 7 -14147211.886 5  20417557.626 0  20417559.769 0
 88  2 27  8 15 59.0800000  0  4  3 13 11  9
  -1748689.469 7  83047987.017 6  23803865.449 0  23803868.040 0
  -3634748.053 7  52996923.318 6  20725331.754 0  20725333.414 0
  -2232408.538 7  -1583202.227 7  21997044.607 0  21997044.486 0
 -18394687.112 7 -14108196.596 6  20427086.317 0  20427086.145 0
 88  2 27  8 16 29.0800000  0  4  3 13 11  9
  -1822006.532 7  82990856.840 6  23789914.328 0  23789915.894 0
  -3641023.909 7  52992033.052 7  20724137.312 0  20724139.783 0
  -2169984.445 7  -1534560.078 6  22008922.503 0  22008924.575 0
 -18343990.899 7 -14068693.052 6  20436733.058 0  20436733.970 0
 88  2 27  8 16 59.0800000  0  4  3 13 11  9
  -1895095.346 7  82933904.512 6  23776005.436 0  23776008.197 0
  -3646940.387 7  52987422.832 6  20723010.959 0  20723013.457 0
  -2107446.707 7  -1485829.376 6  22020822.532 0  22020825.077 0
 -18292669.923 7 -14028702.708 6  20446499.465 0  20446500.105 0
 88  2 27  8 17 29.0800000  0  4  3 13 11  9
  -1967955.569 7  82877130.322 7  23762141.726 0  23762143.579 0
  -3652498.971 6  52983091.481 7  20721953.876 0  20721955.275 0
  -2044797.458 7  -1437011.784 7  22032745.880 0  22032747.619 0
 -18240725.528 7 -13988226.559 7  20456383.067 0  20456384.695 0
 88  2 27  8 17 59.0800000  0  4  3 13 11  9
  -2040587.682 7  82820533.893 7  23748318.444 0  23748321.757 0
  -3657701.287 8  52979037.741 6  20720964.102 0  20720966.642 0
  -1982038.202 7  -1388108.448 6  22044688.579 0  22044690.144 0
 -18188159.316 7 -13947265.867 6  20466386.261 0  20466388.678 0
 88  2 27  8 18 29.0800000  0  4  3 13 11  9
  -2112990.980 7  82764115.768 7  23734540.001 0  23734543.892 0
  -3662548.438 7  52975260.746 6  20720040.492 0  20720044.227 0
  -1919170.808 7  -1339120.863 6  22056649.331 0  22056651.815 0
 -18134972.487 7 -13905821.588 6  20476508.096 0  20476509.538 0
 88  2 27  8 18 59.0800000  0  4  3 13 11  9
  -2185165.560 7  82707875.868 7  23720806.666 0  23720809.378 0
  -3667041.777 7  52971759.459 7  20719186.759 0  20719188.189 0
  -1856196.757 7  -1290050.169 6  22068633.250 0  22068636.610 0
 -18081166.400 7 -13863894.757 6  20486747.209 0  20486748.537 0
 88  2 27  8 19 29.0800000  0  4  3 13 11  9
  -2257111.231 7  82651814.312 7  23707115.029 0  23707119.821 0
  -3671182.545 7  52968532.888 6  20718399.165 0  20718400.303 0
  -1793117.904 6  -1240897.807 7  22080636.928 0  22080640.036 0
 -18026742.916 7 -13821486.854 6  20497103.871 0  20497105.813 0
 88  2 27  8 19 59.0800000  0  4  3 13 11  9
  -2328827.594 7  82595931.440 7  23693469.919 0  23693472.574 0
  -3674972.145 7  52965579.954 7  20717677.193 0  20717678.869 0
  -1729936.005 7  -1191665.168 7  22092660.988 0  22092663.953 0
 -17971703.197 7 -13778598.752 7  20507576.597 0  20507578.281 0
 88  2 27  8 20 29.0800000  0  4  3 13 11  9
  -2400314.829 7  82540227.073 7  23679863.759 0  23679868.316 0
  -3678413.058 7  52962898.723 6  20717022.243 0  20717023.801 0
  -1666653.039 7  -1142353.767 7  22104702.366 0  22104706.298 0
 -17916049.169 7 -13735231.995 5  20518167.714 0  20518168.168 0
 88  2 27  8 20 59.0800000  0  4  3 13 11  9
  -2471572.856 7  82484701.358 7  23666305.677 0  23666309.276 0
  -3681506.277 7  52960488.425 7  20716433.187 0  20716436.386 0
  -1603270.444 7  -1092964.747 7  22116764.511 0  22116767.235 0
 -17859782.441 7 -13691387.791 6  20528874.609 0  20528875.795 0
 88  2 27  8 21 29.0800000  0  4  3 13 11  9
  -2542601.381 7  82429354.478 7  23652789.248 0  23652791.503 0
  -3684253.448 7  52958347.803 6  20715911.637 0  20715913.097 0
  -1539789.927 6  -1043499.420 7  22128844.523 0  22128845.959 0
 -17802904.516 7 -13647067.368 6  20539698.637 0  20539700.550 0
 88  2 27  8 21 59.0800000  0  4  3 13 11  9
  -2613399.963 7  82374186.782 6  23639316.800 0  23639318.753 0
  -3686655.908 7  52956475.758 7  20715452.862 0  20715456.107 0
  -1476213.073 7   -993959.008 6  22140941.147 0  22140945.195 0
 -17745416.997 7 -13602271.901 6  20550638.959 0  20550638.756 0
 88  2 27  8 22 29.0800000  0  4  3 13 11  9
  -2683968.504 7  82319198.309 6  23625887.681 0  23625890.110 0
  -3688715.169 8  52954871.150 6  20715062.123 0  20715063.434 0
  -1412541.451 7   -944344.755 7  22153058.177 0  22153061.885 0
 -17687321.561 7 -13557002.762 6  20561692.865 0  20561694.778 0
 88  2 27  8 22 59.0800000  0  4  3 13 11  9
  -2754307.319 7  82264388.857 7  23612500.716 0  23612505.360 0
  -3690432.770 7  52953532.765 7  20714735.377 0  20714736.661 0
  -1348776.872 7   -894658.070 7  22165192.088 0  22165195.813 0
 -17628619.888 7 -13511261.201 6  20572863.776 0  20572865.020 0
 88  2 27  8 23 29.0800000  0  4  3 13 11  9
  -2824416.768 7  82209758.143 7  23599159.910 0  23599165.254 0
  -3691810.755 7  52952459.034 6  20714472.648 0  20714475.319 0
  -1284921.907 7   -844900.958 7  22177344.893 0  22177346.857 0
 -17569314.093 7 -13465048.886 6  20584149.536 0  20584150.392 0
 88  2 27  8 23 59.0800000  0  4  3 13 11  9
  -2894296.223 7  82155306.633 7  23585862.250 0  23585867.659 0
  -3692850.429 7  52951648.909 6  20714275.878 0  20714276.507 0
  -1220977.299 7   -795073.991 7  22189511.934 0  22189514.327 0
 -17509405.393 7 -13418366.801 7  20595549.338 0  20595550.753 0
 88  2 27  8 24 29.0800000  0  4  3 13 11  9
  -2963945.496 7  82101034.505 7  23572608.495 0  23572612.158 0
  -3693552.902 7  52951101.536 6  20714140.427 0  20714143.566 0
  -1156944.954 7   -745178.660 7  22201697.117 0  22201700.583 0
 -17448896.034 7 -13371216.631 7  20607065.446 0  20607065.929 0
 88  2 27  8 24 59.0800000  0  4  3 13 11  9
  -3033364.910 7  82046941.457 7  23559399.485 0  23559401.880 0
  -3693919.805 7  52950815.656 6  20714072.869 0  20714073.189 0
  -1092826.209 7   -695215.999 7  22213898.544 0  22213901.111 0
 -17387787.449 7 -13323599.540 6  20618692.150 0  20618694.064 0
 88  2 27  8 25 29.0800000  0  4  3 13 11  9
  -3102554.344 7  81993027.627 7  23546232.682 0  23546236.024 0
  -3693953.135 7  52950789.683 6  20714063.765 0  20714067.247 0
  -1028622.806 7   -645187.371 6  22226114.886 0  22226118.708 0
 -17326082.256 7 -13275517.592 7  20630434.685 0  20630436.643 0
 88  2 27  8 25 59.0800000  0  4  3 13 11  9
  -3171513.576 7  81939293.191 6  23533110.779 0  23533114.185 0
  -3693653.972 7  52951022.830 6  20714121.778 0  20714122.901 0
   -964336.171 7   -595093.918 6  22238349.160 0  22238350.831 0
 -17263781.224 8 -13226971.343 7  20642291.037 0  20642291.521 0
 88  2 27  8 26 29.0800000  0  4  3 13 11  9
  -3240242.505 7  81885738.195 7  23520032.163 0  23520034.788 0
  -3693023.948 7  52951513.737 6  20714242.427 0  20714244.890 0
   -899968.222 7   -544937.074 6  22250597.914 0  22250600.714 0
 -17200886.285 7 -13177962.300 6  20654259.459 0  20654260.499 0
 88  2 27  8 26 59.0800000  0  4  3 13 11  9
  -3308741.249 7  81832362.569 7  23506996.518 0  23506999.894 0
  -3692064.378 7  52952261.483 6  20714423.363 0  20714426.668 0
   -835520.620 7   -494718.168 7  22262863.101 0  22262864.440 0
 -17137400.058 7 -13128492.545 7  20666339.092 0  20666340.805 0
 88  2 27  8 27 29.0800000  0  4  3 13 11  9
  -3377009.736 7  81779166.373 7  23494004.257 0  23494008.614 0
  -3690777.083 7  52953264.590 6  20714669.280 0  20714671.027 0
   -770994.518 7   -444438.063 7  22275141.270 0  22275144.022 0
 -17073323.759 7 -13078562.968 6  20678533.425 0  20678534.555 0
 88  2 27  8 27 59.0800000  0  4  3 13 11  9
  -3445048.006 7  81726149.561 6  23481059.393 0  23481062.428 0
  -3689163.561 7  52954521.880 6  20714975.545 0  20714978.709 0
   -706391.754 7   -394098.251 7  22287434.986 0  22287437.007 0
 -17008659.996 7 -13028175.631 7  20690839.129 0  20690839.769 0
 88  2 27  8 28 29.0800000  0  4  3 13 11  9
  -3512856.279 7  81673311.988 6  23468155.207 0  23468157.094 0
  -3687225.811 8  52956031.850 6  20715345.005 0  20715346.552 0
   -641713.920 6   -343699.935 6  22299743.275 0  22299744.712 0
 -16943410.374 7 -12977331.779 6  20703255.242 0  20703255.970 0
 88  2 27  8 28 59.0800000  0  4  3 13 11  9
  -3580434.465 7  81620653.683 6  23455295.880 0  23455298.783 0
  -3684965.242 8  52957793.318 6  20715774.978 0  20715777.756 0
   -576962.622 7   -293244.371 7  22312063.580 0  22312066.618 0
 -16877577.134 7 -12926033.151 6  20715783.324 0  20715783.580 0
 88  2 27  8 29 29.0800000  0  4  3 13 11  9
  -3647782.480 7  81568174.758 7  23442481.165 0  23442483.263 0
  -3682383.223 7  52959805.308 6  20716266.779 0  20716267.745 0
   -512139.072 7   -242732.498 7  22324399.660 0  22324402.083 0
 -16811161.904 7 -12874281.022 6  20728421.130 0  20728422.000 0
 88  2 27  8 29 59.0800000  0  4  3 13 11  9
  -3714900.653 6  81515874.908 7  23429707.529 0  23429710.513 0
  -3679481.236 7  52962066.612 6  20716820.166 0  20716820.757 0
   -447245.203 7   -192165.863 7  22336748.961 0  22336751.537 0
 -16744167.087 7 -12822077.282 6  20741170.060 0  20741171.375 0
 88  2 27  8 30 29.0800000  0  4  3 13 11  9
  -3781789.136 7  81463754.021 6  23416978.786 0  23416982.085 0
  -3676261.799 7  52964575.261 6  20717431.500 0  20717433.561 0
   -382282.908 7   -141545.894 6  22349110.175 0  22349113.302 0
 -16676595.012 7 -12769423.709 6  20754028.012 0  20754029.669 0
 88  2 27  8 30 59.0800000  0  4  3 13 11  9
  -3848447.647 7  81411812.306 7  23404294.331 0  23404297.021 0
  -3672725.975 7  52967330.473 6  20718104.166 0  20718106.482 0
   -317253.203 7    -90873.393 6  22361486.638 0  22361488.820 0
 -16608447.186 7 -12716321.550 6  20766997.061 0  20766997.260 0
 88  2 27  8 31 29.0800000  0  4  3 13 11  9
  -3914876.491 6  81360049.583 6  23391653.690 0  23391655.693 0
  -3668875.675 8  52970330.727 6  20718837.028 0  20718837.763 0
   -252157.473 6    -40149.448 6  22373873.112 0  22373874.357 0
 -16539726.402 7 -12662772.887 6  20780072.915 0  20780073.743 0
 88  2 27  8 31 59.0800000  0  4  3 13 11  9
  -3981075.720 7  81308465.805 7  23379055.798 0  23379058.954 0
  -3664712.270 7  52973574.947 6  20719629.125 0  20719630.866 0
   -186997.552 7     10624.526 7  22386272.313 0  22386274.041 0
 -16470434.509 6 -12608779.216 6  20793260.036 0  20793260.605 0
 88  2 27  8 32 29.0800000  0  4  3 13 11  9
  -4047045.531 7  81257060.802 6  23366502.937 0  23366504.953 0
  -3660237.503 7  52977061.797 7  20720481.053 0  20720483.140 0
   -121774.814 7     61447.436 6  22398683.086 0  22398685.564 0
 -16400573.615 7 -12554342.180 7  20806553.416 0  20806556.504 0
 88  2 27  8 32 59.0800000  0  4  3 13 11  9
  -4112785.380 7  81205834.962 6  23353991.351 0  23353995.365 0
  -3655452.732 6  52980790.191 7  20721391.385 0  20721392.960 0
    -56490.795 7    112318.105 7  22411107.214 0  22411108.646 0
 -16330145.714 7 -12499463.308 7  20819955.706 0  20819957.261 0
 88  2 27  8 33 29.0800000  0  4  3 13 11  9
  -4178295.412 7  81154788.208 6  23341526.434 0  23341528.120 0
  -3650359.114 7  52984759.256 6  20722360.302 0  20722362.332 0
      8853.575 7    163235.794 6  22423540.986 0  22423543.339 0
 -16259152.803 7 -12444144.166 7  20833466.399 0  20833466.769 0
 88  2 27  8 33 59.0800000  0  4  3 13 11  9
  -4243576.295 7  81103919.997 6  23329102.691 0  23329107.033 0
  -3644958.886 7  52988967.233 6  20723387.667 0  20723390.490 0
     74256.319 7    214198.981 7  22435987.106 0  22435988.414 0
 -16187597.696 7 -12388386.934 7  20847081.423 0  20847083.023 0
 88  2 27  8 34 29.0800000  0  4  3 13 11  9
  -4308628.309 7  81053230.133 7  23316723.787 0  23316728.008 0
  -3639253.710 8  52993412.840 6  20724473.948 0  20724475.767 0
    139715.906 7    265206.446 7  22448444.025 0  22448446.428 0
 -16115482.997 7 -12332193.678 7  20860804.852 0  20860806.023 0
 88  2 27  8 34 59.0800000  0  4  3 13 11  9
  -4373451.990 8  81002718.199 6  23304390.249 0  23304391.502 0
  -3633245.542 7  52998094.533 7  20725617.237 0  20725620.007 0
    205231.239 7    316257.360 7  22460911.523 0  22460913.233 0
 -16042810.480 7 -12275565.727 7  20874633.985 0  20874636.142 0
 88  2 27  8 35 29.0800000  0  4  3 13 11  9
  -4438046.699 7  80952384.686 7  23292097.273 0  23292098.597 0
  -3626935.231 8  53003011.660 7  20726817.756 0  20726820.440 0
    270801.036 7    367350.709 7  22473389.128 0  22473389.754 0
 -15969582.232 7 -12218504.762 7  20888568.774 0  20888569.114 0
 88  2 27  8 35 59.0800000  0  4  3 13 11  9
  -4502412.551 7  80902229.500 6  23279848.569 0  23279852.072 0
  -3620324.590 7  53008162.816 6  20728076.002 0  20728078.026 0
    336423.509 6    418485.099 7  22485876.497 0  22485878.019 0
 -15895800.639 7 -12161012.605 6  20902608.852 0  20902609.724 0
 88  2 27  8 36 29.0800000  0  4  3 13 11  9
  -4566549.939 7  80852252.322 6  23267644.729 0  23267645.675 0
  -3613415.755 7  53013546.319 7  20729390.648 0  20729392.704 0
    402097.196 7    469659.391 6  22498372.681 0  22498375.487 0
 -15821468.277 7 -12103091.301 6  20916753.387 0  20916754.670 0
 88  2 27  8 36 59.0800000  0  4  3 13 11  9
  -4630458.852 7  80802453.181 7  23255482.781 0  23255484.869 0
  -3606210.279 7  53019160.976 7  20730761.377 0  20730764.573 0
    467821.033 7    520872.769 7  22510879.435 0  22510882.748 0
 -15746587.504 7 -12044742.679 6  20931002.508 0  20931003.878 0
 88  2 27  8 37 29.0800000  0  4  3 13 11  9
  -4694139.543 7  80752831.892 7  23243364.747 0  23243366.378 0
  -3598709.467 8  53025005.783 7  20732188.894 0  20732191.051 0
    533593.545 7    572124.065 6  22523396.753 0  22523399.804 0
 -15671160.406 8 -11985968.338 6  20945356.085 0  20945355.968 0
 88  2 27  8 37 59.0800000  0  4  3 13 11  9
  -4757592.152 7  80703388.316 7  23231288.860 0  23231292.454 0
  -3590915.052 8  53031079.339 7  20733672.109 0  20733674.320 0
    599413.200 7    623412.117 7  22535922.171 0  22535924.603 0
 -15595189.948 7 -11926770.591 6  20959813.177 0  20959813.691 0
 88  2 27  8 38 29.0800000  0  4  3 13 11  9
  -4820816.971 6  80654122.234 7  23219257.721 0  23219261.713 0
  -3582828.985 7  53037380.171 7  20735211.985 0  20735213.903 0
    665278.789 7    674735.948 6  22548455.145 0  22548456.781 0
 -15518678.169 7 -11867151.031 6  20974373.006 0  20974374.090 0
 88  2 27  8 38 59.0800000  0  4  3 13 11  9
  -4883813.817 7  80605033.794 6  23207269.858 0  23207273.722 0
  -3574452.214 7  53043907.554 7  20736804.369 0  20736807.159 0
    731189.387 7    726094.846 7  22560997.321 0  22560999.982 0
 -15441627.277 7 -11807111.383 7  20989034.633 0  20989036.548 0
 88  2 27  8 39 29.0800000  0  4  3 13 11  9
  -4946583.345 7  80556122.475 7  23195325.339 0  23195329.174 0
  -3565786.607 7  53050659.965 6  20738453.412 0  20738455.798 0
    797143.316 7    777487.517 7  22573548.910 0  22573550.084 0
 -15364039.926 7 -11746653.714 6  21003799.886 0  21003801.141 0
 88  2 27  8 39 59.0800000  0  4  3 13 11  9
  -5009125.691 7  80507388.197 7  23183424.383 0  23183426.866 0
  -3556833.772 7  53057636.207 7  20740157.188 0  20740160.091 0
    863139.203 7    828912.880 7  22586106.127 0  22586108.350 0
 -15285918.594 7 -11685779.966 6  21018665.001 0  21018666.618 0
 88  2 27  8 40 29.0800000  0  4  3 13 11  9
  -5071441.038 7  80458830.805 6  23171565.111 0  23171569.373 0
  -3547595.937 7  53064834.532 7  20741916.812 0  20741916.945 0
    929175.896 8    880370.037 7  22598673.263 0  22598674.687 0
 -15207266.055 7 -11624492.276 7  21033632.559 0  21033632.944 0
 88  2 27  8 40 59.0800000  0  4  3 13 11  9
  -5133529.784 7  80410449.989 6  23159750.866 0  23159754.023 0
  -3538074.672 8  53072253.693 7  20743727.996 0  20743729.706 0
    995251.554 7    931857.552 7  22611246.867 0  22611249.757 0
 -15128084.623 7 -11562792.460 7  21048700.152 0  21048702.038 0
 88  2 27  8 41 29.0800000  0  4  3 13 11  9
  -5195392.091 6  80362245.653 6  23147978.699 0  23147982.607 0
  -3528271.346 7  53079892.658 6  20745594.440 0  20745594.650 0
   1061365.250 7    983374.722 7  22623827.975 0  22623830.210 0
 -15048376.853 7 -11500682.510 7  21063867.207 0  21063869.809 0
 88  2 27  8 41 59.0800000  0  4  3 13 11  9
  -5257028.142 7  80314217.566 6  23136250.000 0  23136251.897 0
  -3518187.420 7  53087750.251 6  20747512.393 0  20747512.605 0
   1127515.807 7   1034920.612 7  22636415.448 0  22636418.003 0
 -14968145.298 7 -11438164.417 6  21079134.913 0  21079136.569 0
 88  2 27  8 42 29.0800000  0  4  3 13 11  9
  -5318438.345 6  80266365.485 7  23124563.353 0  23124567.065 0
  -3507824.589 7  53095825.207 6  20749484.353 0  20749485.979 0
   1193701.607 7   1086493.976 7  22649011.211 0  22649012.536 0
 -14887392.515 7 -11375240.166 6  21094502.183 0  21094503.180 0
 88  2 27  8 42 59.0800000  0  4  3 13 11  9
  -5379623.307 7  80218688.925 7  23112920.177 0  23112923.984 0
  -3497185.040 8  53104115.760 6  20751508.712 0  20751511.665 0
   1259921.357 7   1138093.775 7  22661612.055 0  22661614.540 0
 -14806121.532 8 -11311912.135 6  21109967.914 0  21109969.156 0
 88  2 27  8 43 29.0800000  0  4  3 13 11  9
  -5440582.564 7  80171188.215 7  23101320.680 0  23101323.769 0
  -3486270.087 8  53112620.934 7  20753585.702 0  20753588.554 0
   1326174.278 7   1189719.412 7  22674220.173 0  22674222.169 0
 -14724334.407 7 -11248181.923 7  21125530.504 0  21125532.633 0
 88  2 27  8 43 59.0800000  0  4  3 13 11  9
  -5501316.703 7  80123862.933 7  23089762.151 0  23089766.334 0
  -3475082.107 7  53121338.833 6  20755715.374 0  20755716.698 0
   1392458.798 7   1241369.683 7  22686833.229 0  22686835.608 0
 -14642033.984 8 -11184051.733 6  21141192.901 0  21141193.586 0
 88  2 27  8 44 29.0800000  0  4  3 13 11  9
  -5561826.810 7  80076712.243 6  23078248.703 0  23078251.815 0
  -3463622.903 7  53130268.094 6  20757894.645 0  20757896.706 0
   1458773.489 8   1293043.462 7  22699452.154 0  22699453.896 0
 -14559223.534 7 -11119524.132 7  21156951.227 0  21156952.440 0
 88  2 27  8 44 59.0800000  0  4  3 13 11  9
  -5622112.282 7  80029736.570 7  23066775.999 0  23066777.995 0
  -3451893.397 7  53139407.975 7  20760128.424 0  20760129.809 0
   1525117.659 7   1344740.212 7  22712076.315 0  22712079.873 0
 -14475905.106 7 -11054600.707 7  21172806.424 0  21172807.481 0
 88  2 27  8 45 29.0800000  0  4  3 13 11  9
  -5682173.391 7  79982935.740 6  23055348.105 0  23055349.250 0
  -3439894.595 7  53148757.692 7  20762410.750 0  20762412.966 0
   1591489.919 7   1396458.882 6  22724707.106 0  22724709.689 0
 -14392081.176 7 -10989283.379 7  21188756.737 0  21188758.852 0
 88  2 27  8 45 59.0800000  0  4  3 13 11  9
  -5742010.585 7  79936309.380 7  23043960.920 0  23043963.111 0
  -3427628.632 8  53158315.587 7  20764744.475 0  20764746.243 0
   1657889.221 7   1448198.596 7  22737342.016 0  22737345.028 0
 -14307754.529 7 -10923574.308 7  21204803.263 0  21204804.950 0
 88  2 27  8 46 29.0800000  0  4  3 13 11  9
  -5801624.510 6  79889857.009 6  23032616.070 0  23032619.470 0
  -3415097.587 7  53168080.031 7  20767129.251 0  20767131.442 0
   1724313.930 7   1499958.093 7  22749983.352 0  22749985.368 0
 -14222928.339 8 -10857475.989 7  21220945.363 0  21220946.433 0
 88  2 27  8 46 59.0800000  0  4  3 13 11  9
  -5861015.032 7  79843578.686 6  23021315.141 0  23021318.690 0
  -3402303.095 7  53178049.785 7  20769564.357 0  20769566.668 0
   1790763.167 7   1551736.741 6  22762628.385 0  22762630.214 0
 -14137605.026 7 -10790990.286 6  21237182.560 0  21237184.331 0
 88  2 27  8 47 29.0800000  0  4  3 13 11  9
  -5920183.029 7  79797473.760 7  23010054.889 0  23010058.013 0
  -3389246.423 7  53188223.798 6  20772048.135 0  20772051.305 0
   1857235.894 7   1603533.666 6  22775276.829 0  22775278.271 0
 -14051787.194 8 -10724119.254 6  21253512.782 0  21253513.522 0
 88  2 27  8 47 59.0800000  0  4  3 13 11  9
  -5979128.317 7  79751542.384 7  22998838.426 0  22998841.795 0
  -3375929.641 7  53198600.524 6  20774582.957 0  20774585.043 0
   1923730.644 7   1655347.747 7  22787930.390 0  22787931.804 0
 -13965477.874 7 -10656865.248 7  21269936.555 0  21269939.071 0
 88  2 27  8 48 29.0800000  0  4  3 13 11  9
  -6037851.618 7  79705784.001 7  22987664.092 0  22987666.429 0
  -3362354.293 8  53209178.721 7  20777167.271 0  20777167.618 0
   1990246.387 7   1707178.199 6  22800587.722 0  22800589.891 0
 -13878679.692 8 -10589230.307 7  21286454.642 0  21286456.427 0
 88  2 27  8 48 59.0800000  0  4  3 13 11  9
  -6096353.098 7  79660198.489 6  22976531.417 0  22976533.664 0
  -3348521.936 7  53219957.173 7  20779797.231 0  20779800.869 0
   2056782.258 7   1759024.326 7  22813249.229 0  22813250.833 0
 -13791395.187 7 -10521216.410 6  21303063.534 0  21303065.679 0
 88  2 27  8 49 29.0800000  0  4  3 13 11  9
  -6154632.563 7  79614785.968 7  22965441.134 0  22965443.317 0
  -3334433.609 7  53230935.102 7  20782480.605 0  20782481.572 0
   2123337.370 7   1810885.465 6  22825914.659 0  22825915.963 0
 -13703627.210 7 -10452825.773 6  21319765.080 0  21319767.622 0
 88  2 27  8 49 59.0800000  0  4  3 13 11  9
  -6212691.147 7  79569545.534 7  22954393.093 0  22954395.804 0
  -3320091.968 8  53242110.407 7  20785207.562 0  20785209.351 0
   2189909.981 7   1862760.246 6  22838583.810 0  22838585.144 0
 -13615379.261 8 -10384061.151 7  21336558.174 0  21336559.144 0
 88  2 27  8 50 29.0800000  0  4  3 13 11  9
  -6270529.319 7  79524476.857 6  22943387.492 0  22943388.815 0
  -3305498.423 7  53253481.996 7  20787985.702 0  20787987.208 0
   2256499.200 7   1914647.936 6  22851254.672 0  22851256.686 0
 -13526653.652 8 -10314924.311 7  21353442.447 0  21353443.217 0
 88  2 27  8 50 59.0800000  0  4  3 13 11  9
  -6328146.844 7  79479580.087 6  22932422.129 0  22932424.195 0
  -3290654.664 8  53265048.582 6  20790810.146 0  20790811.688 0
   2323104.052 7   1966547.815 7  22863929.279 0  22863930.362 0
 -13437453.529 7 -10245417.729 6  21370416.767 0  21370416.867 0
 88  2 27  8 51 29.0800000  0  4  3 13 11  9
  -6385544.679 7  79434854.541 6  22921500.578 0  22921501.538 0
  -3275561.909 7  53276809.174 6  20793681.527 0  20793683.118 0
   2389723.327 6   2018458.926 7  22876605.703 0  22876607.602 0
 -13347781.641 7 -10175543.530 6  21387480.206 0  21387481.892 0
 88  2 27  8 51 59.0800000  0  4  3 13 11  9
  -6442723.037 7  79390300.013 6  22910620.348 0  22910621.465 0
  -3260222.101 7  53288762.261 6  20796600.252 0  20796603.569 0
   2456356.293 7   2070380.729 7  22889285.667 0  22889288.818 0
 -13257640.581 8 -10105303.764 5  21404634.265 0  21404635.520 0
 88  2 27  8 52 29.0800000  0  4  3 13 11  9
  -6499682.101 7  79345916.353 6  22899780.568 0  22899782.044 0
  -3244636.713 7  53300906.728 6  20799566.300 0  20799570.311 0
   2523002.065 7   2122312.498 7  22901967.709 0  22901970.825 0
 -13167033.538 7 -10034700.902 6  21421875.896 0  21421877.324 0
 88  2 27  8 52 59.0800000  0  4  3 13 11  9
  -6556422.508 8  79301703.083 7  22888982.902 0  22888985.469 0
  -3228807.193 8  53313241.435 6  20802579.292 0  20802579.543 0
   2589659.052 7   2174253.005 7  22914652.875 0  22914656.101 0
 -13075963.393 7  -9963737.150 7  21439206.387 0  21439206.815 0
 88  2 27  8 53 29.0800000  0  4  3 13 11  9
  -6612944.772 7  79257659.749 7  22878227.117 0  22878229.831 0
  -3212735.894 7  53325764.509 6  20805636.454 0  20805638.831 0
   2656326.534 7   2226201.686 6  22927339.210 0  22927340.650 0
 -12984433.112 7  -9892414.866 6  21456624.220 0  21456624.334 0
 88  2 27  8 53 59.0800000  0  4  3 13 11  9
  -6669249.540 7  79213785.934 7  22867511.650 0  22867514.877 0
  -3196424.172 7  53338474.943 7  20808741.148 0  20808744.660 0
   2723003.228 7   2278157.552 6  22940026.145 0  22940028.195 0
 -12892445.988 8  -9820736.605 7  21474128.010 0  21474129.797 0
 88  2 27  8 54 29.0800000  0  4  3 13 11  9
  -6725337.265 7  79170081.230 7  22856840.454 0  22856841.092 0
  -3179873.981 7  53351371.218 6  20811891.151 0  20811891.245 0
   2789688.177 7   2330119.846 7  22952717.267 0  22952718.960 0
 -12800004.727 7  -9748704.454 6  21491719.388 0  21491720.916 0
 88  2 27  8 54 59.0800000  0  4  3 13 11  9
  -6781208.288 7  79126545.373 7  22846207.186 0  22846210.221 0
  -3163086.646 7  53364452.248 6  20815085.173 0  20815086.884 0
   2856380.305 7   2382087.735 6  22965407.762 0  22965409.590 0
 -12707112.292 7  -9676320.740 7  21509396.789 0  21509397.431 0
 88  2 27  8 55 29.0800000  0  4  3 13 11  9
  -6836862.773 7  79083178.267 6  22835617.261 0  22835618.182 0
  -3146064.262 7  53377716.437 6  20818324.055 0  20818326.549 0
   2923078.720 7   2434060.524 7  22978100.752 0  22978102.343 0
 -12613771.645 7  -9603587.764 7  21527157.545 0  21527159.603 0
 88  2 27  8 55 59.0800000  0  4  3 13 11  9
  -6892300.855 7  79039979.797 6  22825067.185 0  22825068.714 0
  -3128807.676 7  53391163.140 6  20821608.385 0  20821609.720 0
   2989782.738 7   2486037.687 6  22990794.057 0  22990795.876 0
 -12519985.452 8  -9530507.607 6  21545005.755 0  21545006.885 0
 88  2 27  8 56 29.0800000  0  4  3 13 11  9
  -6947523.267 7  78996949.380 6  22814558.707 0  22814560.402 0
  -3111318.629 7  53404790.963 6  20824936.661 0  20824936.742 0
   3056491.174 7   2538018.279 6  23003488.664 0  23003489.859 0
 -12425757.030 7  -9457082.879 6  21562936.918 0  21562937.015 0
 88  2 27  8 56 59.0800000  0  4  3 13 11  9
  -7002530.573 7  78954086.582 7  22804091.896 0  22804093.866 0
  -3093598.611 8  53418598.791 6  20828308.613 0  20828310.825 0
   3123203.292 7   2590001.766 6  23016182.911 0  23016184.614 0
 -12331089.618 7  -9383316.083 7  21580950.688 0  21580952.174 0
 88  2 27  8 57 29.0800000  0  4  3 13 11  9
  -7057323.108 7  78911391.124 6  22793665.003 0  22793667.964 0
  -3075650.133 7  53432584.608 6  20831724.653 0  20831724.344 0
   3189917.827 7   2641987.109 7  23028878.523 0  23028878.760 0
 -12235986.521 7  -9309209.801 6  21599048.995 0  21599049.980 0
 88  2 27  8 57 59.0800000  0  4  3 13 11  9
  -7111901.642 6  78868862.411 7  22783278.832 0  22783281.652 0
  -3057474.331 7  53446747.582 6  20835181.786 0  20835184.188 0
   3256633.660 8   2693973.473 6  23041573.009 0  23041576.338 0
 -12140449.899 7  -9234765.707 6  21617229.424 0  21617229.721 0
 88  2 27  8 58 29.0800000  0  4  3 13 11  9
  -7166266.659 7  78826500.035 6  22772931.627 0  22772935.890 0
  -3039072.533 8  53461086.645 6  20838684.711 0  20838685.683 0
   3323350.025 7   2745960.255 6  23054268.790 0  23054271.898 0
 -12044483.494 7  -9159986.722 7  21635489.141 0  21635490.968 0
 88  2 27  8 58 59.0800000  0  4  3 13 11  9
  -7220418.532 7  78784303.775 6  22762629.243 0  22762631.483 0
  -3020446.677 7  53475600.326 7  20842227.970 0  20842230.523 0
   3390066.408 7   2797947.042 7  23066965.479 0  23066967.292 0
 -11948090.036 7  -9084874.933 7  21653832.749 0  21653833.862 0
 88  2 27  8 59 29.0800000  0  4  3 13 11  9
  -7274358.432 7  78742272.716 6  22752362.913 0  22752366.389 0
  -3001599.112 7  53490286.740 7  20845813.589 0  20845816.710 0
   3456781.124 7   2849932.525 7  23079661.359 0  23079662.161 0
 -11851273.265 7  -9009433.295 7  21672256.865 0  21672258.809 0
 88  2 27  8 59 59.0800000  0  4  3 13 11  9
  -7328086.233 6  78700406.930 6  22742140.717 0  22742143.192 0
  -2982531.072 8  53505144.960 6  20849444.321 0  20849446.086 0
   3523493.509 7   2901916.204 6  23092355.824 0  23092357.183 0
 -11754035.827 7  -8933663.852 6  21690759.521 0  21690762.224 0
 88  2 27  9  0 29.0800000  0  4  3 13 11  9
  -7381602.267 7  78658706.148 6  22731955.728 0  22731958.455 0
  -2963243.514 7  53520174.241 6  20853113.697 0  20853115.890 0
   3590203.077 7   2953897.693 7  23105049.930 0  23105051.350 0
 -11656380.675 7  -8857568.944 7  21709343.269 0  21709346.458 0
 88  2 27  9  0 59.0800000  0  4  3 13 11  9
  -7434907.113 7  78617169.938 6  22721813.451 0  22721814.323 0
  -2943738.200 7  53535373.183 6  20856826.135 0  20856827.431 0
   3656909.127 8   3005876.420 7  23117743.568 0  23117746.090 0
 -11558311.017 8  -8781151.032 7  21728006.118 0  21728007.674 0
 88  2 27  9  1 29.0800000  0  4  3 13 11  9
  -7488001.466 7  78575797.736 6  22711709.637 0  22711710.845 0
  -2924016.824 7  53550740.494 5  20860580.075 0  20860580.954 0
   3723610.404 7   3057851.453 7  23130436.581 0  23130439.615 0
 -11459829.749 7  -8704412.367 6  21746745.763 0  21746746.677 0
 88  2 27  9  1 59.0800000  0  4  3 13 11  9
  -7540885.536 8  78534589.375 7  22701646.145 0  22701648.271 0
  -2904080.858 7  53566275.024 6  20864372.479 0  20864374.994 0
   3790306.314 7   3109822.302 7  23143128.673 0  23143130.167 0
 -11360940.525 7  -8627355.819 6  21765563.280 0  21765565.209 0
 88  2 27  9  2 29.0800000  0  4  3 13 11  9
  -7593560.307 7  78493544.118 7  22691622.241 0  22691624.652 0
  -2883931.796 7  53581975.604 6  20868206.942 0  20868208.068 0
   3856995.971 7   3161788.269 7  23155818.801 0  23155821.431 0
 -11261646.098 7  -8549983.551 7  21784459.098 0  21784460.926 0
 88  2 27  9  2 59.0800000  0  4  3 13 11  9
  -7646026.265 7  78452661.580 7  22681637.779 0  22681639.412 0
  -2863571.524 7  53597840.746 6  20872081.528 0  20872082.876 0
   3923678.585 7   3213748.743 7  23168507.678 0  23168510.147 0
 -11161949.820 7  -8472298.157 7  21803430.351 0  21803432.823 0
 88  2 27  9  3 29.0800000  0  4  3 13 11  9
  -7698284.028 8  78411941.267 6  22671694.392 0  22671694.858 0
  -2843002.147 8  53613868.830 6  20875995.995 0  20875997.717 0
   3990353.446 6   3265703.160 7  23181194.930 0  23181197.255 0
 -11061854.873 6  -8394302.124 7  21822477.444 0  21822479.960 0
 88  2 27  9  3 59.0800000  0  4  3 13 11  9
  -7750333.572 7  78371383.210 6  22661789.024 0  22661790.221 0
  -2822224.437 7  53630059.266 6  20879949.482 0  20879950.558 0
   4057019.646 7   3317650.833 7  23193882.168 0  23193884.038 0
 -10961364.288 7  -8315997.794 6  21841601.322 0  21841601.963 0
 88  2 27  9  4 29.0800000  0  4  3 13 11  9
  -7802175.801 8  78330986.689 6  22651924.190 0  22651925.763 0
  -2801240.393 7  53646410.472 6  20883942.268 0  20883944.225 0
   4123676.131 7   3369590.948 6  23206565.357 0  23206568.469 0
 -10860481.399 7  -8237387.725 7  21860798.218 0  21860800.116 0
 88  2 27  9  4 59.0800000  0  4  3 13 11  9
  -7853811.617 8  78290751.013 7  22642097.945 0  22642101.329 0
  -2780051.375 7  53662921.394 7  20887975.168 0  20887977.489 0
   4190322.399 7   3421523.090 6  23219249.405 0  23219251.491 0
 -10759209.635 7  -8158474.683 7  21880069.522 0  21880070.935 0
 88  2 27  9  5 29.0800000  0  4  3 13 11  9
  -7905241.678 7  78250675.664 7  22632311.624 0  22632313.549 0
  -2758659.241 7  53679590.585 6  20892046.610 0  20892047.917 0
   4256957.656 7   3473446.654 7  23231927.979 0  23231930.725 0
 -10657551.937 7  -8079260.908 6  21899415.161 0  21899416.131 0
 88  2 27  9  5 59.0800000  0  4  3 13 11  9
  -7956465.884 8  78210760.728 7  22622563.506 0  22622565.582 0
  -2737065.145 7  53696417.159 7  20896154.344 0  20896155.745 0
   4323581.062 7   3525360.989 7  23244606.230 0  23244608.967 0
 -10555511.319 8  -7999748.727 6  21918832.435 0  21918832.677 0
 88  2 27  9  6 29.0800000  0  4  3 13 11  9
  -8007484.653 7  78171005.861 7  22612854.804 0  22612856.322 0
  -2715270.559 7  53713399.947 6  20900302.451 0  20900303.819 0
   4390192.329 6   3577265.871 7  23257283.144 0  23257285.581 0
 -10453091.051 7  -7919940.757 7  21938321.968 0  21938322.482 0
 88  2 27  9  6 59.0800000  0  4  3 13 11  9
  -8058298.817 7  78131410.425 6  22603185.511 0  22603186.657 0
  -2693277.035 7  53730537.742 6  20904487.598 0  20904489.739 0
   4456790.805 6   3629160.791 7  23269956.434 0  23269959.192 0
 -10350294.228 7  -7839839.345 7  21957882.991 0  21957887.008 0
 88  2 27  9  7 29.0800000  0  4  3 13 11  9
  -8108908.867 7  78091974.040 6  22593554.787 0  22593556.426 0
  -2671086.532 6  53747829.070 7  20908708.797 0  20908711.913 0
   4523375.182 7   3681044.716 7  23282625.527 0  23282628.939 0
 -10247124.854 6  -7759447.634 6  21977516.961 0  21977516.902 0
 88  2 27  9  7 59.0800000  0  4  3 13 11  9
  -8159315.519 7  78052696.169 6  22583961.998 0  22583963.980 0
  -2648700.984 7  53765272.360 6  20912969.343 0  20912971.480 0
   4589944.813 6   3732917.137 7  23295294.777 0  23295295.150 0
 -10143585.225 7  -7678767.433 7  21997219.015 0  21997220.543 0
 88  2 27  9  8 29.0800000  0  4  3 13 11  9
  -8209519.392 7  78013576.307 6  22574408.316 0  22574410.489 0
  -2626121.547 7  53782866.729 7  20917265.901 0  20917268.137 0
   4656498.979 6   3784777.568 6  23307959.359 0  23307960.237 0
 -10039679.183 7  -7597801.694 7  22016991.455 0  22016994.329 0
 88  2 27  9  8 59.0800000  0  4  3 13 11  9
  -8259521.395 7  77974613.735 6  22564893.195 0  22564895.991 0
  -2603349.738 7  53800611.022 7  20921601.081 0  20921602.721 0
   4723036.848 7   3836625.220 6  23320621.095 0  23320623.692 0
  -9935409.740 7  -7516552.783 7  22036832.838 0  22036835.654 0
 88  2 27  9  9 29.0800000  0  4  3 13 11  9
  -8309322.000 7  77935808.093 7  22555416.339 0  22555417.936 0
  -2580386.881 7  53818504.138 6  20925968.889 0  20925972.995 0
   4789558.145 6   3888460.008 7  23333279.017 0  23333281.235 0
  -9830780.818 7  -7435023.763 7  22056743.648 0  22056746.606 0
 88  2 27  9  9 59.0800000  0  4  3 13 11  9
  -8358921.997 7  77897158.755 7  22545978.781 0  22545980.620 0
  -2557234.011 7  53836545.344 6  20930374.098 0  20930377.207 0
   4856062.317 6   3940281.442 7  23345935.302 0  23345936.674 0
  -9725794.695 8  -7353216.411 7  22076721.984 0  22076723.470 0
 88  2 27  9 10 29.0800000  0  4  3 13 11  9
  -8408322.271 7  77858665.049 7  22536578.322 0  22536579.615 0
  -2533893.582 7  53854732.696 6  20934816.809 0  20934818.730 0
   4922548.308 6   3992088.680 7  23358587.729 0  23358589.192 0
  -9620455.733 7  -7271134.101 6  22096768.489 0  22096769.617 0
 88  2 27  9 10 59.0800000  0  4  3 13 11  9
  -8457523.027 7  77820326.821 7  22527214.614 0  22527216.403 0
  -2510366.883 7  53873065.193 6  20939293.182 0  20939295.487 0
   4989015.124 7   4043880.997 7  23371232.856 0  23371236.704 0
  -9514766.801 7  -7188779.083 6  22116879.756 0  22116881.844 0
 88  2 27  9 11 29.0800000  0  4  3 13 11  9
  -8506524.616 7  77782143.808 6  22517889.634 0  22517892.180 0
  -2486655.130 7  53891541.879 6  20943804.114 0  20943808.097 0
   5055462.611 6   4095658.250 7  23383879.443 0  23383881.622 0
  -9408731.036 6  -7106153.854 7  22137057.478 0  22137058.319 0
 88  2 27  9 11 59.0800000  0  4  3 13 11  9
  -8555328.077 7  77744115.196 7  22508602.689 0  22508604.294 0
  -2462760.027 7  53910161.448 6  20948352.653 0  20948355.714 0
   5121890.242 6   4147420.010 7  23396518.289 0  23396523.246 0
  -9302351.786 7  -7023260.923 6  22157300.118 0  22157303.505 0
 88  2 27  9 12 29.0800000  0  4  3 13 11  9
  -8603933.728 7  77706240.665 6  22499352.196 0  22499355.145 0
  -2438683.549 7  53928922.334 6  20952934.444 0  20952936.355 0
   5188297.266 6   4199165.733 6  23409156.199 0  23409158.650 0
  -9195632.303 7  -6940102.909 6  22177607.295 0  22177610.167 0
 88  2 27  9 12 59.0800000  0  4  3 13 11  9
  -8652342.094 7  77668519.874 6  22490140.889 0  22490144.255 0
  -2414427.213 7  53947823.371 6  20957552.546 0  20957551.312 0
   5254683.119 6   4250894.981 7  23421789.631 0  23421791.127 0
  -9088576.124 7  -6856682.512 7  22197981.020 0  22197982.161 0
 88  2 27  9 13 29.0800000  0  4  3 13 11  9
  -8700554.275 7  77630951.953 6  22480966.423 0  22480969.965 0
  -2389991.264 8  53966864.389 6  20962201.001 0  20962201.896 0
   5321047.026 7   4302607.099 6  23434418.835 0  23434420.691 0
  -8981186.551 7  -6773002.331 7  22218416.550 0  22218417.663 0
 88  2 27  9 13 59.0800000  0  4  3 13 11  9
  -8748570.356 7  77593536.857 6  22471831.077 0  22471832.451 0
  -2365377.630 7  53986043.847 6  20966884.346 0  20966884.964 0
   5387388.824 7   4354302.000 6  23447043.081 0  23447045.605 0
  -8873466.482 7  -6689064.631 6  22238915.253 0  22238916.241 0
 88  2 27  9 14 29.0800000  0  4  3 13 11  9
  -8796391.539 7  77556273.625 6  22462731.595 0  22462731.862 0
  -2340588.832 8  54005359.786 7  20971602.490 0  20971604.308 0
   5453707.736 7   4405979.097 7  23459661.817 0  23459665.069 0
  -8765419.808 6  -6604872.445 7  22259475.630 0  22259477.200 0
 88  2 27  9 14 59.0800000  0  4  3 13 11  9
  -8844018.475 7  77519161.771 6  22453667.044 0  22453669.712 0
  -2315625.314 7  54024811.874 6  20976352.408 0  20976354.273 0
   5520003.107 7   4457637.783 7  23472278.460 0  23472280.647 0
  -8657049.796 7  -6520428.298 6  22280097.994 0  22280099.523 0
 88  2 27  9 15 29.0800000  0  4  3 13 11  9
  -8891451.646 7  77482200.896 6  22444641.584 0  22444642.501 0
  -2290488.694 7  54044398.866 7  20981135.882 0  20981137.512 0
   5586274.706 7   4509278.012 7  23484890.408 0  23484891.897 0
  -8548359.384 7  -6435734.486 7  22300781.130 0  22300782.887 0
 88  2 27  9 15 59.0800000  0  4  3 13 11  9
  -8938691.535 7  77445390.612 6  22435650.811 0  22435653.594 0
  -2265180.036 7  54064119.894 6  20985950.674 0  20985952.920 0
   5652521.608 7   4560898.969 6  23497496.609 0  23497499.007 0
  -8439352.193 8  -6350793.818 7  22321524.992 0  22321525.946 0
 88  2 27  9 16 29.0800000  0  4  3 13 11  9
  -8985738.700 8  77408730.505 7  22426698.263 0  22426700.547 0
  -2239701.618 7  54083973.194 6  20990799.690 0  20990802.079 0
   5718743.454 7   4612500.402 7  23510096.735 0  23510099.710 0
  -8330031.455 7  -6265608.828 6  22342326.994 0  22342327.937 0
 88  2 27  9 16 59.0800000  0  4  3 13 11  9
  -9032594.089 7  77372219.834 6  22417782.514 0  22417784.923 0
  -2214054.480 7  54103957.992 6  20995680.340 0  20995681.810 0
   5784939.634 7   4664081.820 7  23522694.053 0  23522696.202 0
  -8220400.707 7  -6180182.252 6  22363189.637 0  22363190.881 0
 88  2 27  9 17 29.0800000  0  4  3 13 11  9
  -9079258.025 7  77335858.358 6  22408902.622 0  22408906.369 0
  -2188240.205 7  54124073.016 7  21000591.630 0  21000594.288 0
   5851109.983 7   4715643.119 6  23535286.537 0  23535288.435 0
  -8110462.984 6  -6094516.500 7  22384109.862 0  22384110.862 0
 88  2 27  9 17 59.0800000  0  4  3 13 11  9
  -9125732.015 6  77299644.862 6  22400058.072 0  22400059.704 0
  -2162260.466 7  54144316.967 6  21005535.780 0  21005538.099 0
   5917253.676 7   4767183.670 7  23547873.478 0  23547876.170 0
  -8000221.802 6  -6008614.319 7  22405087.980 0  22405088.995 0
 88  2 27  9 18 29.0800000  0  4  3 13 11  9
  -9172016.059 7  77263579.400 7  22391250.745 0  22391253.348 0
  -2136116.316 7  54164689.037 6  21010511.000 0  21010513.247 0
   5983370.327 7   4818703.128 7  23560454.104 0  23560457.695 0
  -7889680.836 7  -5922478.529 6  22426123.765 0  22426125.080 0
 88  2 27  9 18 59.0800000  0  4  3 13 11  9
  -9218110.708 7  77227661.518 7  22382479.209 0  22382482.400 0
  -2109808.922 7  54185188.329 6  21015516.766 0  21015519.183 0
   6049459.513 7   4870201.181 7  23573030.968 0  23573033.680 0
  -7778842.826 7  -5836111.262 6  22447215.458 0  22447216.716 0
 88  2 27  9 19 29.0800000  0  4  3 13 11  9
  -9264016.743 7  77191890.614 6  22373744.019 0  22373746.474 0
  -2083340.308 7  54205813.229 6  21020554.512 0  21020556.426 0
   6115520.487 7   4921677.256 6  23585600.943 0  23585604.133 0
  -7667711.994 7  -5749515.813 6  22468362.669 0  22468364.755 0
 88  2 27  9 19 59.0800000  0  4  3 13 11  9
  -9309734.938 7  77156266.083 6  22365044.344 0  22365046.555 0
  -2056711.118 7  54226563.236 6  21025620.140 0  21025622.941 0
   6181553.049 7   4973131.218 6  23598167.382 0  23598169.823 0
  -7556291.545 7  -5662694.698 7  22489565.528 0  22489566.398 0
 88  2 27  9 20 29.0800000  0  4  3 13 11  9
  -9355266.412 7  77120787.035 6  22356379.734 0  22356380.700 0
  -2029923.299 7  54247436.859 7  21030718.869 0  21030720.965 0
   6247556.785 7   5024562.703 6  23610727.533 0  23610728.528 0
  -7444584.625 8  -5575650.341 7  22510822.448 0  22510823.104 0
 88  2 27  9 20 59.0800000  0  4  3 13 11  9
  -9400611.574 7  77085453.161 6  22347750.869 0  22347752.556 0
  -2002978.132 7  54268433.091 6  21035846.501 0  21035848.054 0
   6313531.106 7   5075971.256 7  23623282.444 0  23623284.725 0
  -7332594.616 7  -5488385.405 7  22532133.412 0  22532135.185 0
 88  2 27  9 21 29.0800000  0  4  3 13 11  9
  -9445770.918 7  77050264.107 6  22339156.482 0  22339158.699 0
  -1975876.782 7  54289551.002 6  21041004.151 0  21041005.721 0
   6379475.576 8   5127356.556 7  23635831.208 0  23635833.404 0
  -7220325.032 7  -5400902.610 7  22553496.420 0  22553499.294 0
 88  2 27  9 21 59.0800000  0  4  3 13 11  9
  -9490745.042 7  77015219.354 6  22330599.319 0  22330601.836 0
  -1948620.934 7  54310789.337 7  21046189.948 0  21046192.268 0
   6445389.751 7   5178718.251 7  23648373.324 0  23648375.726 0
  -7107779.179 7  -5313204.558 7  22574913.789 0  22574915.460 0
 88  2 27  9 22 29.0800000  0  4  3 13 11  9
  -9535534.447 7  76980318.528 6  22322075.990 0  22322076.464 0
  -1921211.661 8  54332147.214 7  21051406.228 0  21051408.078 0
   6511273.357 7   5230056.136 7  23660910.281 0  23660914.091 0
  -6994960.289 7  -5225293.767 6  22596381.569 0  22596385.573 0
 88  2 27  9 22 59.0800000  0  4  3 13 11  9
  -9580140.405 7  76945560.676 6  22313588.306 0  22313588.923 0
  -1893650.628 7  54353623.340 7  21056650.890 0  21056652.221 0
   6577125.966 7   5281369.821 7  23673442.974 0  23673444.559 0
  -6881871.998 7  -5137173.045 6  22617902.579 0  22617904.566 0
 88  2 27  9 23 29.0800000  0  4  3 13 11  9
  -9624563.274 8  76910945.453 6  22305134.442 0  22305136.030 0
  -1865939.376 7  54375216.513 6  21061924.270 0  21061926.776 0
   6642947.293 7   5332659.168 6  23685967.116 0  23685969.883 0
  -6768517.833 7  -5048845.128 6  22639473.943 0  22639473.755 0
 88  2 27  9 23 59.0800000  0  4  3 13 11  9
  -9668804.006 8  76876472.174 6  22296716.451 0  22296717.388 0
  -1838078.910 7  54396925.972 6  21067226.016 0  21067227.612 0
   6708737.058 7   5383923.902 6  23698487.906 0  23698489.080 0
  -6654900.850 7  -4960312.406 6  22661094.295 0  22661095.817 0
 88  2 27  9 24 29.0800000  0  4  3 13 11  9
  -9712863.089 7  76842140.437 6  22288331.264 0  22288332.144 0
  -1810070.023 7  54418751.083 6  21072556.146 0  21072557.089 0
   6774494.765 7   5435163.689 6  23711000.160 0  23711003.118 0
  -6541024.525 7  -4871577.614 6  22682763.540 0  22682765.204 0
 88  2 27  9 24 59.0800000  0  4  3 13 11  9
  -9756741.502 7  76807949.485 6  22279979.733 0  22279983.646 0
  -1781914.667 7  54440690.326 6  21077914.140 0  21077914.358 0
   6840219.920 7   5486378.113 6  23723506.506 0  23723511.087 0
  -6426892.492 6  -4782643.573 6  22704482.749 0  22704483.818 0
 88  2 27  9 25 29.0800000  0  4  3 13 11  9
  -9800439.824 7  76773898.860 6  22271665.678 0  22271667.802 0
  -1753614.010 7  54462742.800 6  21083299.561 0  21083301.418 0
   6905912.422 7   5537567.065 7  23736007.857 0  23736010.651 0
  -6312507.623 6  -4693512.552 7  22726248.280 0  22726251.983 0
 88  2 27  9 25 59.0800000  0  4  3 13 11  9
  -9843958.365 7  76739988.308 5  22263384.302 0  22263386.529 0
  -1725169.772 8  54484907.148 6  21088711.996 0  21088713.331 0
   6971572.096 7   5588730.427 7  23748502.750 0  23748505.888 0
  -6197873.906 6  -4604187.601 7  22748062.679 0  22748064.593 0
 88  2 27  9 26 29.0800000  0  4  3 13 11  9
  -9887298.235 7  76706217.014 5  22255137.227 0  22255138.564 0
  -1696582.604 7  54507182.856 6  21094151.678 0  21094154.099 0
   7037198.191 6   5639867.617 7  23760991.714 0  23760993.818 0
  -6082994.541 7  -4514671.234 7  22769924.167 0  22769926.498 0
 88  2 27  9 26 59.0800000  0  4  3 13 11  9
  -9930459.903 7  76672584.550 6  22246923.780 0  22246925.261 0
  -1667853.770 8  54529568.945 6  21099618.600 0  21099620.090 0
   7102790.936 7   5690978.854 7  23773472.694 0  23773475.604 0
  -5967872.803 7  -4424965.971 7  22791830.512 0  22791832.406 0
 88  2 27  9 27 29.0800000  0  4  3 13 11  9
  -9973444.125 8  76639090.362 6  22238744.287 0  22238746.099 0
  -1638984.804 7  54552064.246 7  21105111.848 0  21105115.388 0
   7168349.672 7   5742063.580 7  23785948.691 0  23785951.123 0
  -5852512.387 7  -4335074.730 6  22813783.838 0  22813785.316 0
 88  2 27  9 27 59.0800000  0  4  3 13 11  9
 -10016251.605 7  76605733.886 6  22230598.221 0  22230599.645 0
  -1609977.111 7  54574667.668 6  21110632.356 0  21110633.688 0
   7233874.187 7   5793121.646 7  23798417.370 0  23798419.903 0
  -5736916.263 7  -4244999.844 7  22835781.050 0  22835782.057 0
 88  2 27  9 28 29.0800000  0  4  3 13 11  9
 -10058883.602 7  76572514.149 6  22222485.423 0  22222487.221 0
  -1580832.281 7  54597377.913 6  21116178.380 0  21116180.589 0
   7299363.829 7   5844152.553 7  23810880.075 0  23810881.857 0
  -5621088.902 7  -4154744.772 7  22857821.985 0  22857823.162 0
 88  2 27  9 28 59.0800000  0  4  3 13 11  9
 -10101340.376 7  76539430.964 7  22214405.867 0  22214408.164 0
  -1551551.438 8  54620194.148 6  21121750.297 0  21121751.930 0
   7364818.548 7   5895156.213 7  23823334.765 0  23823337.198 0
  -5505032.876 7  -4064311.529 6  22879906.705 0  22879908.329 0
 88  2 27  9 29 29.0800000  0  4  3 13 11  9
 -10143622.682 7  76506483.714 6  22206360.836 0  22206361.962 0
  -1522135.318 7  54643115.813 6  21127347.262 0  21127351.221 0
   7430238.200 6   5946132.544 7  23835784.195 0  23835786.911 0
  -5388751.896 7  -3973703.012 7  22902034.547 0  22902036.561 0
 88  2 27  9 29 59.0800000  0  4  3 13 11  9
 -10185731.167 8  76473671.918 6  22198347.346 0  22198348.786 0
  -1492585.320 8  54666141.790 6  21132971.855 0  21132972.484 0
   7495622.528 7   5997081.349 8  23848228.063 0  23848229.110 0
  -5272248.982 7  -3882921.533 6  22924204.957 0  22924206.495 0
 88  2 27  9 30 29.0800000  0  4  3 13 11  9
 -10227666.718 7  76440994.850 6  22190366.736 0  22190369.891 0
  -1462902.679 7  54689271.113 6  21138620.247 0  21138620.727 0
   7560971.245 6   6048002.462 7  23860664.186 0  23860664.100 0
  -5155528.106 7  -3791970.216 7  22946415.208 0  22946417.036 0
 88  2 27  9 30 59.0800000  0  4  3 13 11  9
 -10269429.779 7  76408452.218 6  22182420.269 0  22182422.196 0
  -1433088.777 7  54712502.730 6  21144294.039 0  21144294.024 0
   7626284.137 6   6098895.614 7  23873088.272 0  23873092.005 0
  -5038592.126 7  -3700851.270 7  22968666.600 0  22968669.159 0
 88  2 27  9 31 29.0800000  0  4  3 13 11  9
 -10311021.376 7  76376043.174 6  22174505.340 0  22174507.749 0
  -1403144.472 7  54735835.965 6  21149991.707 0  21149992.942 0
   7691560.747 6   6149760.488 7  23885511.300 0  23885514.244 0
  -4921444.843 6  -3609567.709 7  22990959.493 0  22990962.201 0
 88  2 27  9 31 59.0800000  0  4  3 13 11  9
 -10352442.118 7  76343767.281 6  22166623.707 0  22166625.245 0
  -1373071.208 7  54759269.670 6  21155714.086 0  21155714.554 0
   7756801.434 6   6200597.345 7  23897927.923 0  23897928.749 0
  -4804089.404 7  -3518121.924 6  23013290.388 0  23013293.911 0
 88  2 27  9 32 29.0800000  0  4  3 13 11  9
 -10393692.835 7  76311623.860 6  22158774.228 0  22158776.138 0
  -1342869.830 8  54782803.203 7  21161461.089 0  21161461.891 0
   7822005.804 6   6251405.924 7  23910334.787 0  23910337.463 0
  -4686529.010 7  -3426516.419 7  23035662.516 0  23035663.801 0
 88  2 27  9 32 59.0800000  0  4  3 13 11  9
 -10434773.766 7  76279612.727 6  22150956.314 0  22150957.651 0
  -1312542.383 7  54806434.985 6  21167232.556 0  21167234.525 0
   7887173.547 6   6302185.954 7  23922737.397 0  23922739.321 0
  -4568767.773 7  -3334754.424 7  23058072.135 0  23058074.607 0
 88  2 27  9 33 29.0800000  0  4  3 13 11  9
 -10475685.475 7  76247733.490 7  22143171.556 0  22143171.964 0
  -1282089.491 7  54830164.500 6  21173027.202 0  21173029.312 0
   7952304.541 6   6352937.368 7  23935129.384 0  23935133.090 0
  -4450808.921 7  -3242838.433 7  23080518.764 0  23080520.199 0
 88  2 27  9 33 59.0800000  0  4  3 13 11  9
 -10516429.482 7  76215984.925 6  22135418.450 0  22135418.984 0
  -1251512.550 7  54853990.686 7  21178847.026 0  21178847.710 0
   8017398.424 6   6403659.860 7  23947517.357 0  23947519.974 0
  -4332655.552 7  -3150770.888 7  23103002.538 0  23103004.539 0
 88  2 27  9 34 29.0800000  0  4  3 13 11  9
 -10557006.319 7  76184366.603 6  22127696.793 0  22127698.631 0
  -1220812.532 7  54877912.782 7  21184688.163 0  21184689.734 0
   8082455.210 6   6454353.447 7  23959897.479 0  23959899.479 0
  -4214311.291 6  -3058554.627 6  23125522.394 0  23125524.955 0
 88  2 27  9 34 59.0800000  0  4  3 13 11  9
 -10597416.750 7  76152877.953 7  22120005.945 0  22120008.098 0
  -1189991.270 7  54901929.341 6  21190552.052 0  21190554.671 0
   8147474.414 7   6505017.762 7  23972271.003 0  23972273.287 0
  -4095779.837 7  -2966192.470 7  23148078.502 0  23148080.010 0
 88  2 27  9 35 29.0800000  0  4  3 13 11  9
 -10637661.490 7  76121518.411 6  22112348.065 0  22112348.444 0
  -1159049.176 7  54926040.069 6  21196440.857 0  21196442.196 0
   8212456.071 6   6555652.804 7  23984636.477 0  23984638.047 0
  -3977064.095 6  -2873686.738 6  23170669.900 0  23170670.940 0
 88  2 27  9 35 59.0800000  0  4  3 13 11  9
 -10677741.084 7  76090287.574 6  22104721.265 0  22104722.246 0
  -1127987.297 7  54950244.118 7  21202353.157 0  21202353.392 0
   8277400.095 7   6606258.511 7  23996993.838 0  23996995.699 0
  -3858167.896 7  -2781040.345 7  23193294.391 0  23193296.549 0
 88  2 27  9 36 29.0800000  0  4  3 13 11  9
 -10717656.759 7  76059184.459 6  22097124.200 0  22097128.100 0
  -1096807.416 8  54974540.133 6  21208285.790 0  21208287.125 0
   8342305.977 6   6656834.467 7  24009345.580 0  24009347.257 0
  -3739094.792 7  -2688256.117 6  23215953.425 0  23215954.884 0
 88  2 27  9 36 59.0800000  0  4  3 13 11  9
 -10757408.851 7  76028208.807 7  22089561.420 0  22089563.174 0
  -1065510.345 8  54998927.467 7  21214240.875 0  21214242.811 0
   8407174.072 6   6707381.053 7  24021689.179 0  24021691.504 0
  -3619848.171 7  -2595336.664 6  23238646.545 0  23238647.029 0
 88  2 27  9 37 29.0800000  0  4  3 13 11  9
 -10796997.543 7  75997360.492 6  22082027.115 0  22082029.555 0
  -1034096.785 8  55023405.552 6  21220218.772 0  21220220.827 0
   8472004.556 7   6757898.306 6  24034024.507 0  24034028.621 0
  -3500430.632 7  -2502284.050 6  23261369.435 0  23261370.756 0
 88  2 27  9 37 59.0800000  0  4  3 13 11  9
 -10836424.378 7  75966638.290 6  22074523.688 0  22074527.158 0
  -1002568.449 7  55047973.073 7  21226218.221 0  21226220.729 0
   8536796.720 7   6808385.671 6  24046356.254 0  24046357.553 0
  -3380846.310 7  -2409101.473 7  23284125.127 0  23284128.129 0
 88  2 27  9 38 29.0800000  0  4  3 13 11  9
 -10875689.599 7  75936042.036 6  22067052.158 0  22067054.868 0
   -970925.763 7  55072629.722 6  21232239.651 0  21232241.306 0
   8601550.612 6   6858843.214 7  24058678.037 0  24058679.919 0
  -3261098.177 6  -2315791.285 6  23306913.203 0  23306914.873 0
 88  2 27  9 38 59.0800000  0  4  3 13 11  9
 -10914793.992 7  75905571.101 6  22059611.592 0  22059613.373 0
   -939170.549 8  55097374.054 6  21238283.698 0  21238284.528 0
   8666266.081 7   6909270.869 6  24070994.016 0  24070995.710 0
  -3141189.818 7  -2222356.250 6  23329730.218 0  23329733.512 0
 88  2 27  9 39 29.0800000  0  4  3 13 11  9
 -10953737.837 7  75875225.252 6  22052200.274 0  22052202.183 0
   -907302.648 8  55122206.182 7  21244347.192 0  21244348.638 0
   8730943.629 7   6959668.961 7  24083300.595 0  24083302.386 0
  -3021124.496 7  -2128798.863 6  23352578.785 0  23352580.398 0
 88  2 27  9 39 59.0800000  0  4  3 13 11  9
 -10992522.953 7  75845003.088 6  22044821.251 0  22044821.131 0
   -875324.170 7  55147124.465 6  21250431.167 0  21250434.087 0
   8795582.513 7   7010036.916 7  24095601.549 0  24095604.076 0
  -2900906.209 8  -2035122.258 6  23375456.113 0  23375456.982 0
 88  2 27  9 40 29.0800000  0  4  3 13 12  9
 -11031149.323 7  75814904.628 6  22037469.821 0  22037471.955 0
   -843236.020 7  55172128.213 6  21256537.650 0  21256540.818 0
         -.486 7          .416 7  21061063.536 0          .000 0
  -2780538.028 7  -1941328.861 6  23398359.901 0  23398361.257 0
 88  2 27  9 40 59.0800000  0  4  3 13 12  9
 -11069617.896 7  75784929.128 7  22030149.181 0  22030150.585 0
   -811039.507 7  55197216.402 7  21262665.239 0  21262668.006 0
     49566.558 7 120580986.507 6  21070521.101 0  21070524.092 0
  -2660022.987 7  -1847421.013 6  23421294.210 0  23421295.177 0
 88  2 27  9 41 29.0800000  0  4  3 13 12  9
 -11107928.905 7  75755076.407 7  22022858.385 0  22022860.516 0
   -778735.210 7  55222388.578 7  21268813.015 0  21268814.118 0
     99713.494 7 120620062.035 7  21080064.371 0  21080065.964 0
  -2539364.616 1  -1753401.498 2  23444255.444 0  23444258.950 0
 88  2 27  9 41 59.0800000  0  4  3 13 12  9
 -11146083.493 7  75725345.580 7  22015598.197 0  22015598.823 0
   -746324.245 8  55247643.882 6  21274979.906 0  21274981.365 0
    150438.810 7 120659588.268 7  21089716.665 0  21089719.923 0
  -2418566.632 6  -1659273.206 6  23467241.532 0  23467244.037 0
 88  2 27  9 42 29.0800000  0  4  3 13 12  9
 -11184082.474 7  75695735.991 7  22008367.295 0  22008368.078 0
   -713807.426 8  55272981.664 6  21281168.258 0  21281169.360 0
    201740.429 7 120699563.542 7  21099479.311 0  21099481.972 0
  -2297632.022 7  -1565038.466 7  23490255.406 0  23490256.753 0
 88  2 27  9 42 59.0800000  0  4  3 13 12  9
 -11221926.405 7  75666247.228 6  22001165.933 0  22001167.661 0
   -681185.688 8  55298401.201 6  21287375.956 0  21287378.054 0
    253616.278 8 120739986.244 6  21109350.382 0  21109353.543 0
  -2176564.107 7  -1470699.881 7  23513293.083 0  23513294.780 0
 88  2 27  9 43 29.0800000  0  4  3 13 12  9
 -11259615.785 7  75636878.883 6  21993994.064 0  21993995.803 0
   -648460.144 8  55323901.620 6  21293602.544 0  21293604.444 0
    306064.370 8 120780854.881 6  21119331.713 0  21119333.703 0
  -2055366.420 7  -1376260.147 6  23536355.409 0  23536357.437 0
 88  2 27  9 43 59.0800000  0  4  3 13 12  9
 -11297151.642 7  75607630.183 6  21986850.366 0  21986853.710 0
   -615632.158 7  55349481.867 6  21299850.136 0  21299851.637 0
    359082.665 7 120822167.801 6  21129420.494 0  21129422.508 0
  -1934042.534 7  -1281722.058 7  23559442.489 0  23559445.118 0
 88  2 27  9 44 29.0800000  0  4  3 13 12  9
 -11334534.635 7  75578500.576 6  21979737.463 0  21979738.055 0
   -582702.765 8  55375141.145 7  21306116.618 0  21306118.105 0
    412668.632 8 120863923.082 7  21139618.340 0  21139620.354 0
  -1812596.065 7  -1187088.455 7  23582554.306 0  23582556.769 0
 88  2 27  9 44 59.0800000  0  4  3 13 12  9
 -11371765.849 8  75549489.243 6  21972653.332 0  21972654.682 0
   -549673.164 7  55400878.496 6  21312402.016 0  21312404.386 0
    466820.026 7 120906118.945 6  21149923.157 0  21149924.571 0
  -1691030.189 7  -1092361.797 7  23605686.710 0  23605690.055 0
 88  2 27  9 45 29.0800000  0  4  3 13 12  9
 -11408845.542 7  75520595.989 6  21965597.044 0  21965598.117 0
   -516543.628 8  55426693.706 7  21318705.668 0  21318706.711 0
    521535.061 7 120948754.030 6  21160334.452 0  21160337.636 0
-102658664.098 2   -864362.297 7  23630755.011 0          .000 0
 88  2 27  9 45 59.0800000  0  4  3 13 12  9
 -11445774.566 7  75491820.132 7  21958568.855 0  21958569.981 0
   -483315.352 7  55452585.869 6  21325028.451 0  21325030.646 0
    576812.122 7 120991827.042 6  21170853.254 0  21170855.865 0
-102820184.082 3   -636362.797 7  23653209.942 0          .000 0
 88  2 27  9 46 29.0800000  0  4  3 13 12  9
 -11482553.382 7  75463161.333 6  21951568.814 0  21951571.015 0
   -449989.035 5  55478554.412 6  21331370.674 0  21331373.246 0
    632648.234 4 121035335.697 3  21181477.618 0  21181480.150 0
-103032816.499 3   -408363.297 7          .000 0          .000 0
 88  2 27  9 46 59.0800000  0  4  3 13 12  9
 -11519183.316 7  75434618.546 7  21944599.945 0  21944601.380 0
   -416566.258 7  55504598.140 6  21337731.085 0  21337733.486 0
    689040.865 6 121079277.996 6  21192208.584 0  21192212.457 0
-102910804.992 1   -180363.797 7  23698416.092 0          .000 0
 88  2 27  9 47 29.0800000  0  4  3 13 12  9
 -11555664.383 6  75406191.734 6  21937657.636 0  21937659.612 0
   -383047.683 7  55530716.513 6  21344109.545 0  21344111.265 0
    745988.619 7 121123652.854 6  21203046.654 0  21203049.553 0
-102788692.194 2 130837623.735 1  23721672.842 0  23721687.309 0
 88  2 27  9 47 59.0800000  0  4  3 13 12  9
 -11591997.583 7  75377880.172 6  21930743.149 0  21930745.827 0
   -349433.576 7  55556909.319 7  21350505.450 0  21350508.390 0
    803488.931 8 121168458.285 6  21213988.935 0  21213990.775 0
-102666428.471 1 131012187.319 1  23744927.708 0  23744932.719 0
 88  2 27  9 48 29.0800000  0  4  3 13 12  9
 -11628183.496 6  75349683.352 6  21923857.844 0  21923859.024 0
   -315725.223 7  55583175.588 6  21356920.602 0  21356922.279 0
    861539.682 7 121213692.637 7  21225035.493 0  21225037.363 0
-102544119.625 1 131107493.362 1  23768203.994 0  23768209.196 0
 88  2 27  9 48 59.0800000  0  4  3 13 12  9
 -11664222.692 7  75321600.897 6  21916999.518 0  21917001.683 0
   -281923.582 8  55609514.518 6  21363352.586 0  21363355.446 0
    920138.437 7 121259353.984 6  21236184.775 0  21236189.041 0
-102421718.014 1 131202871.242 1  23791495.041 0  23791496.568 0
 88  2 27  9 49 29.0800000  0  4  3 13 12  9
 -11700116.174 7  75293631.967 6  21910168.309 0  21910170.838 0
   -248029.175 7  55635925.736 6  21369803.058 0  21369804.988 0
    979282.597 7 121305440.326 7  21247440.559 0  21247443.409 0
-102299227.051 1 131298318.740 1  23814803.079 0  23814808.221 0
 88  2 27  9 49 59.0800000  0  4  3 13 12  9
 -11735864.560 8  75265776.097 6  21903366.063 0  21903367.257 0
   -214043.291 7  55662408.245 6  21376269.789 0  21376270.390 0
   1038969.626 7 121351949.673 7  21258798.797 0  21258801.963 0
-102176650.140 2 131393833.181 1  23838129.265 0  23838133.641 0
 88  2 27  9 50 29.0800000  0  4  3 13 12  9
 -11771468.774 7  75238032.577 6  21896591.680 0  21896592.984 0
   -179967.466 7  55688960.840 6  21382754.134 0  21382756.649 0
   1099197.562 7 121398880.509 6  21270259.521 0  21270262.901 0
-102053990.654 2 131489411.991 2  23861473.908 0  23861474.311 0
 88  2 27  9 50 59.0800000  0  4  3 13 12  9
 -11806929.268 8  75210401.030 6  21889843.096 0  21889845.555 0
   -145801.757 8  55715583.467 6  21389255.349 0  21389257.722 0
   1159963.950 7 121446230.927 7  21281822.792 0  21281824.939 0
-101931251.881 2 131585052.628 2  23884829.341 0  23884825.946 0
 88  2 27  9 51 29.0800000  0  4  3 13 12  9
 -11842246.305 7  75182881.271 6  21883122.564 0  21883123.795 0
   -111546.494 7  55742275.868 6  21395774.789 0  21395776.383 0
   1221266.592 8 121493999.203 7  21293488.329 0  21293492.270 0
-101808437.148 3 131680752.407 2  23908200.804 0  23908201.689 0
 88  2 27  9 51 59.0800000  0  4  3 13 12  9
 -11877421.138 6  75155472.316 6  21876428.952 0  21876431.129 0
    -77203.295 7  55769036.805 6  21402309.229 0  21402310.733 0
   1283102.643 6 121542183.117 5  21305256.026 0  21305257.179 0
-101685549.680 1 131776508.882 1  23931586.037 0  23931586.992 0
 88  2 27  9 52 29.0800000  0  4  3 13 12  9
 -11912453.828 7  75128174.127 7  21869763.161 0  21869764.995 0
    -42772.782 7  55795865.786 6  21408860.638 0  21408862.963 0
   1345470.298 7 121590781.269 6  21317123.958 0  21317127.561 0
-101562592.400 7 131872319.736 6  23954982.672 0  23954984.634 0
 88  2 27  9 52 59.0800000  0  4  3 13 12  9
 -11947345.351 7  75100985.945 6  21863122.820 0  21863124.781 0
     -8255.933 7  55822762.035 7  21415430.024 0  21415431.438 0
   1408366.331 7 121639791.138 6  21329091.844 0  21329095.608 0
-101439568.976 6 131968182.126 7  23978391.833 0  23978395.187 0
 88  2 27  9 53 29.0800000  0  4  3 13 12  9
 -11982096.702 7  75073906.993 6  21856510.639 0  21856511.273 0
     26346.796 7  55849725.201 6  21422013.907 0  21422016.778 0
   1471787.949 7 121689210.577 6  21341161.982 0  21341164.033 0
-101316482.940 7 132064093.297 7  24001815.227 0  24001817.790 0
 88  2 27  9 53 59.0800000  0  4  3 13 12  9
 -12016708.440 7  75046936.807 7  21849924.914 0  21849926.031 0
     61034.146 7  55876754.299 7  21428616.019 0  21428615.911 0
   1535733.210 7 121739038.057 7  21353329.772 0  21353332.771 0
-101193337.386 7 132160050.864 7  24025247.321 0  24025250.513 0
 88  2 27  9 54 29.0800000  0  4  3 13 12  9
 -12051181.255 7  75020074.878 7  21843363.189 0  21843366.493 0
     95805.658 7  55903848.992 7  21435232.081 0  21435233.070 0
   1600199.574 7 121789271.593 7  21365597.635 0  21365600.201 0
-101070135.487 7 132256052.332 6  24048691.854 0  24048694.732 0
 88  2 27  9 54 59.0800000  0  4  3 13 12  9
 -12085515.586 7  74993320.868 6  21836830.601 0  21836831.992 0
    130660.606 7  55931008.703 6  21441864.451 0  21441866.971 0
   1665184.418 7 121839909.131 7  21377963.548 0  21377966.382 0
-100946880.883 7 132352094.883 6  24072147.406 0  24072149.611 0
 88  2 27  9 55 29.0800000  0  4  3 13 12  9
 -12119712.054 7  74966674.293 6  21830322.763 0  21830325.205 0
    165598.571 7  55958233.091 6  21448513.766 0  21448514.106 0
   1730685.463 7 121890948.880 6  21390428.141 0  21390430.232 0
-100823576.193 6 132448176.462 7  24095612.287 0  24095613.647 0
 88  2 27  9 55 59.0800000  0  4  3 13 12  9
 -12153771.403 7  74940134.539 6  21823841.908 0  21823843.468 0
    200618.463 7  55985521.320 7  21455177.795 0  21455179.786 0
   1796699.764 7 121942388.584 7  21402989.834 0  21402992.117 0
-100700225.110 7 132544294.180 6  24119085.181 0  24119087.329 0
 88  2 27  9 56 29.0800000  0  4  3 13 12  9
 -12187694.349 7  74913701.090 6  21817386.940 0  21817388.280 0
    235719.531 7  56012872.801 7  21461856.344 0  21461858.501 0
   1863224.656 7 121994226.141 6  21415649.911 0  21415651.314 0
-100576831.012 7 132640445.453 7  24142565.535 0  24142567.521 0
 88  2 27  9 56 59.0800000  0  4  3 13 12  9
 -12221481.690 7  74887373.288 6  21810957.242 0  21810958.461 0
    270900.849 7  56040286.820 6  21468550.045 0  21468552.840 0
   1930257.412 7 122046459.429 6  21428405.406 0  21428407.901 0
-100453396.830 8 132736627.981 6  24166054.809 0  24166056.536 0
 88  2 27  9 57 29.0800000  0  4  3 13 12  9
 -12255133.703 7  74861150.958 6  21804552.653 0  21804554.534 0
    306162.254 8  56067763.241 6  21475261.054 0  21475262.293 0
   1997795.279 7 122099086.327 6  21441256.910 0  21441259.739 0
-100329926.179 7 132832838.882 7  24189549.205 0  24189553.151 0
 88  2 27  9 57 59.0800000  0  4  3 13 12  9
 -12288651.443 7  74835033.241 7  21798174.149 0  21798176.435 0
    341502.039 7  56095300.732 7  21481986.405 0  21481988.007 0
   2065835.729 7 122152104.825 6  21454205.925 0  21454207.909 0
-100206422.266 6 132929075.653 6  24213051.462 0  24213055.059 0
 88  2 27  9 58 29.0800000  0  4  3 13 12  9
 -12322035.069 7  74809020.044 6  21791822.053 0  21791823.080 0
    376920.305 7  56122899.383 6  21488726.662 0  21488728.045 0
   2134376.209 8 122205512.988 6  21467248.261 0  21467250.705 0
-100082888.186 7 133025335.948 7  24236560.014 0  24236562.801 0
 88  2 27  9 58 59.0800000  0  4  3 13 12  9
 -12355285.774 7  74783110.409 7  21785494.144 0  21785494.697 0
    412416.493 7  56150558.763 6  21495481.502 0  21495481.873 0
   2203414.057 7 122259308.705 7  21480385.614 0  21480387.118 0
 -99959326.772 6 133121617.528 7  24260071.277 0  24260073.892 0
 88  2 27  9 59 29.0800000  0  4  3 13 12  9
 -12388403.708 7  74757304.250 7  21779191.233 0  21779193.971 0
    447989.465 7  56178277.968 7  21502249.493 0  21502250.754 0
   2272947.150 8 122313490.318 7  21493617.863 0  21493620.642 0
 -99835741.580 6 133217917.633 7  24283590.141 0  24283593.291 0
 88  2 27  9 59 59.0800000  0  4  3 13 12  9
 -12421389.950 7  74731600.683 7  21772914.860 0  21772917.161 0
    483638.507 7  56206056.444 7  21509034.255 0  21509035.347 0
   2342971.628 7 122368054.827 6  21506943.492 0  21506945.841 0
 -99712136.576 7 133314233.207 7  24307111.694 0  24307114.691 0
 88  2 27 10  0 29.0800000  0  4  3 13 12  9
 -12454244.974 7  74705999.360 6  21766663.089 0  21766665.667 0
    519363.270 7  56233893.928 7  21515833.383 0  21515834.279 0
   2413484.411 7 122422999.838 6  21520361.818 0  21520363.971 0
 -99588514.140 7 133410562.381 7  24330636.753 0  24330638.259 0
 88  2 27 10  0 59.0800000  0  4  3 13 12  9
 -12486969.087 7  74680500.084 6  21760434.852 0  21760436.889 0
    555163.325 7  56261790.067 6  21522645.455 0  21522646.962 0
   2484483.548 8 122478323.826 6  21533871.607 0  21533873.980 0
 -99464877.559 7 133506902.586 7  24354164.105 0  24354165.661 0
 88  2 27 10  1 29.0800000  0  4  3 13 12  9
 -12519563.032 7  74655102.209 6  21754232.722 0  21754234.908 0
    591037.498 7  56289743.964 6  21529471.226 0  21529472.990 0
   2555966.048 7 122534024.461 6  21547473.893 0  21547476.855 0
 -99341229.944 7 133603251.370 7  24377692.307 0  24377695.616 0
 88  2 27 10  1 59.0800000  0  4  3 13 12  9
 -12552027.771 7  74629805.039 7  21748055.999 0  21748057.450 0
    626985.132 7  56317755.117 6  21536313.051 0  21536313.804 0
   2627929.153 7 122590099.590 6  21561168.580 0  21561171.068 0
 -99217575.263 7 133699605.703 6  24401223.747 0  24401225.749 0
 88  2 27 10  2 29.0800000  0  4  3 13 12  9
 -12584363.574 8  74604608.313 6  21741902.394 0  21741904.157 0
    663006.070 7  56345823.375 6  21543167.069 0  21543167.440 0
   2700369.768 7 122646546.804 7  21574952.967 0  21574956.372 0
 -99093915.946 7 133795963.613 7  24424756.361 0  24424758.027 0
 88  2 27 10  2 59.0800000  0  4  3 13 12  9
 -12616570.812 7  74579511.769 6  21735773.751 0  21735775.199 0
    699099.481 8  56373948.130 6  21550035.776 0  21550036.558 0
   2773285.424 6 122703364.165 7  21588828.189 0  21588831.720 0
 -98970255.051 7 133892322.771 6  24448288.106 0  24448288.890 0
 88  2 27 10  3 29.0800000  0  4  3 13 12  9
 -12648650.360 6  74554514.748 7  21729669.536 0  21729671.040 0
    735264.910 7  56402128.967 7  21556916.514 0  21556917.868 0
   2846672.929 7 122760549.216 7  21602793.232 0  21602796.430 0
 -98846595.936 7 133988680.526 7  24471819.628 0  24471820.452 0
 88  2 27 10  3 59.0800000  0  4  3 13 12  9
 -12680602.827 7  74529616.727 6  21723587.728 0  21723589.425 0
    771501.673 7  56430365.403 7  21563813.039 0  21563814.970 0
   2920529.656 7 122818099.875 6  21616848.553 0  21616850.087 0
 -98722942.088 7 134085034.200 6  24495349.406 0  24495353.073 0
 88  2 27 10  4 29.0800000  0  4  3 13 12  9
 -12712428.579 7  74504817.447 6  21717532.318 0  21717534.474 0
    807809.398 7  56458657.123 7  21570722.185 0  21570723.868 0
   2994852.592 7 122876013.849 6  21630991.895 0  21630994.027 0
 -98599296.211 7 134181381.628 6  24518878.812 0  24518880.254 0
 88  2 27 10  4 59.0800000  0  4  3 13 12  9
 -12744128.291 7  74480116.374 6  21711500.721 0  21711502.200 0
    844187.781 7  56487003.912 6  21577644.905 0  21577645.720 0
   3069639.030 8 122934288.975 6  21645223.013 0  21645224.815 0
 -98475661.983 7 134277719.993 7  24542405.129 0  24542406.614 0
 88  2 27 10  5 29.0800000  0  4  3 13 12  9
 -12775703.208 7  74455512.571 6  21705491.879 0  21705494.207 0
    880635.108 8  56515404.426 6  21584579.712 0  21584581.008 0
   3144885.650 7 122992922.678 7  21659541.414 0  21659545.138 0
 -98352042.293 7 134374047.036 7  24565929.842 0  24565930.103 0
 88  2 27 10  5 59.0800000  0  4  3 13 12  9
 -12807153.321 8  74431005.987 6  21699507.511 0  21699508.252 0
    917151.418 7  56543858.687 7  21591527.187 0  21591530.129 0
   3220589.377 7 123051912.579 6  21673947.357 0  21673951.050 0
 -98228440.668 7 134470359.993 6  24589449.170 0  24589452.326 0
 88  2 27 10  6 29.0800000  0  4  3 13 12  9
 -12838479.329 7  74406596.122 7  21693545.300 0  21693547.949 0
    953736.344 7  56572366.423 6  21598489.906 0  21598492.562 0
   3296747.510 7 123111256.568 7  21688440.333 0  21688442.742 0
 -98104859.658 7 134566656.866 7  24612964.596 0  24612967.600 0
 88  2 27 10  6 59.0800000  0  4  3 13 12  9
 -12869681.008 7  74382283.133 6  21687608.290 0  21687610.382 0
    990389.760 7  56600927.516 6  21605465.619 0  21605467.874 0
   3373356.937 7 123170952.212 6  21703018.305 0  21703020.781 0
 -97981302.679 7 134662935.050 7  24636478.109 0  24636480.338 0
 88  2 27 10  7 29.0800000  0  4  3 13 12  9
 -12900759.550 7  74358066.087 7  21681693.809 0  21681695.764 0
   1027110.775 7  56629541.293 7  21612453.055 0  21612455.272 0
   3450414.846 7 123230997.329 6  21717682.125 0  21717683.605 0
 -97857772.959 7 134759191.976 7  24659984.997 0  24659987.662 0
 88  2 27 10  7 59.0800000  0  4  3 13 12  9
 -12931716.047 7  74333944.158 7  21675803.099 0  21675804.248 0
   1063898.606 7  56658207.140 7  21619453.722 0  21619455.968 0
   3527917.745 7 123291389.180 6  21732431.011 0  21732432.519 0
 -97734273.410 7 134855425.390 7  24683486.440 0  24683488.293 0
 88  2 27 10  8 29.0800000  0  4  3 13 12  9
 -12962551.163 7  74309916.791 7  21669935.660 0  21669937.843 0
   1100752.525 7  56686924.463 6  21626467.172 0  21626469.161 0
   3605862.715 8 123352125.491 7  21747264.201 0  21747265.439 0
 -97610807.787 7 134951632.358 7  24706981.989 0  24706983.910 0
 88  2 27 10  8 59.0800000  0  4  3 13 12  9
 -12993264.761 7  74285984.149 6  21664089.847 0  21664091.786 0
   1137672.724 7  56715693.446 6  21633492.957 0  21633494.993 0
   3684247.462 7 123413204.492 7  21762179.215 0  21762182.793 0
 -97487378.319 7 135047811.159 7  24730470.093 0  24730471.566 0
 88  2 27 10  9 29.0800000  0  4  3 13 12  9
 -13023857.306 7  74262145.815 6  21658268.707 0  21658272.098 0
   1174658.561 7  56744513.580 6  21640530.275 0  21640532.588 0
   3763068.437 7 123474623.441 7  21777178.106 0  21777181.577 0
 -97363988.578 7 135143959.029 7  24753949.837 0  24753951.682 0
 88  2 27 10  9 59.0800000  0  4  3 13 12  9
 -13054329.591 7  74238401.182 6  21652470.811 0  21652472.741 0
   1211709.437 7  56773384.398 6  21647581.311 0  21647582.059 0
   3842322.504 7 123536379.833 6  21792260.560 0  21792263.377 0
 -97240641.523 7 135240073.611 6  24777421.697 0  24777422.874 0
 88  2 27 10 10 29.0800000  0  4  3 13 12  9
 -13084682.155 7  74214749.839 7  21646695.306 0  21646696.194 0
   1248824.690 7  56802305.373 6  21654644.318 0  21654645.005 0
   3922006.529 7 123598471.287 6  21807422.574 0  21807425.853 0
 -97117340.331 6 135336152.520 6  24800886.020 0  24800886.405 0
 88  2 27 10 10 59.0800000  0  4  3 13 12  9
 -13114915.690 7  74191191.252 7  21640941.312 0  21640943.032 0
   1286004.330 7  56831276.538 6  21661719.164 0  21661720.738 0
   4002117.532 7 123660895.431 7  21822669.671 0  21822670.729 0
 -96994087.808 6 135432193.448 7  24824339.937 0  24824340.883 0
 88  2 27 10 11 29.0800000  0  4  3 13 12  9
 -13145030.355 7  74167725.290 7  21635211.952 0  21635212.964 0
   1323248.023 7  56860297.602 6  21668806.946 0  21668809.316 0
   4082652.234 7 123723649.705 6  21837993.178 0  21837996.542 0
 -96870887.561 5 135528193.667 6  24847783.488 0  24847785.433 0
 88  2 27 10 11 59.0800000  0  4  3 13 12  9
 -13175026.970 7  74144351.315 7  21629502.292 0  21629503.645 0
   1360554.906 6  56889367.883 6  21675906.357 0  21675906.504 0
   4163607.348 7 123786731.574 6  21853398.909 0  21853401.148 0
 -96747742.185 5 135624151.089 5  24871214.018 0  24871218.133 0
 88  2 27 10 12 29.0800000  0  4  3 13 12  9
 -13204905.905 7  74121069.056 6  21623817.286 0  21623819.618 0
   1397924.468 8  56918487.030 6  21683016.747 0  21683018.320 0
   4244980.184 7 123850138.948 7  21868883.483 0  21868885.604 0
 -96624654.626 6 135720063.452 6  24894639.169 0  24894641.034 0
 88  2 27 10 12 59.0800000  0  4  3 13 12  9
 -13234667.427 7  74097878.258 6  21618152.435 0  21618155.152 0
   1435356.610 7  56947654.935 7  21690139.643 0  21690141.689 0
   4326767.824 7 123913869.587 7  21884447.613 0  21884450.053 0
 -96501628.333 7 135815928.158 5  24918050.148 0  24918050.901 0
 88  2 27 10 13 29.0800000  0  4  3 13 12  9
 -13264312.093 8  74074778.518 7  21612511.918 0  21612515.261 0
   1472850.790 7  56976871.170 6  21697274.674 0  21697277.387 0
   4408966.639 7 123977920.598 7  21900089.447 0  21900092.454 0
 -96378666.161 6 135911742.878 6  24941450.459 0  24941451.004 0
 88  2 27 10 13 59.0800000  0  4  3 13 12  9
 -13293840.659 7  74051769.249 7  21606893.644 0  21606895.469 0
   1510406.496 7  57006135.342 6  21704421.781 0  21704423.646 0
   4491573.556 7 124042289.611 7  21915808.690 0  21915811.438 0
 -96255771.159 7 136007505.223 6  24964836.243 0  24964838.592 0
 88  2 27 10 14 29.0800000  0  3  3 13 12
 -13323253.518 8  74028850.150 6  21601296.401 0  21601298.245 0
   1548023.412 7  57035447.227 6  21711579.404 0  21711581.218 0
   4574585.572 4 124106974.254 4  21931605.718 0  21931607.767 0
 88  2 27 10 14 59.0800000  0  3  3 13 12
 -13352550.678 7  74006021.184 7  21595720.738 0  21595723.035 0
   1585701.453 7  57064806.746 6  21718748.109 0  21718752.139 0
   4657999.402 4 124171972.022 5  21947477.784 0  21947480.873 0
 88  2 27 10 15 29.0800000  0  3  3 13 12
 -13381732.946 7  73983281.774 7  21590168.008 0  21590169.876 0
   1623440.642 7  57094213.919 6  21725932.148 0  21725933.277 0
   4741812.125 7 124237280.621 7  21963425.775 0  21963430.994 0
 88  2 27 10 15 59.0800000  0  3  3 13 12
 -13410801.182 7  73960631.183 6  21584636.895 0  21584637.494 0
   1661240.022 7  57123667.985 6  21733124.772 0  21733126.519 0
   4826019.609 7 124302896.818 7  21979450.036 0  21979454.074 0
 88  2 27 10 16 29.0800000  0  3  3 13 12
 -13439755.307 7  73938069.545 7  21579126.053 0  21579129.380 0
   1699099.715 7  57153169.057 6  21740328.717 0  21740330.335 0
   4910619.697 6 124368818.943 6  21995548.391 0  21995552.698 0
 88  2 27 10 16 59.0800000  0  3  3 13 12
 -13468595.940 7  73915596.336 7  21573638.154 0  21573639.182 0
   1737019.175 7  57182716.681 6  21747544.603 0  21747546.980 0
   4995608.699 6 124435044.094 6  22011721.986 0  22011726.061 0
 88  2 27 10 17 29.0800000  0  3  3 13 12
 -13497323.067 7  73893211.561 7  21568170.812 0  21568172.488 0
   1774997.847 7  57212310.452 6  21754772.377 0  21754773.436 0
   5080983.402 7 124501569.814 7  22027970.008 0  22027972.367 0
 88  2 27 10 17 59.0800000  0  3  3 13 12
 -13525938.244 7  73870914.038 7  21562726.889 0  21562728.051 0
   1813035.539 7  57241950.208 6  21762010.481 0  21762011.832 0
   5166740.009 8 124568393.122 6  22044289.376 0  22044290.838 0
 88  2 27 10 18 29.0800000  0  3  3 13 12
 -13554441.133 7  73848703.998 6  21557301.625 0  21557303.665 0
   1851132.061 7  57271635.797 6  21769260.376 0  21769261.934 0
   5252875.958 7 124635512.010 6  22060679.350 0  22060682.401 0
 88  2 27 10 18 59.0800000  0  3  3 13 12
 -13582832.474 7  73826580.883 6  21551899.219 0  21551902.073 0
   1889286.860 7  57301366.812 6  21776520.317 0  21776522.456 0
   5339387.527 7 124702923.608 7  22077143.016 0  22077144.359 0
 88  2 27 10 19 29.0800000  0  3  3 13 12
 -13611112.609 7  73804544.412 7  21546518.657 0  21546520.711 0
   1927499.527 8  57331142.904 6  21783792.025 0  21783793.949 0
   5426271.893 7 124770625.705 7  22093675.025 0  22093677.475 0
 88  2 27 10 19 59.0800000  0  3  3 13 12
 -13639281.962 7  73782594.263 7  21541158.138 0  21541159.858 0
   1965770.803 7  57360964.675 6  21791074.019 0  21791077.606 0
   5513525.339 8 124838615.404 6  22110278.864 0  22110281.436 0
 88  2 27 10 20 29.0800000  0  3  3 13 12
 -13667340.816 8  73760730.237 7  21535818.797 0  21535820.101 0
   2004099.457 7  57390831.183 6  21798368.599 0  21798369.387 0
   5601144.539 7 124906890.074 6  22126953.012 0  22126954.824 0
 88  2 27 10 20 59.0800000  0  3  3 13 12
 -13695289.360 7  73738952.142 7  21530499.335 0  21530501.451 0
   2042485.448 7  57420742.361 6  21805672.303 0  21805674.940 0
   5689126.395 7 124975447.330 6  22143695.938 0  22143699.106 0
 88  2 27 10 21 29.0800000  0  3  3 13 12
 -13723128.030 7  73717259.687 7  21525202.969 0  21525204.293 0
   2080928.706 7  57450698.130 6  21812987.981 0  21812989.257 0
   5777467.543 7 125044284.561 7  22160506.428 0  22160508.626 0
 88  2 27 10 21 59.0800000  0  3  3 13 12
 -13750857.502 8  73695652.323 7  21519925.901 0  21519927.416 0
   2119429.393 7  57480698.667 6  21820313.784 0  21820315.374 0
   5866164.604 7 125113399.133 6  22177384.238 0  22177387.906 0
 88  2 27 10 22 29.0800000  0  3  3 13 12
 -13778477.881 7  73674129.943 7  21514669.047 0  21514671.330 0
   2157987.282 7  57510743.762 7  21827651.577 0  21827654.489 0
   5955214.585 7 125182788.718 6  22194329.061 0  22194333.190 0
 88  2 27 10 22 59.0800000  0  3  3 13 12
 -13805989.593 8  73652692.258 7  21509435.326 0  21509435.458 0
   2196601.744 7  57540832.945 6  21835000.355 0  21835001.727 0
   6044613.995 7 125252450.582 7  22211341.885 0  22211345.241 0
 88  2 27 10 23 29.0800000  0  3  3 13 12
 -13833392.962 7  73631338.987 7  21504218.977 0  21504220.311 0
   2235272.803 8  57570966.253 6  21842359.218 0  21842360.867 0
   6134359.548 7 125322382.160 7  22228419.448 0  22228423.571 0
 88  2 27 10 23 59.0800000  0  3  3 13 12
 -13860689.000 7  73610069.352 7  21499024.950 0  21499027.104 0
   2273999.830 7  57601143.162 7  21849729.179 0  21849730.379 0
   6224447.393 7 125392580.470 7  22245563.624 0  22245565.446 0
 88  2 27 10 24 29.0800000  0  3  3 13 12
 -13887877.518 7  73588883.512 7  21493851.605 0  21493854.331 0
   2312782.880 7  57631363.726 6  21857107.897 0  21857110.251 0
   6314874.693 7 125463043.284 6  22262772.287 0  22262772.983 0
 88  2 27 10 24 59.0800000  0  3  3 13 12
 -13914958.420 7  73567781.525 6  21488698.016 0  21488700.370 0
   2351622.062 7  57661628.007 6  21864499.345 0  21864501.240 0
   6405637.826 7 125533767.790 6  22280044.081 0  22280044.025 0
 88  2 27 10 25 29.0800000  0  3  3 13 12
 -13941932.217 7  73546762.987 7  21483564.669 0  21483566.985 0
   2390516.992 7  57691935.723 7  21871901.078 0  21871903.033 0
   6496733.695 7 125604751.555 6  22297378.946 0  22297380.080 0
 88  2 27 10 25 59.0800000  0  3  3 13 12
 -13968800.177 7  73525826.931 6  21478452.882 0  21478454.893 0
   2429466.937 7  57722286.313 6  21879313.284 0  21879314.290 0
   6588158.107 7 125675991.341 7  22314774.945 0  22314777.594 0
 88  2 27 10 26 29.0800000  0  3  3 13 12
 -13995561.691 7  73504973.817 6  21473360.222 0  21473361.779 0
   2468472.845 7  57752680.532 6  21886736.414 0  21886737.467 0
   6679908.201 7 125747484.901 7  22332234.648 0  22332237.699 0
 88  2 27 10 26 59.0800000  0  3  3 13 12
 -14022217.657 7  73484202.951 6  21468288.605 0  21468289.319 0
   2507534.499 7  57783118.181 6  21894168.889 0  21894170.405 0
   6771980.596 7 125819229.614 6  22349756.246 0  22349758.888 0
 88  2 27 10 27 29.0800000  0  3  3 13 12
 -14048767.850 7  73463514.520 7  21463235.552 0  21463237.482 0
   2546651.087 7  57813598.639 7  21901611.711 0  21901613.948 0
   6864371.771 7 125891222.730 6  22367336.197 0  22367339.480 0
 88  2 27 10 27 59.0800000  0  3  3 13 12
 -14075212.589 7  73442908.235 6  21458203.076 0  21458203.074 0
   2585822.905 7  57844122.133 6  21909067.379 0  21909067.030 0
   6957078.539 7 125963461.760 7  22384979.376 0  22384981.822 0
 88  2 27 10 28 29.0800000  0  3  3 13 12
 -14101552.691 7  73422383.501 6  21453191.663 0  21453192.715 0
   2625049.662 7  57874688.458 6  21916530.550 0  21916532.969 0
   7050096.976 7 126035943.631 6  22402680.093 0  22402682.456 0
 88  2 27 10 28 59.0800000  0  3  3 13 12
 -14127788.046 7  73401940.372 7  21448198.814 0  21448200.748 0
   2664331.492 7  57905297.656 7  21924005.946 0  21924008.480 0
   7143424.234 7 126108666.159 6  22420438.552 0  22420440.672 0
 88  2 27 10 29 29.0800000  0  3  3 13 12
 -14153918.932 7  73381578.641 7  21443225.091 0  21443227.412 0
   2703668.148 7  57935949.590 7  21931491.990 0  21931494.497 0
   7237056.274 7 126181626.170 6  22438256.979 0  22438259.365 0
 88  2 27 10 29 59.0800000  0  3  3 13 12
 -14179945.411 7  73361298.283 6  21438272.632 0  21438274.896 0
   2743059.578 7  57966644.196 7  21938987.506 0  21938990.257 0
   7330990.205 7 126254821.423 6  22456131.939 0  22456135.902 0
 88  2 27 10 30 29.0800000  0  3  3 13 12
 -14205868.222 7  73341098.694 7  21433339.872 0  21433341.754 0
   2782506.063 6  57997381.706 7  21946494.010 0  21946495.575 0
   7425222.170 7 126328248.925 6  22474062.922 0  22474067.097 0
 88  2 27 10 30 59.0800000  0  3  3 13 12
 -14231686.987 8  73320980.179 7  21428427.383 0  21428429.451 0
   2822007.180 7  58028161.792 7  21954010.069 0  21954011.977 0
   7519749.436 7 126401906.535 6  22492051.060 0  22492053.931 0
 88  2 27 10 31 29.0800000  0  3  3 13 12
 -14257402.200 8  73300942.355 6  21423533.935 0  21423535.312 0
   2861563.306 7  58058984.750 7  21961538.243 0  21961539.577 0
   7614568.305 7 126475791.354 6  22510094.295 0  22510097.885 0
 88  2 27 10 31 59.0800000  0  3  3 13 12
 -14283014.256 8  73280984.914 7  21418659.690 0  21418661.744 0
   2901174.435 7  58089850.570 6  21969077.139 0  21969077.774 0
   7709675.325 7 126549900.715 6  22528193.413 0  22528195.106 0
 88  2 27 10 32 29.0800000  0  3  3 13 12
 -14308523.512 7  73261107.578 6  21413805.068 0  21413807.260 0
   2940840.037 7  58120758.820 6  21976623.915 0  21976625.652 0
   7805066.542 7 126624231.521 7  22546346.109 0  22546347.690 0
 88  2 27 10 32 59.0800000  0  3  3 13 12
 -14333930.214 7  73241310.144 6  21408970.612 0  21408971.597 0
   2980559.757 7  58151709.236 7  21984181.675 0  21984184.621 0
   7900738.942 7 126698781.424 7  22564551.258 0  22564554.878 0
 88  2 27 10 33 29.0800000  0  3  3 13 12
 -14359234.025 7  73221592.896 6  21404155.482 0  21404157.598 0
   3020334.200 7  58182702.304 7  21991751.971 0  21991752.835 0
   7996689.105 7 126773547.749 6  22582810.421 0  22582812.911 0
 88  2 27 10 33 59.0800000  0  3  3 13 12
 -14384435.703 7  73201955.227 6  21399359.566 0  21399361.081 0
   3060163.810 7  58213738.366 7  21999330.858 0  21999331.711 0
   8092913.277 7 126848527.613 7  22601119.602 0  22601123.281 0
 88  2 27 10 34 29.0800000  0  3  3 13 12
 -14409535.539 7  73182396.899 6  21394584.160 0  21394583.508 0
   3100048.113 7  58244817.061 7  22006921.266 0  22006923.485 0
   8189407.720 7 126923718.083 7  22619482.703 0  22619486.246 0
 88  2 27 10 34 59.0800000  0  3  3 13 12
 -14434533.333 8  73162918.117 6  21389826.439 0  21389828.059 0
   3139986.978 7  58275938.241 6  22014520.249 0  22014521.752 0
   8286169.181 7 126999116.639 6  22637896.163 0  22637899.716 0
 88  2 27 10 35 29.0800000  0  3  3 13 12
 -14459429.390 7  73143518.581 6  21385089.629 0  21385089.569 0
   3179980.167 7  58307101.762 7  22022130.232 0  22022131.732 0
   8383193.819 7 127074720.217 6  22656359.885 0  22656362.563 0
 88  2 27 10 35 59.0800000  0  3  3 13 12
 -14484223.727 7  73124198.317 6  21380370.715 0  21380371.962 0
   3220028.226 7  58338308.045 7  22029751.308 0  22029753.412 0
   8480478.765 7 127150526.665 6  22674872.258 0  22674873.740 0
 88  2 27 10 36 29.0800000  0  3  3 13 12
 -14508916.421 7  73104957.254 6  21375672.759 0  21375673.945 0
   3260131.078 7  58369557.004 7  22037383.643 0  22037384.954 0
   8578020.016 7 127226532.803 7  22693434.109 0  22693435.601 0
 88  2 27 10 36 59.0800000  0  3  3 13 12
 -14533507.889 7  73085795.065 6  21370992.661 0  21370993.527 0
   3300289.053 7  58400848.933 6  22045024.854 0  22045027.273 0
   8675814.501 6 127302736.280 6  22712043.072 0  22712045.255 0
 88  2 27 10 37 29.0800000  0  3  3 13 12
 -14557998.357 7  73066711.572 6  21366331.489 0  21366333.004 0
   3340501.760 7  58432183.497 7  22052677.095 0  22052678.533 0
   8773858.625 7 127379134.311 7  22730699.730 0  22730704.030 0
 88  2 27 10 37 59.0800000  0  3  3 13 12
 -14582388.016 7  73047706.661 6  21361690.274 0  21361692.251 0
   3380769.392 7  58463560.856 7  22060339.553 0  22060341.691 0
   8872148.911 7 127455724.123 7  22749403.709 0  22749407.742 0
 88  2 27 10 38 29.0800000  0  3  3 13 12
 -14606676.880 8  73028780.260 6  21357068.949 0  21357069.319 0
   3421092.109 8  58494981.149 7  22068012.881 0  22068015.534 0
   8970681.537 7 127532502.798 7  22768155.384 0  22768158.516 0
 88  2 27 10 38 59.0800000  0  3  3 13 12
 -14630865.159 7  73009932.279 6  21352466.168 0  21352466.777 0
   3461469.722 7  58526444.224 7  22075695.635 0  22075698.830 0
   9069453.111 8 127609467.647 7  22786950.619 0  22786952.969 0
 88  2 27 10 39 29.0800000  0  3  3 13 12
 -14654952.893 7  72991162.626 6  21347882.628 0  21347883.414 0
   3501903.063 8  58557950.729 6  22083391.526 0  22083393.074 0
   9168460.245 6 127686616.022 6  22805789.758 0  22805792.810 0
 88  2 27 10 39 59.0800000  0  3  3 13 12
 -14678940.170 7  72972471.254 6  21343317.147 0  21343318.071 0
   3542391.573 8  58589500.207 6  22091095.686 0  22091097.270 0
   9267699.387 7 127763945.200 7  22824675.681 0  22824678.220 0
 88  2 27 10 40 29.0800000  0  3  3 13 12
 -14702826.863 7  72953858.239 6  21338771.937 0  21338774.115 0
   3582935.450 7  58621092.843 6  22098810.618 0  22098812.823 0
   9367167.272 7 127841452.625 7  22843603.904 0  22843605.623 0
 88  2 27 10 40 59.0800000  0  3  3 13 12
 -14726613.013 7  72935323.603 7  21334245.663 0  21334248.775 0
   3623535.095 8  58652728.919 6  22106537.061 0  22106539.027 0
   9466860.349 7 127919135.532 6  22862574.289 0  22862578.140 0
 88  2 27 10 41 29.0800000  0  3  3 13 12
 -14750298.774 7  72916867.163 6  21329739.183 0  21329739.863 0
   3664190.417 7  58684408.377 7  22114273.275 0  22114274.678 0
   9566774.874 7 127996990.993 7  22881587.569 0  22881590.392 0
 88  2 27 10 41 59.0800000  0  3  3 13 12
 -14773884.454 7  72898488.720 6  21325250.466 0  21325252.739 0
   3704902.471 7  58716132.043 6  22122020.769 0  22122022.341 0
   9666907.885 7 128075016.724 7  22900641.977 0  22900645.437 0
 88  2 27 10 42 29.0800000  0  3  3 13 12
 -14797369.887 7  72880188.388 7  21320781.457 0  21320783.244 0
   3745670.591 7  58747899.405 6  22129778.681 0  22129780.728 0
   9767255.157 7 128153209.429 7  22919737.816 0  22919740.825 0
 88  2 27 10 42 59.0800000  0  3  3 13 12
 -14820755.251 7  72861966.039 6  21316330.039 0  21316331.444 0
   3786494.566 7  58779710.305 6  22137546.415 0  22137548.407 0
   9867813.286 7 128231566.409 6  22938872.810 0  22938876.445 0
 88  2 27 10 43 29.0800000  0  3  3 13 12
 -14844040.772 7  72843821.504 6  21311900.438 0  21311900.865 0
   3827374.665 7  58811564.919 7  22145327.061 0  22145328.216 0
   9968578.550 7 128310084.785 6  22958047.958 0  22958051.371 0
 88  2 27 10 43 59.0800000  0  3  3 13 12
 -14867226.296 7  72825754.856 6  21307487.874 0  21307489.694 0
   3868311.523 8  58843463.771 6  22153116.957 0  22153118.823 0
  10069547.754 7 128388762.066 6  22977261.938 0  22977265.672 0
 88  2 27 10 44 29.0800000  0  3  3 13 12
 -14890311.723 7  72807766.219 6  21303094.609 0  21303094.459 0
   3909305.047 7  58875406.772 6  22160917.607 0  22160918.079 0
  10170717.827 7 128467595.884 7  22996513.806 0  22996516.551 0
 88  2 27 10 44 59.0800000  0  3  3 13 12
 -14913296.884 7  72789855.717 6  21298719.966 0  21298722.345 0
   3950355.901 8  58907394.463 6  22168728.590 0  22168730.622 0
  10272084.889 7 128546583.186 6  23015804.235 0  23015805.871 0
 88  2 27 10 45 29.0800000  0  3  3 13 12
 -14936182.040 7  72772023.139 6  21294365.777 0  21294367.343 0
   3991464.290 8  58939426.948 6  22176549.742 0  22176552.865 0
  10373645.258 7 128625721.110 7  23035131.088 0  23035132.438 0
 88  2 27 10 45 59.0800000  0  3  3 13 12
 -14958967.320 7  72754268.384 6  21290029.879 0  21290031.851 0
   4032630.099 8  58971504.204 6  22184384.442 0  22184386.819 0
  10475395.329 7 128705006.860 6  23054492.622 0  23054496.076 0
 88  2 27 10 46 29.0800000  0  3  3 13 12
 -14981652.558 7  72736591.580 5  21285712.999 0  21285713.901 0
   4073853.216 7  59003626.126 6  22192230.299 0  22192231.332 0
  10577331.746 7 128784437.824 7  23073890.535 0  23073893.178 0
 88  2 27 10 46 59.0800000  0  3  3 13 12
 -15004238.030 7  72718992.504 6  21281414.903 0  21281415.658 0
   4115133.742 7  59035792.743 6  22200085.804 0  22200087.119 0
  10679451.162 7 128864011.387 6  23093323.529 0  23093325.919 0
 88  2 27 10 47 29.0800000  0  3  3 13 12
 -15026723.638 7  72701471.244 6  21277136.787 0  21277138.032 0
   4156472.188 7  59068004.519 6  22207951.156 0  22207953.140 0
  10781750.117 8 128943724.887 7  23112789.330 0  23112793.289 0
 88  2 27 10 47 59.0800000  0  3  3 13 12
 -15049108.912 7  72684028.169 6  21272876.912 0  21272878.305 0
   4197869.621 7  59100262.267 6  22215828.189 0  22215830.881 0
  10884224.813 8 129023575.281 6  23132289.525 0  23132292.053 0
 88  2 27 10 48 29.0800000  0  3  3 13 12
 -15071394.106 7  72666663.076 6  21268635.894 0  21268637.146 0
   4239325.531 7  59132565.565 7  22223717.567 0  22223719.855 0
  10986871.460 8 129103559.685 7  23151823.223 0  23151827.659 0
 88  2 27 10 48 59.0800000  0  3  3 13 12
 -15093579.073 7  72649376.092 6  21264414.719 0  21264415.619 0
   4280840.229 7  59164914.660 6  22231617.364 0  22231620.739 0
  11089687.189 7 129183675.832 7  23171387.299 0  23171392.007 0
 88  2 27 10 49 29.0800000  0  3  3 13 12
 -15115663.683 7  72632167.303 6  21260212.453 0  21260213.864 0
   4322413.760 7  59197309.616 5  22239529.129 0  22239529.932 0
  11192668.405 7 129263920.902 6  23190983.942 0  23190987.310 0
 88  2 27 10 49 59.0800000  0  3  3 13 12
 -15137647.503 7  72615037.057 6  21256027.909 0  21256030.145 0
   4364046.906 8  59229751.047 6  22247452.020 0  22247452.364 0
  11295810.918 7 129344291.681 7  23210613.011 0  23210615.802 0
 88  2 27 10 50 29.0800000  0  3  3 13 12
 -15159530.670 7  72597985.223 7  21251864.314 0  21251864.739 0
   4405739.768 7  59262238.986 6  22255385.390 0  22255388.266 0
  11399111.997 7 129424785.997 7  23230269.362 0  23230271.900 0
 88  2 27 10 50 59.0800000  0  3  3 13 12
 -15181313.457 7  72581011.630 6  21247717.983 0  21247720.105 0
   4447492.494 7  59294773.570 6  22263331.039 0  22263331.880 0
  11502567.888 7 129505400.980 7  23249957.131 0  23249959.536 0
 88  2 27 10 51 29.0800000  0  3  3 13 12
 -15202994.898 6  72564117.020 7  21243591.551 0  21243595.225 0
   4489305.673 7  59327355.260 6  22271287.081 0  22271289.320 0
  11606175.414 7 129586134.115 7  23269672.432 0  23269674.722 0
 88  2 27 10 51 59.0800000  0  3  3 13 12
 -15224575.316 6  72547301.100 5  21239485.599 0  21239488.338 0
   4531179.211 7  59359983.973 7  22279255.916 0  22279258.080 0
  11709930.649 8 129666982.342 7  23289416.088 0  23289419.843 0
 88  2 27 10 52 29.0800000  0  3  3 13 12
 -15246054.795 6  72530563.849 6  21235399.494 0  21235400.127 0
   4573113.926 7  59392660.373 6  22287235.615 0  22287238.492 0
  11813830.369 7 129747943.155 7  23309187.724 0  23309191.712 0
 88  2 27 10 52 59.0800000  0  3  3 13 12
 -15267433.141 7  72513905.396 6  21231330.601 0  21231332.376 0
   4615110.088 7  59425384.649 6  22295227.626 0  22295228.868 0
  11917870.872 7 129829013.652 7  23328985.803 0  23328990.340 0
 88  2 27 10 53 29.0800000  0  3  3 13 12
 -15288710.485 7  72497325.658 6  21227281.885 0  21227283.370 0
   4657167.504 7  59458156.655 6  22303231.593 0  22303232.028 0
  12022048.252 7 129910190.803 7  23348810.950 0  23348814.524 0
 88  2 27 10 53 59.0800000  0  3  3 13 12
 -15309886.336 7  72480824.994 6  21223251.919 0  21223253.068 0
   4699286.922 7  59490976.962 6  22311244.174 0  22311247.987 0
  12126359.626 7 129991472.375 7  23368661.773 0  23368663.205 0
 88  2 27 10 54 29.0800000  0  3  3 13 12
 -15330960.598 7  72464403.495 5  21219242.855 0  21219241.834 0
   4741468.531 7  59523845.728 6  22319271.373 0  22319273.200 0
  12230801.081 8 130072855.302 7  23388534.646 0  23388537.861 0
 88  2 27 10 54 59.0800000  0  3  3 13 12
 -15351933.116 7  72448061.261 6  21215250.841 0  21215251.339 0
   4783713.096 6  59556763.562 6  22327309.609 0  22327312.072 0
  12335369.341 7 130154337.047 7  23408434.630 0  23408436.577 0
 88  2 27 10 55 29.0800000  0  3  3 13 12
 -15372803.583 7  72431798.561 6  21211279.299 0  21211280.505 0
   4826020.530 8  59589730.385 6  22335361.751 0  22335363.421 0
  12440061.089 8 130235915.005 6  23428356.771 0  23428359.466 0
 88  2 27 10 55 59.0800000  0  3  3 13 12
 -15393571.619 7  72415615.664 7  21207327.703 0  21207327.701 0
   4868391.165 7  59622746.447 6  22343425.999 0  22343426.188 0
  12544872.728 8 130317586.392 7  23448302.125 0  23448304.295 0
 88  2 27 10 56 29.0800000  0  3  3 13 12
 -15414237.475 7  72399512.407 6  21203395.119 0  21203395.712 0
   4910825.341 7  59655812.040 6  22351500.470 0  22351502.549 0
  12649800.722 7 130399348.441 6  23468268.231 0  23468271.609 0
 88  2 27 10 56 59.0800000  0  3  3 13 12
 -15434801.139 7  72383488.775 6  21199481.568 0  21199481.747 0
   4953323.455 8  59688927.462 6  22359586.870 0  22359588.894 0
  12754841.611 7 130481198.455 7  23488256.323 0  23488259.576 0
 88  2 27 10 57 29.0800000  0  3  3 13 12
 -15455262.175 7  72367545.119 6  21195588.120 0  21195589.759 0
   4995886.094 7  59722093.160 6  22367686.921 0  22367687.272 0
  12859991.840 7 130563133.672 7  23508264.980 0  23508269.293 0
 88  2 27 10 57 59.0800000  0  3  3 13 12
 -15475620.227 7  72351681.712 6  21191714.307 0  21191715.136 0
   5038513.472 7  59755309.283 6  22375797.897 0  22375799.675 0
  12965248.283 8 130645151.647 6  23528295.832 0  23528299.367 0
 88  2 27 10 58 29.0800000  0  3  3 13 12
 -15495875.151 7  72335898.654 6  21187859.848 0  21187860.756 0
   5081205.937 7  59788576.138 6  22383923.115 0  22383923.384 0
  13070606.960 7 130727249.314 7  23548345.009 0  23548348.319 0
 88  2 27 10 58 59.0800000  0  3  3 13 12
 -15516026.757 7  72320196.132 6  21184025.216 0  21184026.781 0
   5123963.529 7  59821893.727 6  22392059.040 0  22392060.097 0
  13176064.345 7 130809423.873 6  23568413.326 0  23568416.828 0
 88  2 27 10 59 29.0800000  0  3  3 13 12
 -15536074.523 7  72304574.499 6  21180209.568 0  21180211.929 0
   5166787.352 7  59855262.936 6  22400208.258 0  22400209.162 0
  13281617.243 8 130891672.866 6  23588499.912 0  23588502.736 0
 88  2 27 10 59 59.0800000  0  3  3 13 12
 -15556018.462 7  72289033.759 6  21176414.810 0  21176417.524 0
   5209677.436 7  59888683.778 6  22408369.516 0  22408371.183 0
  13387262.152 7 130973993.533 7  23608604.017 0  23608606.035 0
 88  2 27 11  0 29.0800000  0  3  3 13 12
 -15575858.003 7  72273574.355 6  21172638.755 0  21172640.440 0
   5252634.350 7  59922156.681 6  22416543.865 0  22416545.726 0
  13492995.603 8 131056383.219 6  23628724.091 0  23628727.039 0
 88  2 27 11  0 59.0800000  0  3  3 13 12
 -15595592.640 7  72258196.717 6  21168883.721 0  21168884.510 0
   5295658.442 7  59955681.930 7  22424731.770 0  22424733.486 0
  13598814.031 7 131138839.127 6  23648859.423 0  23648863.402 0
 88  2 27 11  1 29.0800000  0  3  3 13 12
 -15615222.372 7  72242900.832 6  21165148.449 0  21165151.240 0
   5338750.347 8  59989260.038 6  22432931.554 0  22432934.017 0
  13704714.441 7 131221358.907 6  23669012.003 0  23669014.493 0
 88  2 27 11  1 59.0800000  0  3  3 13 12
 -15634747.390 7  72227686.518 6  21161432.854 0  21161434.110 0
   5381909.474 7  60022890.504 6  22441143.892 0  22441146.869 0
  13810692.678 8 131303939.360 6  23689179.007 0  23689182.117 0
 88  2 27 11  2 29.0800000  0  3  3 13 12
 -15654167.052 7  72212554.317 6  21157737.836 0  21157738.927 0
   5425137.856 7  60056574.939 7  22449368.706 0  22449372.975 0
  13916745.750 8 131386578.132 5  23709359.527 0  23709362.543 0
 88  2 27 11  2 59.0800000  0  3  3 13 12
 -15673481.100 7  72197504.405 6  21154063.076 0  21154063.274 0
   5468434.866 7  60090312.846 6  22457609.165 0  22457611.700 0
  14022870.514 7 131469272.751 5  23729554.653 0  23729556.781 0
 88  2 27 11  3 29.0800000  0  3  3 13 12
 -15692688.703 7  72182537.440 6  21150407.707 0  21150410.157 0
   5511801.614 7  60124105.115 6  22465861.024 0  22465863.595 0
  14129063.167 7 131552020.285 6  23749763.058 0  23749764.461 0
 88  2 27 11  3 59.0800000  0  3  3 13 12
 -15711789.635 7  72167653.599 6  21146773.183 0  21146773.477 0
   5555238.538 7  60157952.066 7  22474127.324 0  22474130.559 0
  14235320.261 7 131634818.029 6  23769983.482 0  23769984.237 0
 88  2 27 11  4 29.0800000  0  3  3 13 12
 -15730783.638 7  72152853.078 6  21143157.253 0  21143159.948 0
   5598746.008 7  60191853.994 7  22482407.270 0  22482407.482 0
  14341639.097 7 131717663.876 7  23790215.459 0  23790217.167 0
 88  2 27 11  4 59.0800000  0  3  3 13 12
 -15749670.533 7  72138136.028 6  21139562.964 0  21139566.303 0
   5642324.319 7  60225811.132 6  22490699.802 0  22490700.679 0
  14448015.517 7 131800554.587 7  23810457.209 0  23810461.030 0
 88  2 27 11  5 29.0800000  0  3  3 13 12
 -15768449.614 7  72123502.971 6  21135989.748 0  21135991.843 0
   5685973.899 7  60259823.792 6  22499006.077 0  22499008.895 0
  14554446.523 7 131883487.818 7  23830710.425 0  23830714.499 0
 88  2 27 11  5 59.0800000  0  3  3 13 12
 -15787120.502 7  72108954.220 7  21132437.452 0  21132438.124 0
   5729695.396 7  60293892.479 6  22507325.441 0  22507327.908 0
  14660928.406 7 131966460.720 7  23850974.502 0  23850976.897 0
 88  2 27 11  6 29.0800000  0  3  3 13 12
 -15805683.315 7  72094489.685 6  21128904.630 0  21128907.409 0
   5773489.183 7  60328017.516 6  22515658.187 0  22515660.952 0
  14767457.661 7 132049470.527 6  23871244.455 0  23871248.749 0
 88  2 27 11  6 59.0800000  0  3  3 13 12
 -15824137.674 7  72080109.685 6  21125392.980 0  21125395.447 0
   5817355.170 7  60362198.767 6  22524006.645 0  22524010.063 0
  14874030.814 6 132132514.541 6  23891525.699 0  23891529.053 0
 88  2 27 11  7 29.0800000  0  3  3 13 12
 -15842482.920 7  72065814.675 6  21121903.137 0  21121903.148 0
   5861294.898 7  60396437.511 6  22532368.446 0  22532370.214 0
  14980644.682 7 132215590.263 6  23911813.066 0  23911816.415 0
 88  2 27 11  7 59.0800000  0  3  3 13 12
 -15860718.424 7  72051605.181 6  21118431.414 0  21118433.204 0
   5905308.111 8  60430733.522 7  22540744.926 0  22540745.268 0
  15087295.829 7 132298695.058 7  23932109.902 0  23932110.675 0
 88  2 27 11  8 29.0800000  0  3  3 13 12
 -15878843.793 6  72037481.518 7  21114983.341 0  21114984.682 0
   5949395.475 7  60465087.302 6  22549133.805 0  22549135.782 0
  15193981.224 7 132381826.544 6  23952410.529 0  23952411.593 0
 88  2 27 11  8 59.0800000  0  3  3 13 12
 -15896858.464 7  72023444.109 7  21111555.000 0  21111557.338 0
   5993558.152 7  60499499.758 7  22557536.902 0  22557538.879 0
  15300697.092 7 132464981.727 7  23972718.187 0  23972720.076 0
 88  2 27 11  9 29.0800000  0  3  3 13 12
 -15914762.623 7  72009492.812 6  21108147.123 0  21108150.261 0
   6037795.515 7  60533970.421 7  22565955.377 0  22565956.041 0
  15407440.315 7 132548158.266 7  23993030.281 0  23993032.452 0
 88  2 27 11  9 59.0800000  0  3  3 13 12
 -15932555.313 6  71995628.371 6  21104761.448 0  21104763.878 0
   6082109.292 7  60568500.639 6  22574389.215 0  22574390.037 0
  15514207.403 7 132631353.394 7  24013345.833 0  24013349.425 0
 88  2 27 11 10 29.0800000  0  3  3 13 12
 -15950235.690 6  71981851.453 6  21101397.089 0  21101398.985 0
   6126499.621 7  60603090.495 7  22582834.507 0  22582837.845 0
  15620995.089 7 132714564.566 6  24033668.325 0  24033670.987 0
 88  2 27 11 10 59.0800000  0  3  3 13 12
 -15967803.406 7  71968162.322 7  21098053.788 0  21098056.297 0
   6170967.288 7  60637740.624 7  22591296.441 0  22591299.055 0
  15727800.363 7 132797789.427 7  24053991.666 0  24053995.582 0
 88  2 27 11 11 29.0800000  0  3  3 13 12
 -15985258.433 7  71954561.004 7  21094732.786 0  21094736.047 0
   6215512.571 7  60672451.215 7  22599773.585 0  22599775.808 0
  15834619.230 7 132881024.912 7  24074318.756 0  24074322.524 0
 88  2 27 11 11 59.0800000  0  3  3 13 12
 -16002600.140 6  71941047.985 6  21091432.647 0  21091434.145 0
   6260136.530 7  60707223.115 6  22608265.267 0  22608267.614 0
  15941448.914 7 132964268.826 7  24094647.210 0  24094652.099 0
 88  2 27 11 12 29.0800000  0  3  3 13 12
 -16019827.984 7  71927623.675 6  21088153.851 0  21088156.400 0
   6304838.658 7  60742055.952 6  22616771.280 0  22616773.673 0
  16048285.852 8 133047518.375 7  24114977.992 0  24114982.418 0
 88  2 27 11 12 59.0800000  0  3  3 13 12
 -16036941.670 7  71914288.338 6  21084897.839 0  21084900.217 0
   6349620.078 8  60776950.546 6  22625293.359 0  22625295.214 0
  16155126.280 7 133130770.649 6  24135309.465 0  24135313.510 0
 88  2 27 11 13 29.0800000  0  3  3 13 12
 -16053940.325 7  71901042.632 7  21081663.191 0  21081665.908 0
   6394480.875 7  60811907.018 6  22633830.064 0  22633832.412 0
  16261967.397 8 133214023.478 6  24155640.427 0  24155645.918 0
 88  2 27 11 13 59.0800000  0  3  3 13 12
 -16070823.521 7  71887886.898 6  21078450.505 0  21078451.642 0
   6439421.990 7  60846926.084 6  22642382.760 0  22642384.212 0
  16368805.695 7 133297274.095 6  24175971.858 0  24175974.959 0
 88  2 27 11 14 29.0800000  0  3  3 13 12
 -16087590.550 8  71874821.674 7  21075259.792 0  21075260.950 0
   6484443.910 8  60882008.109 7  22650949.135 0  22650951.746 0
  16475637.725 8 133380519.880 6  24196301.939 0  24196302.864 0
 88  2 27 11 14 59.0800000  0  3  3 13 12
 -16104241.178 7  71861847.157 6  21072092.205 0  21072092.748 0
   6529546.764 7  60917153.194 6  22659532.751 0  22659533.577 0
  16582460.225 8 133463758.225 6  24216628.595 0  24216630.236 0
 88  2 27 11 15 29.0800000  0  3  3 13 12
 -16120774.400 7  71848964.122 6  21068946.202 0  21068947.358 0
   6574732.018 7  60952362.487 7  22668130.223 0  22668133.030 0
  16689270.367 6 133546986.859 6  24236953.948 0  24236957.769 0
 88  2 27 11 15 59.0800000  0  3  3 13 12
 -16137190.012 7  71836172.747 6  21065821.176 0  21065824.313 0
   6619999.408 8  60987635.772 7  22676744.963 0  22676747.090 0
  16796064.493 7 133630203.028 5  24257277.041 0  24257279.570 0
 88  2 27 11 16 29.0800000  0  3  3 13 12
 -16153487.365 7  71823473.524 6  21062720.244 0  21062721.335 0
   6665349.852 7  61022973.764 7  22685374.986 0  22685377.405 0
  16902839.609 7 133713404.413 6  24277594.091 0  24277597.745 0
 88  2 27 11 16 59.0800000  0  3  3 13 12
 -16169666.113 6  71810866.706 6  21059642.490 0  21059645.033 0
   6710783.797 8  61058376.849 7  22694020.680 0  22694023.648 0
  17009591.953 7 133796588.067 7  24297909.609 0  24297911.761 0
 88  2 27 11 17 29.0800000  0  3  3 13 12
 -16185725.686 7  71798352.764 6  21056587.278 0  21056586.558 0
   6756301.992 8  61093845.561 7  22702682.979 0  22702685.587 0
  17116318.794 8 133879751.839 6  24318218.059 0  24318221.322 0
 88  2 27 11 17 59.0800000  0  3  3 13 12
 -16201664.719 7  71785932.723 7  21053553.141 0  21053553.518 0
   6801905.748 8  61129380.925 7  22711360.330 0  22711364.049 0
  17223016.342 8 133962892.822 6  24338522.393 0  24338525.789 0
 88  2 27 11 18 29.0800000  0  3  3 13 12
 -16217483.114 7  71773606.698 6  21050541.811 0  21050543.840 0
   6847595.102 8  61164983.012 7  22720055.467 0  22720057.771 0
  17329681.948 8 134046008.914 6  24358820.788 0  24358823.035 0
 88  2 27 11 18 59.0800000  0  3  3 13 12
 -16233179.923 7  71761375.420 6  21047555.363 0  21047558.303 0
   6893371.118 8  61200652.640 6  22728765.930 0  22728768.276 0
  17436312.350 8 134129097.554 7  24379111.689 0  24379114.786 0
 88  2 27 11 19 29.0800000  0  3  3 13 12
 -16248754.715 7  71749239.212 6  21044592.839 0  21044593.042 0
   6939234.020 7  61236389.962 6  22737494.016 0  22737494.336 0
  17542904.129 8 134212156.096 6  24399395.671 0  24399397.417 0
 88  2 27 11 19 59.0800000  0  3  3 13 12
 -16264206.859 7  71737198.577 7  21041651.324 0  21041652.732 0
   6985184.175 7  61272195.279 6  22746236.904 0  22746238.229 0
  17649453.749 7 134295181.785 6  24419671.262 0  24419674.058 0
 88  2 27 11 20 29.0800000  0  3  3 13 12
 -16279535.615 7  71725254.084 6  21038734.263 0  21038736.714 0
   7031222.640 7  61308069.403 5  22754997.381 0  22754998.616 0
  17755958.327 7 134378172.355 6  24439938.530 0  24439940.739 0
 88  2 27 11 20 59.0800000  0  3  3 13 12
 -16294740.514 7  71713406.119 7  21035839.642 0  21035842.424 0
   7077349.778 8  61344012.628 6  22763775.045 0  22763775.764 0
  17862414.494 7 134461125.214 5  24460195.901 0  24460199.760 0
 88  2 27 11 21 29.0800000  0  3  3 13 12
 -16309820.592 7  71701655.416 6  21032970.833 0  21032973.319 0
   7123565.781 7  61380025.096 6  22772569.944 0  22772571.626 0
  17968819.441 7 134544038.153 5  24480443.723 0  24480447.019 0
 88  2 27 11 21 59.0800000  0  3  3 13 12
 -16324775.366 7  71690002.362 6  21030124.472 0  21030125.983 0
   7169871.845 7  61416107.745 6  22781383.554 0  22781384.580 0
  18075170.042 7 134626908.771 5  24500681.590 0  24500685.530 0
 88  2 27 11 22 29.0800000  0  3  3 13 12
 -16339604.020 7  71678447.548 6  21027303.748 0  21027305.355 0
   7216268.481 7  61452260.973 6  22790211.286 0  22790213.836 0
  18181462.745 7 134709734.272 5  24520908.330 0  24520910.989 0
 88  2 27 11 22 59.0800000  0  2  3 13
 -16354306.141 7  71666991.361 7  21024504.701 0  21024508.186 0
   7262756.387 7  61488485.293 6  22799057.091 0  22799059.618 0
 88  2 27 11 23 29.0800000  0  2  3 13
 -16368880.893 8  71655634.401 7  21021732.118 0  21021732.580 0
   7309335.884 7  61524781.021 6  22807921.596 0  22807922.625 0
 88  2 27 11 23 59.0800000  0  2  3 13
 -16383327.497 7  71644377.311 6  21018983.632 0  21018984.647 0
   7356007.954 7  61561148.867 7  22816804.003 0  22816803.923 0
 88  2 27 11 24 29.0800000  0  2  3 13
 -16397644.843 7  71633220.928 6  21016258.460 0  21016260.751 0
   7402772.962 7  61597589.124 7  22825703.366 0  22825704.627 0
 88  2 27 11 24 59.0800000  0  2  3 13
 -16411832.653 7  71622165.499 6  21013557.509 0  21013560.221 0
   7449631.830 7  61634102.520 7  22834619.348 0  22834621.920 0
 88  2 27 11 25 29.0800000  0  2  3 13
 -16425890.355 7  71611211.436 7  21010882.939 0  21010886.089 0
   7496584.528 7  61670689.046 7  22843554.541 0  22843555.826 0
 88  2 27 11 25 59.0800000  0  2  3 13
 -16439816.882 7  71600359.600 7  21008233.144 0  21008235.629 0
   7543631.866 7  61707349.304 7  22852507.135 0  22852509.498 0
 88  2 27 11 26 29.0800000  0  2  3 13
 -16453611.442 7  71589610.589 7  21005608.469 0  21005610.408 0
   7590774.971 8  61744084.178 7  22861477.844 0  22861479.912 0
 88  2 27 11 26 59.0800000  0  2  3 13
 -16467273.127 7  71578965.117 7  21003008.255 0  21003009.939 0
   7638014.508 7  61780894.213 6  22870467.098 0  22870469.718 0
 88  2 27 11 27 29.0800000  0  2  3 13
 -16480800.969 7  71568423.932 7  21000433.829 0  21000435.880 0
   7685351.208 7  61817779.952 7  22879472.855 0  22879477.197 0
 88  2 27 11 27 59.0800000  0  2  3 13
 -16494194.281 7  71557987.610 7  20997885.679 0  20997887.872 0
   7732785.855 7  61854741.999 7  22888500.286 0  22888502.491 0
 88  2 27 11 28 29.0800000  0  2  3 13
 -16507452.661 7  71547656.395 6  20995363.478 0  20995364.733 0
   7780319.197 6  61891780.964 7  22897546.958 0  22897550.103 0
 88  2 27 11 28 59.0800000  0  2  3 13
 -16520575.130 6  71537431.110 7  20992864.778 0  20992867.259 0
   7827951.708 7  61928897.196 6  22906610.687 0  22906613.240 0
 88  2 27 11 29 29.0800000  0  2  3 13
 -16533560.681 7  71527312.493 7  20990394.796 0  20990396.375 0
   7875683.462 7  61966090.766 7  22915695.097 0  22915695.704 0
 88  2 27 11 29 59.0800000  0  2  3 13
 -16546408.511 7  71517301.206 6  20987950.125 0  20987952.300 0
   7923515.814 7  62003362.728 7  22924796.382 0  22924798.430 0
 88  2 27 11 30 29.0800000  0  2  3 13
 -16559117.800 7  71507397.862 7  20985530.350 0  20985534.089 0
   7971449.155 7  62040713.375 6  22933916.975 0  22933920.168 0
 88  2 27 11 30 59.0800000  0  2  3 13
 -16571687.937 7  71497602.956 7  20983139.003 0  20983141.127 0
   8019484.271 7  62078143.352 6  22943058.842 0  22943059.745 0
 88  2 27 11 31 29.0800000  0  2  3 13
 -16584118.088 7  71487917.126 7  20980773.228 0  20980775.977 0
   8067621.662 7  62115653.011 6  22952218.899 0  22952219.870 0
 88  2 27 11 31 59.0800000  0  2  3 13
 -16596407.415 7  71478341.024 7  20978435.531 0  20978436.941 0
   8115862.003 7  62153242.888 6  22961400.078 0  22961400.041 0
 88  2 27 11 32 29.0800000  0  2  3 13
 -16608554.782 7  71468875.537 7  20976123.527 0  20976124.950 0
   8164206.397 7  62190913.851 7  22970599.219 0  22970599.412 0
 88  2 27 11 32 59.0800000  0  2  3 13
 -16620558.901 7  71459521.680 7  20973839.033 0  20973840.773 0
   8212655.251 7  62228666.222 6  22979816.972 0  22979817.808 0
 88  2 27 11 33 29.0800000  0  2  3 13
 -16632419.298 7  71450279.821 6  20971582.760 0  20971584.963 0
   8261208.767 7  62266500.114 7  22989056.112 0  22989058.656 0
 88  2 27 11 33 59.0800000  0  2  3 13
 -16644134.843 7  71441150.835 6  20969352.901 0  20969354.466 0
   8309868.625 7  62304416.882 6  22998316.468 0  22998318.058 0
 88  2 27 11 34 29.0800000  0  2  3 13
 -16655704.886 7  71432135.220 7  20967151.905 0  20967152.109 0
   8358634.916 7  62342416.573 6  23007594.643 0  23007598.370 0
 88  2 27 11 34 59.0800000  0  2  3 13
 -16667128.741 7  71423233.522 6  20964977.975 0  20964978.741 0
   8407508.301 7  62380499.694 6  23016894.359 0  23016898.744 0
 88  2 27 11 35 29.0800000  0  2  3 13
 -16678405.311 7  71414446.592 6  20962832.312 0  20962833.669 0
   8456489.291 6  62418666.678 7  23026216.807 0  23026219.895 0
 88  2 27 11 35 59.0800000  0  2  3 13
 -16689533.506 7  71405775.277 7  20960714.309 0  20960715.625 0
   8505579.132 7  62456918.495 7  23035558.992 0  23035562.347 0
 88  2 27 11 36 29.0800000  0  2  3 13
 -16700512.074 7  71397220.547 6  20958624.764 0  20958626.540 0
   8554777.902 7  62495255.178 7  23044922.279 0  23044923.998 0
 88  2 27 11 36 59.0800000  0  2  3 13
 -16711340.389 7  71388782.902 6  20956564.363 0  20956565.649 0
   8604086.625 7  62533677.549 6  23054303.805 0  23054306.144 0
 88  2 27 11 37 29.0800000  0  2  3 13
 -16722017.351 6  71380463.185 6  20954532.942 0  20954534.692 0
   8653506.285 7  62572186.377 7  23063708.990 0  23063711.109 0
 88  2 27 11 37 59.0800000  0  2  3 13
 -16732542.648 7  71372261.666 6  20952529.228 0  20952530.708 0
   8703037.452 7  62610782.090 7  23073134.674 0  23073136.092 0
 88  2 27 11 38 29.0800000  0  2  3 13
 -16742914.309 7  71364179.857 7  20950556.373 0  20950557.124 0
   8752680.762 7  62649465.204 6  23082581.650 0  23082582.482 0
 88  2 27 11 38 59.0800000  0  2  3 13
 -16753132.015 7  71356218.016 7  20948612.595 0  20948612.389 0
   8802437.283 7  62688236.497 7  23092050.195 0  23092051.838 0
 88  2 27 11 39 29.0800000  0  2  3 13
 -16763194.680 7  71348376.986 7  20946697.314 0  20946697.871 0
   8852306.578 7  62727095.695 6  23101539.307 0  23101539.876 0
 88  2 27 11 39 59.0800000  0  2  3 13
 -16773101.140 7  71340657.674 7  20944812.258 0  20944813.039 0
   8902289.788 7  62766043.639 6  23111050.694 0  23111051.531 0
 88  2 27 11 40 29.0800000  0  2  3 13
 -16782850.655 8  71333060.664 6  20942957.311 0  20942958.680 0
   8952387.743 7  62805080.993 6  23120583.888 0  23120587.534 0
 88  2 27 11 40 59.0800000  0  2  3 13
 -16792442.584 7  71325586.427 7  20941130.818 0  20941131.705 0
   9002601.641 7  62844208.714 6  23130139.052 0  23130140.689 0
 88  2 27 11 41 29.0800000  0  2  3 13
 -16801875.357 7  71318236.214 7  20939337.598 0  20939338.539 0
   9052931.604 7  62883426.851 6  23139717.272 0  23139719.224 0
 88  2 27 11 41 59.0800000  0  2  3 13
 -16811148.129 7  71311010.682 6  20937572.156 0  20937572.671 0
   9103378.763 7  62922736.309 6  23149316.107 0  23149318.479 0
 88  2 27 11 42 29.0800000  0  2  3 13
 -16820260.067 7  71303910.477 6  20935838.309 0  20935838.915 0
   9153943.247 8  62962137.192 7  23158938.180 0  23158941.535 0
 88  2 27 11 42 59.0800000  0  2  3 13
 -16829209.862 8  71296936.611 6  20934134.573 0  20934135.446 0
   9204626.395 8  63001630.534 7  23168583.110 0  23168584.957 0
 88  2 27 11 43 29.0800000  0  2  3 13
 -16837995.966 7  71290090.308 7  20932461.925 0  20932463.958 0
   9255428.802 7  63041216.820 6  23178250.600 0  23178254.103 0
 88  2 27 11 43 59.0800000  0  2  3 13
 -16846617.638 7  71283372.118 7  20930822.956 0  20930823.214 0
   9306350.967 7  63080896.423 7  23187941.310 0  23187942.900 0
 88  2 27 11 44 29.0800000  0  2  3 13
 -16855074.187 7  71276782.600 7  20929212.760 0  20929213.512 0
   9357393.032 7  63120669.458 6  23197654.122 0  23197655.746 0
 88  2 27 11 44 59.0800000  0  2  3 13
 -16863364.461 7  71270322.646 7  20927635.297 0  20927635.438 0
   9408556.037 7  63160536.723 7  23207390.125 0  23207392.283 0
 88  2 27 11 45 29.0800000  0  2  3 13
 -16871487.214 7  71263993.239 6  20926089.850 0  20926091.903 0
   9459840.526 7  63200498.649 7  23217148.937 0  23217151.557 0
 88  2 27 11 45 59.0800000  0  2  3 13
 -16879441.546 7  71257795.071 7  20924576.289 0  20924577.329 0
   9511247.245 7  63240555.824 7  23226931.998 0  23226933.851 0
 88  2 27 11 46 29.0800000  0  2  3 13
 -16887226.197 7  71251729.105 7  20923095.274 0  20923096.728 0
   9562777.289 7  63280709.071 6  23236737.973 0  23236740.269 0
 88  2 27 11 46 59.0800000  0  2  3 13
 -16894839.994 7  71245796.281 6  20921645.893 0  20921646.606 0
   9614431.223 7  63320958.869 6  23246567.511 0  23246568.991 0
 88  2 27 11 47 29.0800000  0  2  3 13
 -16902282.019 7  71239997.296 7  20920229.526 0  20920231.131 0
   9666209.822 8  63361305.832 6  23256419.275 0  23256422.983 0
 88  2 27 11 47 59.0800000  0  2  3 13
 -16909551.341 7  71234332.901 7  20918846.439 0  20918846.685 0
   9718113.455 7  63401750.215 6  23266296.681 0  23266299.254 0
 88  2 27 11 48 29.0800000  0  2  3 13
 -16916646.284 8  71228804.374 7  20917496.496 0  20917496.821 0
   9770143.435 6  63442293.030 6  23276196.820 0  23276199.569 0
 88  2 27 11 48 59.0800000  0  2  3 13
 -16923566.450 7  71223412.031 7  20916179.377 0  20916179.881 0
   9822299.681 7  63482934.247 7  23286122.363 0  23286126.190 0
 88  2 27 11 49 29.0800000  0  2  3 13
 -16930310.080 7  71218157.279 7  20914895.353 0  20914896.348 0
   9874583.365 7  63523674.770 6  23296070.552 0  23296074.012 0
 88  2 27 11 49 59.0800000  0  2  3 13
 -16936876.164 7  71213040.858 6  20913646.614 0  20913647.665 0
   9926994.860 7  63564514.873 6  23306045.213 0  23306048.821 0
 88  2 27 11 50 29.0800000  0  2  3 13
 -16943263.996 7  71208063.321 7  20912431.063 0  20912431.523 0
   9979535.281 7  63605455.438 6  23316043.437 0  23316046.639 0
 88  2 27 11 50 59.0800000  0  2  3 13
 -16949471.988 7  71203225.918 7  20911249.853 0  20911251.103 0
  10032204.940 7  63646496.713 6  23326067.627 0  23326067.362 0
 88  2 27 11 51 29.0800000  0  2  3 13
 -16955498.931 7  71198529.611 7  20910103.744 0  20910104.140 0
  10085004.469 7  63687639.209 7  23336114.397 0  23336116.078 0
 88  2 27 11 51 59.0800000  0  2  3 13
 -16961343.748 7  71193975.199 6  20908990.656 0  20908991.475 0
  10137934.824 7  63728883.618 6  23346187.401 0  23346189.305 0
 88  2 27 11 52 29.0800000  0  2  3 13
 -16967005.357 7  71189563.571 7  20907913.574 0  20907913.646 0
  10190996.569 7  63770230.447 7  23356283.957 0  23356286.010 0
 88  2 27 11 52 59.0800000  0  2  3 13
 -16972482.743 7  71185295.475 6  20906871.902 0  20906871.910 0
  10244190.764 7  63811680.444 6  23366405.783 0  23366409.200 0
 88  2 27 11 53 29.0800000  0  2  3 13
 -16977774.414 7  71181172.106 6  20905864.665 0  20905865.458 0
  10297517.787 7  63853233.957 7  23376553.739 0  23376555.209 0
 88  2 27 11 53 59.0800000  0  2  3 13
 -16982879.496 7  71177194.113 7  20904893.141 0  20904891.233 0
  10350978.192 7  63894891.418 7  23386727.927 0  23386729.179 0
 88  2 27 11 54 29.0800000  0  2  3 13
 -16987796.341 7  71173362.818 7  20903956.731 0  20903958.472 0
  10404572.733 7  63936653.378 6  23396925.850 0  23396928.728 0
 88  2 27 11 54 59.0800000  0  2  3 13
 -16992523.780 7  71169679.102 7  20903057.451 0  20903058.328 0
  10458302.504 7  63978520.721 6  23407150.740 0  23407151.439 0
 88  2 27 11 55 29.0800000  0  2  3 13
 -16997061.295 8  71166143.381 7  20902193.512 0  20902194.998 0
  10512168.088 7  64020493.893 6  23417399.499 0  23417403.493 0
 88  2 27 11 55 59.0800000  0  2  3 13
 -17001407.273 7  71162756.897 6  20901366.745 0  20901367.469 0
  10566169.593 7  64062572.976 6  23427676.972 0  23427678.743 0
 88  2 27 11 56 29.0800000  0  2  3 13
 -17005560.567 7  71159520.571 7  20900576.360 0  20900577.256 0
  10620307.332 7  64104758.220 6  23437977.568 0  23437981.356 0
 88  2 27 11 56 59.0800000  0  2  3 13
 -17009519.931 7  71156435.347 6  20899822.765 0  20899823.272 0
  10674582.911 7  64147050.833 7  23448307.631 0  23448308.443 0
 88  2 27 11 57 29.0800000  0  2  3 13
 -17013283.924 6  71153502.375 6  20899104.949 0  20899107.122 0
  10728996.610 6  64189451.109 6  23458660.484 0  23458664.431 0
 88  2 27 11 57 59.0800000  0  2  3 13
 -17016851.499 7  71150722.456 6  20898427.336 0  20898429.347 0
  10783549.213 7  64231959.624 6  23469044.235 0  23469044.414 0
 88  2 27 11 58 29.0800000  0  2  3 13
 -17020221.774 7  71148096.258 6  20897786.841 0  20897786.988 0
  10838241.198 7  64274576.752 7  23479449.785 0  23479453.411 0
 88  2 27 11 58 59.0800000  0  2  3 13
 -17023393.200 7  71145625.032 6  20897182.881 0  20897183.701 0
  10893073.133 7  64317302.946 6  23489885.393 0  23489885.848 0
 88  2 27 11 59 29.0800000  0  2  3 13
 -17026364.363 7  71143309.848 7  20896618.197 0  20896618.800 0
  10948045.832 7  64360138.787 7  23500345.975 0  23500347.069 0
 88  2 27 11 59 59.0800000  0  2  3 13
 -17029133.923 7  71141151.753 6  20896089.467 0  20896091.938 0
  11003159.811 7  64403084.729 6  23510832.705 0  23510836.646 0
 88  2 27 12  0 29.0800000  0  2  3 13
 -17031700.728 7  71139151.647 6  20895601.547 0  20895603.739 0
  11058416.101 7  64446141.558 6  23521347.748 0  23521349.581 0
 88  2 27 12  0 59.0800000  0  2  3 13
 -17034063.646 7  71137310.427 6  20895152.208 0  20895153.531 0
  11113814.843 7  64489309.412 6  23531891.057 0  23531892.108 0
 88  2 27 12  1 29.0800000  0  2  3 13
 -17036221.862 8  71135628.702 6  20894742.491 0  20894742.938 0
  11169356.947 7  64532588.942 6  23542458.366 0  23542461.115 0
 88  2 27 12  1 59.0800000  0  2  3 13
 -17038174.020 8  71134107.543 7  20894370.512 0  20894371.187 0
  11225043.275 7  64575980.887 6  23553057.013 0  23553057.678 0
 88  2 27 12  2 29.0800000  0  2  3 13
 -17039918.317 8  71132748.358 6  20894037.759 0  20894039.274 0
  11280874.412 7  64619485.661 6  23563680.139 0  23563682.811 0
 88  2 27 12  2 59.0800000  0  2  3 13
 -17041453.360 7  71131552.230 7  20893746.491 0  20893747.186 0
  11336851.124 7  64663103.901 6  23574334.038 0  23574332.752 0
 88  2 27 12  3 29.0800000  0  2  3 13
 -17042778.452 7  71130519.699 7  20893494.308 0  20893495.543 0
  11392973.231 7  64706835.414 6  23585012.807 0  23585014.750 0
